<?xml version="1.0" encoding="UTF-8" standalone="no" ?>
<gpx xmlns="http://www.topografix.com/GPX/1/1" xmlns:xsi="http://www.w3.org/2001/XMLSchema-instance" xsi:schemaLocation="http://www.topografix.com/GPX/1/1 http://www.topografix.com/GPX/1/1/gpx.xsd" version="1.1" creator="VisuGPX - https://www.visugpx.com">
  <metadata>
    <name>Refuge de Péclet-Polset, chemin des Planettes</name>
    <desc><![CDATA[Pont de la Pêche, refuge du Roc de la Pêche, les Mollaret, refuge de Péclet-Polset, lac Blanc, le chemin des Planettes, chalet de Rosoire, alpage de Ritord. Retour intéressant, pas toujours visible, un peu long, mais conseillé !]]></desc>
  </metadata>
  <trk>
    <name><![CDATA[Refuge de Péclet-Polset, chemin des Planettes_1]]></name>
    <trkseg>
      <trkpt lat="45.33971" lon="6.69503">
        <ele>1723.3</ele>
        <time>2019-09-12T06:48:02Z</time>
      </trkpt>
      <trkpt lat="45.33954" lon="6.69494">
        <ele>1745.41</ele>
        <time>2019-09-12T06:48:18Z</time>
      </trkpt>
      <trkpt lat="45.33944" lon="6.69501">
        <ele>1752.62</ele>
        <time>2019-09-12T06:50:45Z</time>
      </trkpt>
      <trkpt lat="45.33942" lon="6.69498">
        <ele>1753.58</ele>
        <time>2019-09-12T06:50:47Z</time>
      </trkpt>
      <trkpt lat="45.33938" lon="6.69496">
        <ele>1756.95</ele>
        <time>2019-09-12T06:51:07Z</time>
      </trkpt>
      <trkpt lat="45.33931" lon="6.69506">
        <ele>1756.95</ele>
        <time>2019-09-12T06:51:53Z</time>
      </trkpt>
      <trkpt lat="45.33919" lon="6.69509">
        <ele>1754.54</ele>
        <time>2019-09-12T06:52:10Z</time>
      </trkpt>
      <trkpt lat="45.33913" lon="6.69508">
        <ele>1753.1</ele>
        <time>2019-09-12T06:52:29Z</time>
      </trkpt>
      <trkpt lat="45.33915" lon="6.69511">
        <ele>1753.58</ele>
        <time>2019-09-12T06:53:19Z</time>
      </trkpt>
      <trkpt lat="45.33914" lon="6.69509">
        <ele>1754.54</ele>
        <time>2019-09-12T06:53:50Z</time>
      </trkpt>
      <trkpt lat="45.33911" lon="6.6951">
        <ele>1752.62</ele>
        <time>2019-09-12T06:54:13Z</time>
      </trkpt>
      <trkpt lat="45.33909" lon="6.69508">
        <ele>1753.1</ele>
        <time>2019-09-12T06:55:14Z</time>
      </trkpt>
      <trkpt lat="45.33887" lon="6.69505">
        <ele>1754.54</ele>
        <time>2019-09-12T06:55:34Z</time>
      </trkpt>
      <trkpt lat="45.33886" lon="6.69505">
        <ele>1754.54</ele>
        <time>2019-09-12T06:55:35Z</time>
      </trkpt>
      <trkpt lat="45.33879" lon="6.69503">
        <ele>1753.1</ele>
        <time>2019-09-12T06:55:40Z</time>
      </trkpt>
      <trkpt lat="45.33871" lon="6.69498">
        <ele>1752.14</ele>
        <time>2019-09-12T06:55:47Z</time>
      </trkpt>
      <trkpt lat="45.33866" lon="6.69496">
        <ele>1752.14</ele>
        <time>2019-09-12T06:55:50Z</time>
      </trkpt>
      <trkpt lat="45.33841" lon="6.69475">
        <ele>1754.06</ele>
        <time>2019-09-12T06:56:11Z</time>
      </trkpt>
      <trkpt lat="45.3384" lon="6.69474">
        <ele>1754.54</ele>
        <time>2019-09-12T06:56:12Z</time>
      </trkpt>
      <trkpt lat="45.3383" lon="6.69471">
        <ele>1756.47</ele>
        <time>2019-09-12T06:56:39Z</time>
      </trkpt>
      <trkpt lat="45.33825" lon="6.69467">
        <ele>1756.47</ele>
        <time>2019-09-12T06:56:44Z</time>
      </trkpt>
      <trkpt lat="45.3382" lon="6.69458">
        <ele>1756.95</ele>
        <time>2019-09-12T06:56:51Z</time>
      </trkpt>
      <trkpt lat="45.33813" lon="6.69449">
        <ele>1757.91</ele>
        <time>2019-09-12T06:57:00Z</time>
      </trkpt>
      <trkpt lat="45.33795" lon="6.69428">
        <ele>1757.43</ele>
        <time>2019-09-12T06:57:18Z</time>
      </trkpt>
      <trkpt lat="45.33794" lon="6.69428">
        <ele>1756.95</ele>
        <time>2019-09-12T06:57:19Z</time>
      </trkpt>
      <trkpt lat="45.33786" lon="6.69416">
        <ele>1758.39</ele>
        <time>2019-09-12T06:57:29Z</time>
      </trkpt>
      <trkpt lat="45.3378" lon="6.6941">
        <ele>1759.35</ele>
        <time>2019-09-12T06:57:36Z</time>
      </trkpt>
      <trkpt lat="45.33776" lon="6.69403">
        <ele>1759.83</ele>
        <time>2019-09-12T06:57:40Z</time>
      </trkpt>
      <trkpt lat="45.33756" lon="6.69383">
        <ele>1760.31</ele>
        <time>2019-09-12T06:57:59Z</time>
      </trkpt>
      <trkpt lat="45.33751" lon="6.69379">
        <ele>1760.31</ele>
        <time>2019-09-12T06:58:03Z</time>
      </trkpt>
      <trkpt lat="45.33739" lon="6.69368">
        <ele>1761.27</ele>
        <time>2019-09-12T06:58:13Z</time>
      </trkpt>
      <trkpt lat="45.33732" lon="6.69365">
        <ele>1761.75</ele>
        <time>2019-09-12T06:58:18Z</time>
      </trkpt>
      <trkpt lat="45.33728" lon="6.69363">
        <ele>1762.23</ele>
        <time>2019-09-12T06:58:21Z</time>
      </trkpt>
      <trkpt lat="45.33721" lon="6.69357">
        <ele>1761.75</ele>
        <time>2019-09-12T06:58:27Z</time>
      </trkpt>
      <trkpt lat="45.33718" lon="6.69356">
        <ele>1762.23</ele>
        <time>2019-09-12T06:58:29Z</time>
      </trkpt>
      <trkpt lat="45.33703" lon="6.69339">
        <ele>1762.71</ele>
        <time>2019-09-12T06:58:47Z</time>
      </trkpt>
      <trkpt lat="45.33702" lon="6.69337">
        <ele>1762.71</ele>
        <time>2019-09-12T06:58:48Z</time>
      </trkpt>
      <trkpt lat="45.33701" lon="6.69334">
        <ele>1762.71</ele>
        <time>2019-09-12T06:58:51Z</time>
      </trkpt>
      <trkpt lat="45.33697" lon="6.69323">
        <ele>1763.2</ele>
        <time>2019-09-12T06:59:00Z</time>
      </trkpt>
      <trkpt lat="45.33697" lon="6.69317">
        <ele>1763.2</ele>
        <time>2019-09-12T06:59:04Z</time>
      </trkpt>
      <trkpt lat="45.33684" lon="6.69296">
        <ele>1763.68</ele>
        <time>2019-09-12T06:59:22Z</time>
      </trkpt>
      <trkpt lat="45.33683" lon="6.69294">
        <ele>1763.68</ele>
        <time>2019-09-12T06:59:24Z</time>
      </trkpt>
      <trkpt lat="45.33673" lon="6.6928">
        <ele>1763.68</ele>
        <time>2019-09-12T06:59:40Z</time>
      </trkpt>
      <trkpt lat="45.33669" lon="6.69264">
        <ele>1764.16</ele>
        <time>2019-09-12T06:59:56Z</time>
      </trkpt>
      <trkpt lat="45.33673" lon="6.69255">
        <ele>1765.12</ele>
        <time>2019-09-12T07:00:07Z</time>
      </trkpt>
      <trkpt lat="45.33677" lon="6.69252">
        <ele>1765.6</ele>
        <time>2019-09-12T07:00:12Z</time>
      </trkpt>
      <trkpt lat="45.33686" lon="6.69253">
        <ele>1767.52</ele>
        <time>2019-09-12T07:00:23Z</time>
      </trkpt>
      <trkpt lat="45.33703" lon="6.69252">
        <ele>1768.48</ele>
        <time>2019-09-12T07:00:43Z</time>
      </trkpt>
      <trkpt lat="45.33714" lon="6.69247">
        <ele>1770.89</ele>
        <time>2019-09-12T07:01:02Z</time>
      </trkpt>
      <trkpt lat="45.33718" lon="6.69245">
        <ele>1772.81</ele>
        <time>2019-09-12T07:01:09Z</time>
      </trkpt>
      <trkpt lat="45.33719" lon="6.6924">
        <ele>1773.29</ele>
        <time>2019-09-12T07:01:14Z</time>
      </trkpt>
      <trkpt lat="45.33717" lon="6.69235">
        <ele>1775.69</ele>
        <time>2019-09-12T07:01:32Z</time>
      </trkpt>
      <trkpt lat="45.33715" lon="6.69234">
        <ele>1775.69</ele>
        <time>2019-09-12T07:01:42Z</time>
      </trkpt>
      <trkpt lat="45.33705" lon="6.6923">
        <ele>1776.65</ele>
        <time>2019-09-12T07:01:58Z</time>
      </trkpt>
      <trkpt lat="45.33696" lon="6.69226">
        <ele>1776.65</ele>
        <time>2019-09-12T07:02:13Z</time>
      </trkpt>
      <trkpt lat="45.33693" lon="6.69223">
        <ele>1778.1</ele>
        <time>2019-09-12T07:02:18Z</time>
      </trkpt>
      <trkpt lat="45.33688" lon="6.69218">
        <ele>1780.02</ele>
        <time>2019-09-12T07:02:29Z</time>
      </trkpt>
      <trkpt lat="45.33681" lon="6.69208">
        <ele>1783.38</ele>
        <time>2019-09-12T07:02:45Z</time>
      </trkpt>
      <trkpt lat="45.33676" lon="6.69199">
        <ele>1786.27</ele>
        <time>2019-09-12T07:03:01Z</time>
      </trkpt>
      <trkpt lat="45.33669" lon="6.69187">
        <ele>1786.27</ele>
        <time>2019-09-12T07:03:16Z</time>
      </trkpt>
      <trkpt lat="45.33663" lon="6.69178">
        <ele>1788.67</ele>
        <time>2019-09-12T07:03:32Z</time>
      </trkpt>
      <trkpt lat="45.3366" lon="6.69174">
        <ele>1790.11</ele>
        <time>2019-09-12T07:03:36Z</time>
      </trkpt>
      <trkpt lat="45.33657" lon="6.69171">
        <ele>1790.59</ele>
        <time>2019-09-12T07:03:39Z</time>
      </trkpt>
      <trkpt lat="45.33647" lon="6.69158">
        <ele>1793</ele>
        <time>2019-09-12T07:03:56Z</time>
      </trkpt>
      <trkpt lat="45.3364" lon="6.69154">
        <ele>1794.44</ele>
        <time>2019-09-12T07:04:06Z</time>
      </trkpt>
      <trkpt lat="45.3363" lon="6.69148">
        <ele>1796.36</ele>
        <time>2019-09-12T07:04:23Z</time>
      </trkpt>
      <trkpt lat="45.33621" lon="6.69144">
        <ele>1797.8</ele>
        <time>2019-09-12T07:04:37Z</time>
      </trkpt>
      <trkpt lat="45.33608" lon="6.69135">
        <ele>1800.69</ele>
        <time>2019-09-12T07:04:55Z</time>
      </trkpt>
      <trkpt lat="45.33598" lon="6.69127">
        <ele>1801.65</ele>
        <time>2019-09-12T07:05:12Z</time>
      </trkpt>
      <trkpt lat="45.33588" lon="6.69121">
        <ele>1805.01</ele>
        <time>2019-09-12T07:05:30Z</time>
      </trkpt>
      <trkpt lat="45.33577" lon="6.69111">
        <ele>1811.74</ele>
        <time>2019-09-12T07:05:48Z</time>
      </trkpt>
      <trkpt lat="45.33569" lon="6.69103">
        <ele>1816.07</ele>
        <time>2019-09-12T07:06:04Z</time>
      </trkpt>
      <trkpt lat="45.33562" lon="6.69098">
        <ele>1817.51</ele>
        <time>2019-09-12T07:06:21Z</time>
      </trkpt>
      <trkpt lat="45.33553" lon="6.6909">
        <ele>1821.35</ele>
        <time>2019-09-12T07:06:38Z</time>
      </trkpt>
      <trkpt lat="45.33542" lon="6.6908">
        <ele>1824.72</ele>
        <time>2019-09-12T07:06:55Z</time>
      </trkpt>
      <trkpt lat="45.33532" lon="6.69073">
        <ele>1827.6</ele>
        <time>2019-09-12T07:07:11Z</time>
      </trkpt>
      <trkpt lat="45.3352" lon="6.69071">
        <ele>1827.6</ele>
        <time>2019-09-12T07:07:28Z</time>
      </trkpt>
      <trkpt lat="45.33508" lon="6.69058">
        <ele>1831.93</ele>
        <time>2019-09-12T07:07:47Z</time>
      </trkpt>
      <trkpt lat="45.33502" lon="6.69056">
        <ele>1834.33</ele>
        <time>2019-09-12T07:08:09Z</time>
      </trkpt>
      <trkpt lat="45.335" lon="6.69052">
        <ele>1834.81</ele>
        <time>2019-09-12T07:08:14Z</time>
      </trkpt>
      <trkpt lat="45.33492" lon="6.69047">
        <ele>1835.29</ele>
        <time>2019-09-12T07:08:30Z</time>
      </trkpt>
      <trkpt lat="45.3349" lon="6.69046">
        <ele>1835.77</ele>
        <time>2019-09-12T07:08:33Z</time>
      </trkpt>
      <trkpt lat="45.33481" lon="6.69039">
        <ele>1837.22</ele>
        <time>2019-09-12T07:08:51Z</time>
      </trkpt>
      <trkpt lat="45.33477" lon="6.69032">
        <ele>1838.18</ele>
        <time>2019-09-12T07:09:10Z</time>
      </trkpt>
      <trkpt lat="45.33471" lon="6.69029">
        <ele>1839.14</ele>
        <time>2019-09-12T07:09:35Z</time>
      </trkpt>
      <trkpt lat="45.33465" lon="6.69025">
        <ele>1840.1</ele>
        <time>2019-09-12T07:09:50Z</time>
      </trkpt>
      <trkpt lat="45.33456" lon="6.69024">
        <ele>1843.95</ele>
        <time>2019-09-12T07:10:06Z</time>
      </trkpt>
      <trkpt lat="45.33449" lon="6.69025">
        <ele>1844.91</ele>
        <time>2019-09-12T07:10:23Z</time>
      </trkpt>
      <trkpt lat="45.33443" lon="6.69026">
        <ele>1845.39</ele>
        <time>2019-09-12T07:10:41Z</time>
      </trkpt>
      <trkpt lat="45.33432" lon="6.69023">
        <ele>1845.87</ele>
        <time>2019-09-12T07:10:58Z</time>
      </trkpt>
      <trkpt lat="45.33422" lon="6.69024">
        <ele>1846.83</ele>
        <time>2019-09-12T07:11:13Z</time>
      </trkpt>
      <trkpt lat="45.33411" lon="6.69024">
        <ele>1846.83</ele>
        <time>2019-09-12T07:11:31Z</time>
      </trkpt>
      <trkpt lat="45.33399" lon="6.69026">
        <ele>1844.43</ele>
        <time>2019-09-12T07:11:50Z</time>
      </trkpt>
      <trkpt lat="45.33398" lon="6.69025">
        <ele>1844.91</ele>
        <time>2019-09-12T07:11:52Z</time>
      </trkpt>
      <trkpt lat="45.33389" lon="6.69021">
        <ele>1847.79</ele>
        <time>2019-09-12T07:12:06Z</time>
      </trkpt>
      <trkpt lat="45.33381" lon="6.69008">
        <ele>1848.27</ele>
        <time>2019-09-12T07:12:21Z</time>
      </trkpt>
      <trkpt lat="45.33374" lon="6.69008">
        <ele>1850.19</ele>
        <time>2019-09-12T07:12:31Z</time>
      </trkpt>
      <trkpt lat="45.33361" lon="6.69005">
        <ele>1854.04</ele>
        <time>2019-09-12T07:12:45Z</time>
      </trkpt>
      <trkpt lat="45.33359" lon="6.69007">
        <ele>1854.52</ele>
        <time>2019-09-12T07:12:48Z</time>
      </trkpt>
      <trkpt lat="45.33345" lon="6.69003">
        <ele>1855.96</ele>
        <time>2019-09-12T07:13:04Z</time>
      </trkpt>
      <trkpt lat="45.33335" lon="6.69005">
        <ele>1856.44</ele>
        <time>2019-09-12T07:13:18Z</time>
      </trkpt>
      <trkpt lat="45.33322" lon="6.69002">
        <ele>1855.96</ele>
        <time>2019-09-12T07:13:32Z</time>
      </trkpt>
      <trkpt lat="45.33308" lon="6.69">
        <ele>1859.33</ele>
        <time>2019-09-12T07:13:51Z</time>
      </trkpt>
      <trkpt lat="45.33307" lon="6.69001">
        <ele>1860.29</ele>
        <time>2019-09-12T07:13:52Z</time>
      </trkpt>
      <trkpt lat="45.33295" lon="6.69003">
        <ele>1863.65</ele>
        <time>2019-09-12T07:14:09Z</time>
      </trkpt>
      <trkpt lat="45.33285" lon="6.69007">
        <ele>1865.09</ele>
        <time>2019-09-12T07:14:21Z</time>
      </trkpt>
      <trkpt lat="45.33272" lon="6.69017">
        <ele>1866.06</ele>
        <time>2019-09-12T07:14:40Z</time>
      </trkpt>
      <trkpt lat="45.33258" lon="6.69023">
        <ele>1867.5</ele>
        <time>2019-09-12T07:15:00Z</time>
      </trkpt>
      <trkpt lat="45.33256" lon="6.69024">
        <ele>1867.5</ele>
        <time>2019-09-12T07:15:03Z</time>
      </trkpt>
      <trkpt lat="45.33245" lon="6.69023">
        <ele>1867.02</ele>
        <time>2019-09-12T07:15:15Z</time>
      </trkpt>
      <trkpt lat="45.3323" lon="6.69021">
        <ele>1869.9</ele>
        <time>2019-09-12T07:15:32Z</time>
      </trkpt>
      <trkpt lat="45.33227" lon="6.69022">
        <ele>1870.38</ele>
        <time>2019-09-12T07:15:35Z</time>
      </trkpt>
      <trkpt lat="45.33222" lon="6.69019">
        <ele>1869.42</ele>
        <time>2019-09-12T07:15:42Z</time>
      </trkpt>
      <trkpt lat="45.3322" lon="6.69019">
        <ele>1869.42</ele>
        <time>2019-09-12T07:15:44Z</time>
      </trkpt>
      <trkpt lat="45.33205" lon="6.69009">
        <ele>1871.34</ele>
        <time>2019-09-12T07:16:05Z</time>
      </trkpt>
      <trkpt lat="45.33192" lon="6.68998">
        <ele>1872.79</ele>
        <time>2019-09-12T07:16:24Z</time>
      </trkpt>
      <trkpt lat="45.33185" lon="6.68996">
        <ele>1875.67</ele>
        <time>2019-09-12T07:16:32Z</time>
      </trkpt>
      <trkpt lat="45.33183" lon="6.68996">
        <ele>1876.15</ele>
        <time>2019-09-12T07:16:34Z</time>
      </trkpt>
      <trkpt lat="45.33173" lon="6.68994">
        <ele>1877.59</ele>
        <time>2019-09-12T07:16:46Z</time>
      </trkpt>
      <trkpt lat="45.33165" lon="6.68994">
        <ele>1877.11</ele>
        <time>2019-09-12T07:17:09Z</time>
      </trkpt>
      <trkpt lat="45.33165" lon="6.68995">
        <ele>1882.4</ele>
        <time>2019-09-12T07:17:30Z</time>
      </trkpt>
      <trkpt lat="45.33164" lon="6.68996">
        <ele>1882.88</ele>
        <time>2019-09-12T07:17:36Z</time>
      </trkpt>
      <trkpt lat="45.33162" lon="6.68999">
        <ele>1882.88</ele>
        <time>2019-09-12T07:17:38Z</time>
      </trkpt>
      <trkpt lat="45.33157" lon="6.69001">
        <ele>1883.84</ele>
        <time>2019-09-12T07:17:43Z</time>
      </trkpt>
      <trkpt lat="45.33142" lon="6.69002">
        <ele>1882.4</ele>
        <time>2019-09-12T07:18:01Z</time>
      </trkpt>
      <trkpt lat="45.3313" lon="6.69003">
        <ele>1884.32</ele>
        <time>2019-09-12T07:18:17Z</time>
      </trkpt>
      <trkpt lat="45.33121" lon="6.69006">
        <ele>1887.69</ele>
        <time>2019-09-12T07:18:32Z</time>
      </trkpt>
      <trkpt lat="45.33115" lon="6.69005">
        <ele>1889.61</ele>
        <time>2019-09-12T07:19:14Z</time>
      </trkpt>
      <trkpt lat="45.33102" lon="6.69003">
        <ele>1892.49</ele>
        <time>2019-09-12T07:19:30Z</time>
      </trkpt>
      <trkpt lat="45.3309" lon="6.69007">
        <ele>1895.86</ele>
        <time>2019-09-12T07:19:42Z</time>
      </trkpt>
      <trkpt lat="45.33083" lon="6.69009">
        <ele>1898.74</ele>
        <time>2019-09-12T07:19:47Z</time>
      </trkpt>
      <trkpt lat="45.33071" lon="6.6901">
        <ele>1902.11</ele>
        <time>2019-09-12T07:19:56Z</time>
      </trkpt>
      <trkpt lat="45.33054" lon="6.69008">
        <ele>1902.59</ele>
        <time>2019-09-12T07:20:15Z</time>
      </trkpt>
      <trkpt lat="45.3304" lon="6.69006">
        <ele>1901.63</ele>
        <time>2019-09-12T07:20:30Z</time>
      </trkpt>
      <trkpt lat="45.33037" lon="6.69006">
        <ele>1902.11</ele>
        <time>2019-09-12T07:20:33Z</time>
      </trkpt>
      <trkpt lat="45.33024" lon="6.69005">
        <ele>1904.03</ele>
        <time>2019-09-12T07:20:47Z</time>
      </trkpt>
      <trkpt lat="45.33022" lon="6.69005">
        <ele>1904.03</ele>
        <time>2019-09-12T07:20:49Z</time>
      </trkpt>
      <trkpt lat="45.3301" lon="6.69005">
        <ele>1904.99</ele>
        <time>2019-09-12T07:21:02Z</time>
      </trkpt>
      <trkpt lat="45.33007" lon="6.69005">
        <ele>1905.47</ele>
        <time>2019-09-12T07:21:05Z</time>
      </trkpt>
      <trkpt lat="45.3299" lon="6.69006">
        <ele>1905.95</ele>
        <time>2019-09-12T07:21:23Z</time>
      </trkpt>
      <trkpt lat="45.32978" lon="6.69004">
        <ele>1908.35</ele>
        <time>2019-09-12T07:21:35Z</time>
      </trkpt>
      <trkpt lat="45.32962" lon="6.69003">
        <ele>1907.87</ele>
        <time>2019-09-12T07:21:51Z</time>
      </trkpt>
      <trkpt lat="45.32944" lon="6.69">
        <ele>1908.83</ele>
        <time>2019-09-12T07:22:09Z</time>
      </trkpt>
      <trkpt lat="45.32942" lon="6.69002">
        <ele>1909.32</ele>
        <time>2019-09-12T07:22:11Z</time>
      </trkpt>
      <trkpt lat="45.32937" lon="6.69004">
        <ele>1909.8</ele>
        <time>2019-09-12T07:22:15Z</time>
      </trkpt>
      <trkpt lat="45.32935" lon="6.69003">
        <ele>1910.28</ele>
        <time>2019-09-12T07:22:17Z</time>
      </trkpt>
      <trkpt lat="45.32927" lon="6.68999">
        <ele>1908.35</ele>
        <time>2019-09-12T07:22:25Z</time>
      </trkpt>
      <trkpt lat="45.32905" lon="6.68996">
        <ele>1909.8</ele>
        <time>2019-09-12T07:22:45Z</time>
      </trkpt>
      <trkpt lat="45.32893" lon="6.68997">
        <ele>1910.76</ele>
        <time>2019-09-12T07:22:57Z</time>
      </trkpt>
      <trkpt lat="45.32891" lon="6.68997">
        <ele>1910.76</ele>
        <time>2019-09-12T07:22:59Z</time>
      </trkpt>
      <trkpt lat="45.32876" lon="6.68994">
        <ele>1912.68</ele>
        <time>2019-09-12T07:23:18Z</time>
      </trkpt>
      <trkpt lat="45.32871" lon="6.68993">
        <ele>1912.68</ele>
        <time>2019-09-12T07:23:23Z</time>
      </trkpt>
      <trkpt lat="45.32864" lon="6.68992">
        <ele>1913.64</ele>
        <time>2019-09-12T07:23:30Z</time>
      </trkpt>
      <trkpt lat="45.32858" lon="6.68991">
        <ele>1914.6</ele>
        <time>2019-09-12T07:23:36Z</time>
      </trkpt>
      <trkpt lat="45.32854" lon="6.68987">
        <ele>1915.56</ele>
        <time>2019-09-12T07:23:41Z</time>
      </trkpt>
      <trkpt lat="45.32833" lon="6.6898">
        <ele>1916.53</ele>
        <time>2019-09-12T07:24:00Z</time>
      </trkpt>
      <trkpt lat="45.32823" lon="6.68975">
        <ele>1916.04</ele>
        <time>2019-09-12T07:24:11Z</time>
      </trkpt>
      <trkpt lat="45.3281" lon="6.68969">
        <ele>1915.08</ele>
        <time>2019-09-12T07:24:30Z</time>
      </trkpt>
      <trkpt lat="45.32811" lon="6.68969">
        <ele>1916.04</ele>
        <time>2019-09-12T07:24:52Z</time>
      </trkpt>
      <trkpt lat="45.32811" lon="6.68968">
        <ele>1916.53</ele>
        <time>2019-09-12T07:26:16Z</time>
      </trkpt>
      <trkpt lat="45.32811" lon="6.68967">
        <ele>1917.01</ele>
        <time>2019-09-12T07:26:23Z</time>
      </trkpt>
      <trkpt lat="45.3281" lon="6.68969">
        <ele>1918.93</ele>
        <time>2019-09-12T07:26:40Z</time>
      </trkpt>
      <trkpt lat="45.3281" lon="6.6897">
        <ele>1920.85</ele>
        <time>2019-09-12T07:26:44Z</time>
      </trkpt>
      <trkpt lat="45.32807" lon="6.68972">
        <ele>1921.81</ele>
        <time>2019-09-12T07:26:48Z</time>
      </trkpt>
      <trkpt lat="45.32799" lon="6.68973">
        <ele>1924.22</ele>
        <time>2019-09-12T07:26:57Z</time>
      </trkpt>
      <trkpt lat="45.32795" lon="6.68975">
        <ele>1924.22</ele>
        <time>2019-09-12T07:27:02Z</time>
      </trkpt>
      <trkpt lat="45.32791" lon="6.68981">
        <ele>1923.74</ele>
        <time>2019-09-12T07:27:10Z</time>
      </trkpt>
      <trkpt lat="45.32789" lon="6.68983">
        <ele>1923.74</ele>
        <time>2019-09-12T07:27:13Z</time>
      </trkpt>
      <trkpt lat="45.32777" lon="6.68999">
        <ele>1925.66</ele>
        <time>2019-09-12T07:27:32Z</time>
      </trkpt>
      <trkpt lat="45.3277" lon="6.69012">
        <ele>1926.62</ele>
        <time>2019-09-12T07:27:47Z</time>
      </trkpt>
      <trkpt lat="45.32768" lon="6.69015">
        <ele>1926.62</ele>
        <time>2019-09-12T07:27:50Z</time>
      </trkpt>
      <trkpt lat="45.32765" lon="6.69023">
        <ele>1929.02</ele>
        <time>2019-09-12T07:28:08Z</time>
      </trkpt>
      <trkpt lat="45.32766" lon="6.69024">
        <ele>1929.98</ele>
        <time>2019-09-12T07:28:19Z</time>
      </trkpt>
      <trkpt lat="45.32765" lon="6.69024">
        <ele>1930.46</ele>
        <time>2019-09-12T07:28:34Z</time>
      </trkpt>
      <trkpt lat="45.32764" lon="6.69024">
        <ele>1930.46</ele>
        <time>2019-09-12T07:29:30Z</time>
      </trkpt>
      <trkpt lat="45.32763" lon="6.69024">
        <ele>1931.91</ele>
        <time>2019-09-12T07:30:55Z</time>
      </trkpt>
      <trkpt lat="45.32764" lon="6.69024">
        <ele>1932.39</ele>
        <time>2019-09-12T07:31:52Z</time>
      </trkpt>
      <trkpt lat="45.32764" lon="6.69025">
        <ele>1933.83</ele>
        <time>2019-09-12T07:32:12Z</time>
      </trkpt>
      <trkpt lat="45.32765" lon="6.69028">
        <ele>1935.27</ele>
        <time>2019-09-12T07:33:01Z</time>
      </trkpt>
      <trkpt lat="45.32762" lon="6.69032">
        <ele>1936.71</ele>
        <time>2019-09-12T07:33:49Z</time>
      </trkpt>
      <trkpt lat="45.32757" lon="6.69036">
        <ele>1936.23</ele>
        <time>2019-09-12T07:33:55Z</time>
      </trkpt>
      <trkpt lat="45.32749" lon="6.69042">
        <ele>1935.75</ele>
        <time>2019-09-12T07:34:04Z</time>
      </trkpt>
      <trkpt lat="45.32748" lon="6.69044">
        <ele>1935.75</ele>
        <time>2019-09-12T07:34:06Z</time>
      </trkpt>
      <trkpt lat="45.32745" lon="6.69045">
        <ele>1935.27</ele>
        <time>2019-09-12T07:34:08Z</time>
      </trkpt>
      <trkpt lat="45.32738" lon="6.69053">
        <ele>1934.79</ele>
        <time>2019-09-12T07:34:17Z</time>
      </trkpt>
      <trkpt lat="45.32734" lon="6.69057">
        <ele>1933.83</ele>
        <time>2019-09-12T07:34:21Z</time>
      </trkpt>
      <trkpt lat="45.32714" lon="6.69067">
        <ele>1930.46</ele>
        <time>2019-09-12T07:34:42Z</time>
      </trkpt>
      <trkpt lat="45.32708" lon="6.69067">
        <ele>1929.02</ele>
        <time>2019-09-12T07:34:48Z</time>
      </trkpt>
      <trkpt lat="45.32705" lon="6.69068">
        <ele>1927.58</ele>
        <time>2019-09-12T07:34:51Z</time>
      </trkpt>
      <trkpt lat="45.32685" lon="6.69065">
        <ele>1924.22</ele>
        <time>2019-09-12T07:35:10Z</time>
      </trkpt>
      <trkpt lat="45.32665" lon="6.69048">
        <ele>1921.81</ele>
        <time>2019-09-12T07:35:31Z</time>
      </trkpt>
      <trkpt lat="45.32664" lon="6.69046">
        <ele>1922.29</ele>
        <time>2019-09-12T07:35:33Z</time>
      </trkpt>
      <trkpt lat="45.3266" lon="6.69044">
        <ele>1921.33</ele>
        <time>2019-09-12T07:35:36Z</time>
      </trkpt>
      <trkpt lat="45.32651" lon="6.69035">
        <ele>1918.45</ele>
        <time>2019-09-12T07:35:45Z</time>
      </trkpt>
      <trkpt lat="45.32649" lon="6.69035">
        <ele>1918.45</ele>
        <time>2019-09-12T07:35:47Z</time>
      </trkpt>
      <trkpt lat="45.32644" lon="6.69033">
        <ele>1917.97</ele>
        <time>2019-09-12T07:35:51Z</time>
      </trkpt>
      <trkpt lat="45.32639" lon="6.69031">
        <ele>1917.97</ele>
        <time>2019-09-12T07:35:56Z</time>
      </trkpt>
      <trkpt lat="45.32627" lon="6.69026">
        <ele>1917.97</ele>
        <time>2019-09-12T07:36:06Z</time>
      </trkpt>
      <trkpt lat="45.32622" lon="6.69025">
        <ele>1917.49</ele>
        <time>2019-09-12T07:36:11Z</time>
      </trkpt>
      <trkpt lat="45.326" lon="6.69018">
        <ele>1915.56</ele>
        <time>2019-09-12T07:36:30Z</time>
      </trkpt>
      <trkpt lat="45.32598" lon="6.69017">
        <ele>1915.08</ele>
        <time>2019-09-12T07:36:32Z</time>
      </trkpt>
      <trkpt lat="45.32595" lon="6.69017">
        <ele>1915.56</ele>
        <time>2019-09-12T07:36:35Z</time>
      </trkpt>
      <trkpt lat="45.32577" lon="6.69011">
        <ele>1915.56</ele>
        <time>2019-09-12T07:36:55Z</time>
      </trkpt>
      <trkpt lat="45.32574" lon="6.6901">
        <ele>1915.56</ele>
        <time>2019-09-12T07:36:58Z</time>
      </trkpt>
      <trkpt lat="45.32572" lon="6.69007">
        <ele>1916.04</ele>
        <time>2019-09-12T07:37:01Z</time>
      </trkpt>
      <trkpt lat="45.32561" lon="6.69">
        <ele>1917.97</ele>
        <time>2019-09-12T07:37:20Z</time>
      </trkpt>
      <trkpt lat="45.32546" lon="6.68987">
        <ele>1922.77</ele>
        <time>2019-09-12T07:37:39Z</time>
      </trkpt>
      <trkpt lat="45.3254" lon="6.68981">
        <ele>1927.58</ele>
        <time>2019-09-12T07:37:57Z</time>
      </trkpt>
      <trkpt lat="45.32524" lon="6.6897">
        <ele>1927.1</ele>
        <time>2019-09-12T07:38:14Z</time>
      </trkpt>
      <trkpt lat="45.32521" lon="6.68967">
        <ele>1926.62</ele>
        <time>2019-09-12T07:38:18Z</time>
      </trkpt>
      <trkpt lat="45.32511" lon="6.68961">
        <ele>1924.22</ele>
        <time>2019-09-12T07:38:26Z</time>
      </trkpt>
      <trkpt lat="45.32509" lon="6.68962">
        <ele>1923.25</ele>
        <time>2019-09-12T07:38:28Z</time>
      </trkpt>
      <trkpt lat="45.32497" lon="6.6896">
        <ele>1926.14</ele>
        <time>2019-09-12T07:38:42Z</time>
      </trkpt>
      <trkpt lat="45.32495" lon="6.68961">
        <ele>1927.1</ele>
        <time>2019-09-12T07:38:44Z</time>
      </trkpt>
      <trkpt lat="45.32493" lon="6.6896">
        <ele>1928.06</ele>
        <time>2019-09-12T07:38:46Z</time>
      </trkpt>
      <trkpt lat="45.32483" lon="6.68959">
        <ele>1928.06</ele>
        <time>2019-09-12T07:39:05Z</time>
      </trkpt>
      <trkpt lat="45.32472" lon="6.68957">
        <ele>1925.66</ele>
        <time>2019-09-12T07:39:16Z</time>
      </trkpt>
      <trkpt lat="45.32461" lon="6.68949">
        <ele>1929.02</ele>
        <time>2019-09-12T07:39:26Z</time>
      </trkpt>
      <trkpt lat="45.3245" lon="6.68933">
        <ele>1928.06</ele>
        <time>2019-09-12T07:39:43Z</time>
      </trkpt>
      <trkpt lat="45.32441" lon="6.68922">
        <ele>1928.54</ele>
        <time>2019-09-12T07:39:54Z</time>
      </trkpt>
      <trkpt lat="45.32432" lon="6.68914">
        <ele>1930.46</ele>
        <time>2019-09-12T07:40:03Z</time>
      </trkpt>
      <trkpt lat="45.32414" lon="6.68907">
        <ele>1934.31</ele>
        <time>2019-09-12T07:40:21Z</time>
      </trkpt>
      <trkpt lat="45.32413" lon="6.68906">
        <ele>1933.83</ele>
        <time>2019-09-12T07:40:22Z</time>
      </trkpt>
      <trkpt lat="45.32407" lon="6.68902">
        <ele>1933.35</ele>
        <time>2019-09-12T07:40:29Z</time>
      </trkpt>
      <trkpt lat="45.32398" lon="6.68896">
        <ele>1929.5</ele>
        <time>2019-09-12T07:40:40Z</time>
      </trkpt>
      <trkpt lat="45.32395" lon="6.68893">
        <ele>1929.5</ele>
        <time>2019-09-12T07:40:43Z</time>
      </trkpt>
      <trkpt lat="45.32383" lon="6.68888">
        <ele>1929.5</ele>
        <time>2019-09-12T07:40:54Z</time>
      </trkpt>
      <trkpt lat="45.3238" lon="6.68887">
        <ele>1927.58</ele>
        <time>2019-09-12T07:40:58Z</time>
      </trkpt>
      <trkpt lat="45.32376" lon="6.68887">
        <ele>1927.1</ele>
        <time>2019-09-12T07:41:02Z</time>
      </trkpt>
      <trkpt lat="45.32374" lon="6.68887">
        <ele>1927.1</ele>
        <time>2019-09-12T07:41:04Z</time>
      </trkpt>
      <trkpt lat="45.32366" lon="6.68887">
        <ele>1925.66</ele>
        <time>2019-09-12T07:41:11Z</time>
      </trkpt>
      <trkpt lat="45.3236" lon="6.68887">
        <ele>1925.66</ele>
        <time>2019-09-12T07:41:17Z</time>
      </trkpt>
      <trkpt lat="45.32356" lon="6.68889">
        <ele>1925.66</ele>
        <time>2019-09-12T07:41:21Z</time>
      </trkpt>
      <trkpt lat="45.32341" lon="6.68893">
        <ele>1926.62</ele>
        <time>2019-09-12T07:41:35Z</time>
      </trkpt>
      <trkpt lat="45.32337" lon="6.68894">
        <ele>1928.06</ele>
        <time>2019-09-12T07:41:39Z</time>
      </trkpt>
      <trkpt lat="45.32325" lon="6.6889">
        <ele>1932.87</ele>
        <time>2019-09-12T07:41:49Z</time>
      </trkpt>
      <trkpt lat="45.32318" lon="6.68883">
        <ele>1934.79</ele>
        <time>2019-09-12T07:41:57Z</time>
      </trkpt>
      <trkpt lat="45.32313" lon="6.68876">
        <ele>1935.75</ele>
        <time>2019-09-12T07:42:03Z</time>
      </trkpt>
      <trkpt lat="45.32306" lon="6.68868">
        <ele>1936.23</ele>
        <time>2019-09-12T07:42:11Z</time>
      </trkpt>
      <trkpt lat="45.32299" lon="6.68862">
        <ele>1934.31</ele>
        <time>2019-09-12T07:42:18Z</time>
      </trkpt>
      <trkpt lat="45.32294" lon="6.68858">
        <ele>1934.79</ele>
        <time>2019-09-12T07:42:24Z</time>
      </trkpt>
      <trkpt lat="45.32284" lon="6.68852">
        <ele>1935.27</ele>
        <time>2019-09-12T07:42:39Z</time>
      </trkpt>
      <trkpt lat="45.32277" lon="6.68846">
        <ele>1934.79</ele>
        <time>2019-09-12T07:42:54Z</time>
      </trkpt>
      <trkpt lat="45.32266" lon="6.68842">
        <ele>1936.71</ele>
        <time>2019-09-12T07:43:05Z</time>
      </trkpt>
      <trkpt lat="45.32259" lon="6.68838">
        <ele>1936.23</ele>
        <time>2019-09-12T07:43:12Z</time>
      </trkpt>
      <trkpt lat="45.32255" lon="6.68834">
        <ele>1935.27</ele>
        <time>2019-09-12T07:43:17Z</time>
      </trkpt>
      <trkpt lat="45.32242" lon="6.68825">
        <ele>1933.35</ele>
        <time>2019-09-12T07:43:29Z</time>
      </trkpt>
      <trkpt lat="45.32238" lon="6.68821">
        <ele>1932.87</ele>
        <time>2019-09-12T07:43:34Z</time>
      </trkpt>
      <trkpt lat="45.32235" lon="6.68819">
        <ele>1933.35</ele>
        <time>2019-09-12T07:43:38Z</time>
      </trkpt>
      <trkpt lat="45.32234" lon="6.68817">
        <ele>1934.31</ele>
        <time>2019-09-12T07:43:40Z</time>
      </trkpt>
      <trkpt lat="45.32227" lon="6.68814">
        <ele>1934.31</ele>
        <time>2019-09-12T07:43:46Z</time>
      </trkpt>
      <trkpt lat="45.3221" lon="6.68808">
        <ele>1933.35</ele>
        <time>2019-09-12T07:44:03Z</time>
      </trkpt>
      <trkpt lat="45.32205" lon="6.68805">
        <ele>1933.35</ele>
        <time>2019-09-12T07:44:08Z</time>
      </trkpt>
      <trkpt lat="45.32196" lon="6.68803">
        <ele>1935.27</ele>
        <time>2019-09-12T07:44:17Z</time>
      </trkpt>
      <trkpt lat="45.32191" lon="6.68801">
        <ele>1934.31</ele>
        <time>2019-09-12T07:44:22Z</time>
      </trkpt>
      <trkpt lat="45.3218" lon="6.68797">
        <ele>1933.35</ele>
        <time>2019-09-12T07:44:32Z</time>
      </trkpt>
      <trkpt lat="45.32159" lon="6.68788">
        <ele>1933.35</ele>
        <time>2019-09-12T07:44:53Z</time>
      </trkpt>
      <trkpt lat="45.32158" lon="6.68787">
        <ele>1933.35</ele>
        <time>2019-09-12T07:44:54Z</time>
      </trkpt>
      <trkpt lat="45.32153" lon="6.68784">
        <ele>1934.79</ele>
        <time>2019-09-12T07:45:00Z</time>
      </trkpt>
      <trkpt lat="45.32136" lon="6.68775">
        <ele>1941.04</ele>
        <time>2019-09-12T07:45:16Z</time>
      </trkpt>
      <trkpt lat="45.32119" lon="6.68761">
        <ele>1936.23</ele>
        <time>2019-09-12T07:45:35Z</time>
      </trkpt>
      <trkpt lat="45.32108" lon="6.6876">
        <ele>1936.71</ele>
        <time>2019-09-12T07:45:45Z</time>
      </trkpt>
      <trkpt lat="45.32086" lon="6.68746">
        <ele>1934.79</ele>
        <time>2019-09-12T07:46:04Z</time>
      </trkpt>
      <trkpt lat="45.32077" lon="6.68735">
        <ele>1934.79</ele>
        <time>2019-09-12T07:46:14Z</time>
      </trkpt>
      <trkpt lat="45.32059" lon="6.68731">
        <ele>1941.04</ele>
        <time>2019-09-12T07:46:30Z</time>
      </trkpt>
      <trkpt lat="45.32053" lon="6.68729">
        <ele>1941.52</ele>
        <time>2019-09-12T07:46:35Z</time>
      </trkpt>
      <trkpt lat="45.32051" lon="6.68729">
        <ele>1942.96</ele>
        <time>2019-09-12T07:46:37Z</time>
      </trkpt>
      <trkpt lat="45.32041" lon="6.68723">
        <ele>1944.88</ele>
        <time>2019-09-12T07:46:46Z</time>
      </trkpt>
      <trkpt lat="45.32037" lon="6.68715">
        <ele>1944.4</ele>
        <time>2019-09-12T07:46:51Z</time>
      </trkpt>
      <trkpt lat="45.32032" lon="6.6871">
        <ele>1945.36</ele>
        <time>2019-09-12T07:46:57Z</time>
      </trkpt>
      <trkpt lat="45.32025" lon="6.68704">
        <ele>1946.81</ele>
        <time>2019-09-12T07:47:04Z</time>
      </trkpt>
      <trkpt lat="45.32023" lon="6.68701">
        <ele>1947.77</ele>
        <time>2019-09-12T07:47:06Z</time>
      </trkpt>
      <trkpt lat="45.32007" lon="6.68685">
        <ele>1945.85</ele>
        <time>2019-09-12T07:47:23Z</time>
      </trkpt>
      <trkpt lat="45.32007" lon="6.68684">
        <ele>1945.85</ele>
        <time>2019-09-12T07:47:24Z</time>
      </trkpt>
      <trkpt lat="45.32001" lon="6.68679">
        <ele>1946.33</ele>
        <time>2019-09-12T07:47:29Z</time>
      </trkpt>
      <trkpt lat="45.31989" lon="6.68673">
        <ele>1949.21</ele>
        <time>2019-09-12T07:47:49Z</time>
      </trkpt>
      <trkpt lat="45.31985" lon="6.6867">
        <ele>1948.73</ele>
        <time>2019-09-12T07:47:54Z</time>
      </trkpt>
      <trkpt lat="45.31975" lon="6.6866">
        <ele>1949.69</ele>
        <time>2019-09-12T07:48:03Z</time>
      </trkpt>
      <trkpt lat="45.31964" lon="6.68645">
        <ele>1950.65</ele>
        <time>2019-09-12T07:48:21Z</time>
      </trkpt>
      <trkpt lat="45.31959" lon="6.68635">
        <ele>1953.54</ele>
        <time>2019-09-12T07:48:28Z</time>
      </trkpt>
      <trkpt lat="45.31957" lon="6.68634">
        <ele>1955.46</ele>
        <time>2019-09-12T07:48:31Z</time>
      </trkpt>
      <trkpt lat="45.31945" lon="6.68623">
        <ele>1956.9</ele>
        <time>2019-09-12T07:48:45Z</time>
      </trkpt>
      <trkpt lat="45.31942" lon="6.68622">
        <ele>1956.42</ele>
        <time>2019-09-12T07:48:47Z</time>
      </trkpt>
      <trkpt lat="45.31941" lon="6.6862">
        <ele>1955.94</ele>
        <time>2019-09-12T07:48:49Z</time>
      </trkpt>
      <trkpt lat="45.31926" lon="6.68607">
        <ele>1954.98</ele>
        <time>2019-09-12T07:49:06Z</time>
      </trkpt>
      <trkpt lat="45.31908" lon="6.68584">
        <ele>1961.71</ele>
        <time>2019-09-12T07:49:28Z</time>
      </trkpt>
      <trkpt lat="45.31898" lon="6.6857">
        <ele>1964.59</ele>
        <time>2019-09-12T07:49:42Z</time>
      </trkpt>
      <trkpt lat="45.31884" lon="6.6856">
        <ele>1972.28</ele>
        <time>2019-09-12T07:49:57Z</time>
      </trkpt>
      <trkpt lat="45.31882" lon="6.68559">
        <ele>1971.8</ele>
        <time>2019-09-12T07:49:59Z</time>
      </trkpt>
      <trkpt lat="45.31877" lon="6.68555">
        <ele>1971.32</ele>
        <time>2019-09-12T07:50:04Z</time>
      </trkpt>
      <trkpt lat="45.31871" lon="6.68544">
        <ele>1972.28</ele>
        <time>2019-09-12T07:50:12Z</time>
      </trkpt>
      <trkpt lat="45.31865" lon="6.68534">
        <ele>1976.61</ele>
        <time>2019-09-12T07:50:22Z</time>
      </trkpt>
      <trkpt lat="45.3185" lon="6.68522">
        <ele>1972.76</ele>
        <time>2019-09-12T07:50:37Z</time>
      </trkpt>
      <trkpt lat="45.3184" lon="6.68506">
        <ele>1972.76</ele>
        <time>2019-09-12T07:50:49Z</time>
      </trkpt>
      <trkpt lat="45.31833" lon="6.68499">
        <ele>1967.48</ele>
        <time>2019-09-12T07:50:58Z</time>
      </trkpt>
      <trkpt lat="45.31817" lon="6.6848">
        <ele>1962.67</ele>
        <time>2019-09-12T07:51:14Z</time>
      </trkpt>
      <trkpt lat="45.31813" lon="6.68475">
        <ele>1962.19</ele>
        <time>2019-09-12T07:51:19Z</time>
      </trkpt>
      <trkpt lat="45.31811" lon="6.68471">
        <ele>1963.63</ele>
        <time>2019-09-12T07:51:22Z</time>
      </trkpt>
      <trkpt lat="45.31806" lon="6.68465">
        <ele>1964.11</ele>
        <time>2019-09-12T07:51:28Z</time>
      </trkpt>
      <trkpt lat="45.31804" lon="6.68462">
        <ele>1964.59</ele>
        <time>2019-09-12T07:51:30Z</time>
      </trkpt>
      <trkpt lat="45.31792" lon="6.68451">
        <ele>1967.96</ele>
        <time>2019-09-12T07:51:44Z</time>
      </trkpt>
      <trkpt lat="45.31782" lon="6.6844">
        <ele>1970.36</ele>
        <time>2019-09-12T07:51:56Z</time>
      </trkpt>
      <trkpt lat="45.3178" lon="6.68438">
        <ele>1970.84</ele>
        <time>2019-09-12T07:51:59Z</time>
      </trkpt>
      <trkpt lat="45.31774" lon="6.68431">
        <ele>1971.8</ele>
        <time>2019-09-12T07:52:06Z</time>
      </trkpt>
      <trkpt lat="45.31773" lon="6.6843">
        <ele>1972.76</ele>
        <time>2019-09-12T07:52:08Z</time>
      </trkpt>
      <trkpt lat="45.31771" lon="6.68428">
        <ele>1973.72</ele>
        <time>2019-09-12T07:52:10Z</time>
      </trkpt>
      <trkpt lat="45.31764" lon="6.68421">
        <ele>1976.61</ele>
        <time>2019-09-12T07:52:18Z</time>
      </trkpt>
      <trkpt lat="45.31752" lon="6.68411">
        <ele>1981.9</ele>
        <time>2019-09-12T07:52:31Z</time>
      </trkpt>
      <trkpt lat="45.3175" lon="6.68411">
        <ele>1981.41</ele>
        <time>2019-09-12T07:52:33Z</time>
      </trkpt>
      <trkpt lat="45.31747" lon="6.68406">
        <ele>1981.41</ele>
        <time>2019-09-12T07:52:38Z</time>
      </trkpt>
      <trkpt lat="45.31731" lon="6.68393">
        <ele>1979.49</ele>
        <time>2019-09-12T07:52:56Z</time>
      </trkpt>
      <trkpt lat="45.31729" lon="6.68389">
        <ele>1978.53</ele>
        <time>2019-09-12T07:53:00Z</time>
      </trkpt>
      <trkpt lat="45.31726" lon="6.68385">
        <ele>1978.53</ele>
        <time>2019-09-12T07:53:04Z</time>
      </trkpt>
      <trkpt lat="45.31718" lon="6.68377">
        <ele>1978.05</ele>
        <time>2019-09-12T07:53:12Z</time>
      </trkpt>
      <trkpt lat="45.31699" lon="6.68354">
        <ele>1973.24</ele>
        <time>2019-09-12T07:53:33Z</time>
      </trkpt>
      <trkpt lat="45.31685" lon="6.6834">
        <ele>1970.36</ele>
        <time>2019-09-12T07:53:48Z</time>
      </trkpt>
      <trkpt lat="45.31674" lon="6.68326">
        <ele>1973.24</ele>
        <time>2019-09-12T07:54:00Z</time>
      </trkpt>
      <trkpt lat="45.31666" lon="6.68321">
        <ele>1973.72</ele>
        <time>2019-09-12T07:54:08Z</time>
      </trkpt>
      <trkpt lat="45.31661" lon="6.6832">
        <ele>1974.2</ele>
        <time>2019-09-12T07:54:12Z</time>
      </trkpt>
      <trkpt lat="45.31651" lon="6.68307">
        <ele>1975.65</ele>
        <time>2019-09-12T07:54:24Z</time>
      </trkpt>
      <trkpt lat="45.31647" lon="6.68305">
        <ele>1976.13</ele>
        <time>2019-09-12T07:54:27Z</time>
      </trkpt>
      <trkpt lat="45.31643" lon="6.68302">
        <ele>1976.61</ele>
        <time>2019-09-12T07:54:32Z</time>
      </trkpt>
      <trkpt lat="45.31638" lon="6.68299">
        <ele>1978.05</ele>
        <time>2019-09-12T07:54:36Z</time>
      </trkpt>
      <trkpt lat="45.31636" lon="6.68297">
        <ele>1978.05</ele>
        <time>2019-09-12T07:54:39Z</time>
      </trkpt>
      <trkpt lat="45.31629" lon="6.68295">
        <ele>1978.05</ele>
        <time>2019-09-12T07:54:46Z</time>
      </trkpt>
      <trkpt lat="45.31623" lon="6.68293">
        <ele>1980.45</ele>
        <time>2019-09-12T07:54:50Z</time>
      </trkpt>
      <trkpt lat="45.31614" lon="6.68289">
        <ele>1979.49</ele>
        <time>2019-09-12T07:54:56Z</time>
      </trkpt>
      <trkpt lat="45.31602" lon="6.68284">
        <ele>1979.49</ele>
        <time>2019-09-12T07:55:08Z</time>
      </trkpt>
      <trkpt lat="45.31593" lon="6.68279">
        <ele>1979.49</ele>
        <time>2019-09-12T07:55:16Z</time>
      </trkpt>
      <trkpt lat="45.31583" lon="6.68277">
        <ele>1978.53</ele>
        <time>2019-09-12T07:55:25Z</time>
      </trkpt>
      <trkpt lat="45.31576" lon="6.68276">
        <ele>1978.53</ele>
        <time>2019-09-12T07:55:31Z</time>
      </trkpt>
      <trkpt lat="45.31568" lon="6.68274">
        <ele>1979.49</ele>
        <time>2019-09-12T07:55:38Z</time>
      </trkpt>
      <trkpt lat="45.31557" lon="6.68267">
        <ele>1979.01</ele>
        <time>2019-09-12T07:55:48Z</time>
      </trkpt>
      <trkpt lat="45.31555" lon="6.68265">
        <ele>1979.01</ele>
        <time>2019-09-12T07:55:50Z</time>
      </trkpt>
      <trkpt lat="45.31546" lon="6.68256">
        <ele>1978.05</ele>
        <time>2019-09-12T07:56:06Z</time>
      </trkpt>
      <trkpt lat="45.31538" lon="6.68242">
        <ele>1978.53</ele>
        <time>2019-09-12T07:56:17Z</time>
      </trkpt>
      <trkpt lat="45.31523" lon="6.68227">
        <ele>1979.49</ele>
        <time>2019-09-12T07:56:32Z</time>
      </trkpt>
      <trkpt lat="45.31518" lon="6.68219">
        <ele>1977.09</ele>
        <time>2019-09-12T07:56:38Z</time>
      </trkpt>
      <trkpt lat="45.31504" lon="6.68207">
        <ele>1977.57</ele>
        <time>2019-09-12T07:56:52Z</time>
      </trkpt>
      <trkpt lat="45.315" lon="6.68203">
        <ele>1977.57</ele>
        <time>2019-09-12T07:56:56Z</time>
      </trkpt>
      <trkpt lat="45.31496" lon="6.68197">
        <ele>1977.09</ele>
        <time>2019-09-12T07:57:01Z</time>
      </trkpt>
      <trkpt lat="45.3148" lon="6.68178">
        <ele>1979.01</ele>
        <time>2019-09-12T07:57:18Z</time>
      </trkpt>
      <trkpt lat="45.31463" lon="6.68158">
        <ele>1975.17</ele>
        <time>2019-09-12T07:57:37Z</time>
      </trkpt>
      <trkpt lat="45.31446" lon="6.68134">
        <ele>1976.61</ele>
        <time>2019-09-12T07:57:57Z</time>
      </trkpt>
      <trkpt lat="45.31434" lon="6.68107">
        <ele>1976.61</ele>
        <time>2019-09-12T07:58:16Z</time>
      </trkpt>
      <trkpt lat="45.31426" lon="6.68079">
        <ele>1977.09</ele>
        <time>2019-09-12T07:58:34Z</time>
      </trkpt>
      <trkpt lat="45.31424" lon="6.68072">
        <ele>1976.61</ele>
        <time>2019-09-12T07:58:53Z</time>
      </trkpt>
      <trkpt lat="45.3142" lon="6.68065">
        <ele>1976.13</ele>
        <time>2019-09-12T07:59:03Z</time>
      </trkpt>
      <trkpt lat="45.31419" lon="6.68063">
        <ele>1976.13</ele>
        <time>2019-09-12T07:59:05Z</time>
      </trkpt>
      <trkpt lat="45.31408" lon="6.68047">
        <ele>1977.57</ele>
        <time>2019-09-12T07:59:26Z</time>
      </trkpt>
      <trkpt lat="45.31407" lon="6.68045">
        <ele>1977.09</ele>
        <time>2019-09-12T07:59:28Z</time>
      </trkpt>
      <trkpt lat="45.314" lon="6.68024">
        <ele>1977.09</ele>
        <time>2019-09-12T07:59:47Z</time>
      </trkpt>
      <trkpt lat="45.31393" lon="6.68009">
        <ele>1982.38</ele>
        <time>2019-09-12T08:00:03Z</time>
      </trkpt>
      <trkpt lat="45.31392" lon="6.68008">
        <ele>1981.9</ele>
        <time>2019-09-12T08:00:04Z</time>
      </trkpt>
      <trkpt lat="45.3139" lon="6.68004">
        <ele>1982.38</ele>
        <time>2019-09-12T08:00:09Z</time>
      </trkpt>
      <trkpt lat="45.31382" lon="6.67991">
        <ele>1975.65</ele>
        <time>2019-09-12T08:00:27Z</time>
      </trkpt>
      <trkpt lat="45.31372" lon="6.67971">
        <ele>1976.61</ele>
        <time>2019-09-12T08:00:47Z</time>
      </trkpt>
      <trkpt lat="45.31371" lon="6.67969">
        <ele>1976.61</ele>
        <time>2019-09-12T08:00:48Z</time>
      </trkpt>
      <trkpt lat="45.3137" lon="6.67966">
        <ele>1978.53</ele>
        <time>2019-09-12T08:00:55Z</time>
      </trkpt>
      <trkpt lat="45.31357" lon="6.67942">
        <ele>1983.34</ele>
        <time>2019-09-12T08:01:13Z</time>
      </trkpt>
      <trkpt lat="45.31352" lon="6.6793">
        <ele>1987.66</ele>
        <time>2019-09-12T08:01:24Z</time>
      </trkpt>
      <trkpt lat="45.31345" lon="6.67912">
        <ele>1990.07</ele>
        <time>2019-09-12T08:01:45Z</time>
      </trkpt>
      <trkpt lat="45.31339" lon="6.67901">
        <ele>1990.07</ele>
        <time>2019-09-12T08:03:15Z</time>
      </trkpt>
      <trkpt lat="45.31334" lon="6.67889">
        <ele>1992.95</ele>
        <time>2019-09-12T08:03:25Z</time>
      </trkpt>
      <trkpt lat="45.31332" lon="6.67883">
        <ele>1991.99</ele>
        <time>2019-09-12T08:03:29Z</time>
      </trkpt>
      <trkpt lat="45.31329" lon="6.67872">
        <ele>1992.47</ele>
        <time>2019-09-12T08:03:38Z</time>
      </trkpt>
      <trkpt lat="45.31324" lon="6.6786">
        <ele>1994.39</ele>
        <time>2019-09-12T08:03:56Z</time>
      </trkpt>
      <trkpt lat="45.31321" lon="6.67842">
        <ele>1993.43</ele>
        <time>2019-09-12T08:04:17Z</time>
      </trkpt>
      <trkpt lat="45.3132" lon="6.67841">
        <ele>1993.91</ele>
        <time>2019-09-12T08:04:19Z</time>
      </trkpt>
      <trkpt lat="45.31321" lon="6.67837">
        <ele>1994.87</ele>
        <time>2019-09-12T08:04:26Z</time>
      </trkpt>
      <trkpt lat="45.3132" lon="6.67835">
        <ele>1995.83</ele>
        <time>2019-09-12T08:04:34Z</time>
      </trkpt>
      <trkpt lat="45.31317" lon="6.67832">
        <ele>1995.83</ele>
        <time>2019-09-12T08:04:37Z</time>
      </trkpt>
      <trkpt lat="45.31315" lon="6.67826">
        <ele>1996.32</ele>
        <time>2019-09-12T08:04:42Z</time>
      </trkpt>
      <trkpt lat="45.31307" lon="6.67815">
        <ele>1995.35</ele>
        <time>2019-09-12T08:04:52Z</time>
      </trkpt>
      <trkpt lat="45.31289" lon="6.67794">
        <ele>2000.16</ele>
        <time>2019-09-12T08:05:14Z</time>
      </trkpt>
      <trkpt lat="45.3128" lon="6.67781">
        <ele>2003.04</ele>
        <time>2019-09-12T08:05:31Z</time>
      </trkpt>
      <trkpt lat="45.31279" lon="6.67779">
        <ele>2004.01</ele>
        <time>2019-09-12T08:06:04Z</time>
      </trkpt>
      <trkpt lat="45.31279" lon="6.6778">
        <ele>2004.01</ele>
        <time>2019-09-12T08:08:46Z</time>
      </trkpt>
      <trkpt lat="45.31269" lon="6.67761">
        <ele>2004.49</ele>
        <time>2019-09-12T08:09:06Z</time>
      </trkpt>
      <trkpt lat="45.31257" lon="6.67739">
        <ele>2004.49</ele>
        <time>2019-09-12T08:09:24Z</time>
      </trkpt>
      <trkpt lat="45.31252" lon="6.67733">
        <ele>2002.56</ele>
        <time>2019-09-12T08:09:31Z</time>
      </trkpt>
      <trkpt lat="45.31247" lon="6.67727">
        <ele>2003.04</ele>
        <time>2019-09-12T08:09:37Z</time>
      </trkpt>
      <trkpt lat="45.31234" lon="6.677">
        <ele>2004.49</ele>
        <time>2019-09-12T08:09:56Z</time>
      </trkpt>
      <trkpt lat="45.31233" lon="6.67698">
        <ele>2004.97</ele>
        <time>2019-09-12T08:09:58Z</time>
      </trkpt>
      <trkpt lat="45.3123" lon="6.67689">
        <ele>2005.93</ele>
        <time>2019-09-12T08:10:04Z</time>
      </trkpt>
      <trkpt lat="45.31227" lon="6.67681">
        <ele>2005.93</ele>
        <time>2019-09-12T08:10:10Z</time>
      </trkpt>
      <trkpt lat="45.31225" lon="6.67676">
        <ele>2004.97</ele>
        <time>2019-09-12T08:10:14Z</time>
      </trkpt>
      <trkpt lat="45.31217" lon="6.67656">
        <ele>2007.85</ele>
        <time>2019-09-12T08:10:28Z</time>
      </trkpt>
      <trkpt lat="45.31211" lon="6.67643">
        <ele>2011.22</ele>
        <time>2019-09-12T08:10:37Z</time>
      </trkpt>
      <trkpt lat="45.31211" lon="6.6764">
        <ele>2012.18</ele>
        <time>2019-09-12T08:10:39Z</time>
      </trkpt>
      <trkpt lat="45.31204" lon="6.67609">
        <ele>2019.87</ele>
        <time>2019-09-12T08:10:58Z</time>
      </trkpt>
      <trkpt lat="45.31204" lon="6.67606">
        <ele>2019.87</ele>
        <time>2019-09-12T08:11:00Z</time>
      </trkpt>
      <trkpt lat="45.31199" lon="6.67599">
        <ele>2021.31</ele>
        <time>2019-09-12T08:11:05Z</time>
      </trkpt>
      <trkpt lat="45.31189" lon="6.67562">
        <ele>2025.64</ele>
        <time>2019-09-12T08:11:26Z</time>
      </trkpt>
      <trkpt lat="45.31185" lon="6.6755">
        <ele>2026.12</ele>
        <time>2019-09-12T08:11:33Z</time>
      </trkpt>
      <trkpt lat="45.3118" lon="6.67535">
        <ele>2029</ele>
        <time>2019-09-12T08:11:44Z</time>
      </trkpt>
      <trkpt lat="45.3118" lon="6.67533">
        <ele>2028.52</ele>
        <time>2019-09-12T08:11:46Z</time>
      </trkpt>
      <trkpt lat="45.31175" lon="6.67517">
        <ele>2028.52</ele>
        <time>2019-09-12T08:11:56Z</time>
      </trkpt>
      <trkpt lat="45.31173" lon="6.6751">
        <ele>2027.56</ele>
        <time>2019-09-12T08:12:01Z</time>
      </trkpt>
      <trkpt lat="45.31169" lon="6.67498">
        <ele>2027.56</ele>
        <time>2019-09-12T08:12:11Z</time>
      </trkpt>
      <trkpt lat="45.31166" lon="6.67488">
        <ele>2027.56</ele>
        <time>2019-09-12T08:12:17Z</time>
      </trkpt>
      <trkpt lat="45.31156" lon="6.67457">
        <ele>2030.44</ele>
        <time>2019-09-12T08:12:38Z</time>
      </trkpt>
      <trkpt lat="45.3115" lon="6.67438">
        <ele>2030.92</ele>
        <time>2019-09-12T08:12:49Z</time>
      </trkpt>
      <trkpt lat="45.31143" lon="6.67411">
        <ele>2031.4</ele>
        <time>2019-09-12T08:13:06Z</time>
      </trkpt>
      <trkpt lat="45.31135" lon="6.67401">
        <ele>2031.88</ele>
        <time>2019-09-12T08:13:13Z</time>
      </trkpt>
      <trkpt lat="45.31127" lon="6.6739">
        <ele>2033.81</ele>
        <time>2019-09-12T08:13:23Z</time>
      </trkpt>
      <trkpt lat="45.31123" lon="6.67377">
        <ele>2034.77</ele>
        <time>2019-09-12T08:13:32Z</time>
      </trkpt>
      <trkpt lat="45.31119" lon="6.67372">
        <ele>2035.25</ele>
        <time>2019-09-12T08:13:36Z</time>
      </trkpt>
      <trkpt lat="45.31116" lon="6.67368">
        <ele>2035.73</ele>
        <time>2019-09-12T08:13:41Z</time>
      </trkpt>
      <trkpt lat="45.31111" lon="6.67359">
        <ele>2037.17</ele>
        <time>2019-09-12T08:14:04Z</time>
      </trkpt>
      <trkpt lat="45.31109" lon="6.67357">
        <ele>2037.17</ele>
        <time>2019-09-12T08:14:15Z</time>
      </trkpt>
      <trkpt lat="45.31105" lon="6.67352">
        <ele>2037.65</ele>
        <time>2019-09-12T08:14:20Z</time>
      </trkpt>
      <trkpt lat="45.31098" lon="6.67334">
        <ele>2041.98</ele>
        <time>2019-09-12T08:14:32Z</time>
      </trkpt>
      <trkpt lat="45.31088" lon="6.67312">
        <ele>2045.34</ele>
        <time>2019-09-12T08:14:51Z</time>
      </trkpt>
      <trkpt lat="45.31086" lon="6.67308">
        <ele>2044.86</ele>
        <time>2019-09-12T08:15:01Z</time>
      </trkpt>
      <trkpt lat="45.31083" lon="6.67306">
        <ele>2045.34</ele>
        <time>2019-09-12T08:15:04Z</time>
      </trkpt>
      <trkpt lat="45.31075" lon="6.673">
        <ele>2045.34</ele>
        <time>2019-09-12T08:15:12Z</time>
      </trkpt>
      <trkpt lat="45.31066" lon="6.67292">
        <ele>2045.34</ele>
        <time>2019-09-12T08:15:21Z</time>
      </trkpt>
      <trkpt lat="45.31063" lon="6.67287">
        <ele>2044.86</ele>
        <time>2019-09-12T08:15:24Z</time>
      </trkpt>
      <trkpt lat="45.31048" lon="6.67269">
        <ele>2047.26</ele>
        <time>2019-09-12T08:15:39Z</time>
      </trkpt>
      <trkpt lat="45.31046" lon="6.67266">
        <ele>2047.75</ele>
        <time>2019-09-12T08:15:41Z</time>
      </trkpt>
      <trkpt lat="45.31033" lon="6.67241">
        <ele>2047.26</ele>
        <time>2019-09-12T08:15:59Z</time>
      </trkpt>
      <trkpt lat="45.31032" lon="6.67239">
        <ele>2047.26</ele>
        <time>2019-09-12T08:16:00Z</time>
      </trkpt>
      <trkpt lat="45.31029" lon="6.67229">
        <ele>2046.3</ele>
        <time>2019-09-12T08:16:06Z</time>
      </trkpt>
      <trkpt lat="45.31024" lon="6.67221">
        <ele>2045.34</ele>
        <time>2019-09-12T08:16:13Z</time>
      </trkpt>
      <trkpt lat="45.31022" lon="6.67218">
        <ele>2044.38</ele>
        <time>2019-09-12T08:16:16Z</time>
      </trkpt>
      <trkpt lat="45.31018" lon="6.67204">
        <ele>2042.46</ele>
        <time>2019-09-12T08:16:23Z</time>
      </trkpt>
      <trkpt lat="45.31013" lon="6.67196">
        <ele>2044.38</ele>
        <time>2019-09-12T08:16:29Z</time>
      </trkpt>
      <trkpt lat="45.31008" lon="6.67177">
        <ele>2044.38</ele>
        <time>2019-09-12T08:16:40Z</time>
      </trkpt>
      <trkpt lat="45.31005" lon="6.67167">
        <ele>2045.82</ele>
        <time>2019-09-12T08:16:46Z</time>
      </trkpt>
      <trkpt lat="45.30996" lon="6.67144">
        <ele>2047.75</ele>
        <time>2019-09-12T08:16:59Z</time>
      </trkpt>
      <trkpt lat="45.30994" lon="6.67138">
        <ele>2049.19</ele>
        <time>2019-09-12T08:17:03Z</time>
      </trkpt>
      <trkpt lat="45.30982" lon="6.67106">
        <ele>2052.55</ele>
        <time>2019-09-12T08:17:20Z</time>
      </trkpt>
      <trkpt lat="45.30971" lon="6.67073">
        <ele>2052.55</ele>
        <time>2019-09-12T08:17:37Z</time>
      </trkpt>
      <trkpt lat="45.30957" lon="6.67043">
        <ele>2052.07</ele>
        <time>2019-09-12T08:17:55Z</time>
      </trkpt>
      <trkpt lat="45.30956" lon="6.67042">
        <ele>2052.55</ele>
        <time>2019-09-12T08:18:03Z</time>
      </trkpt>
      <trkpt lat="45.30943" lon="6.6702">
        <ele>2055.44</ele>
        <time>2019-09-12T08:18:19Z</time>
      </trkpt>
      <trkpt lat="45.30931" lon="6.66996">
        <ele>2053.99</ele>
        <time>2019-09-12T08:18:36Z</time>
      </trkpt>
      <trkpt lat="45.30917" lon="6.66975">
        <ele>2056.88</ele>
        <time>2019-09-12T08:18:52Z</time>
      </trkpt>
      <trkpt lat="45.30912" lon="6.6697">
        <ele>2057.36</ele>
        <time>2019-09-12T08:18:57Z</time>
      </trkpt>
      <trkpt lat="45.30909" lon="6.66967">
        <ele>2057.36</ele>
        <time>2019-09-12T08:19:00Z</time>
      </trkpt>
      <trkpt lat="45.30906" lon="6.66961">
        <ele>2058.8</ele>
        <time>2019-09-12T08:19:04Z</time>
      </trkpt>
      <trkpt lat="45.30905" lon="6.66958">
        <ele>2058.8</ele>
        <time>2019-09-12T08:19:06Z</time>
      </trkpt>
      <trkpt lat="45.30899" lon="6.66946">
        <ele>2061.68</ele>
        <time>2019-09-12T08:19:16Z</time>
      </trkpt>
      <trkpt lat="45.30898" lon="6.66945">
        <ele>2062.65</ele>
        <time>2019-09-12T08:19:18Z</time>
      </trkpt>
      <trkpt lat="45.30897" lon="6.66942">
        <ele>2061.68</ele>
        <time>2019-09-12T08:19:20Z</time>
      </trkpt>
      <trkpt lat="45.30893" lon="6.66937">
        <ele>2062.65</ele>
        <time>2019-09-12T08:19:25Z</time>
      </trkpt>
      <trkpt lat="45.3089" lon="6.66933">
        <ele>2064.09</ele>
        <time>2019-09-12T08:19:30Z</time>
      </trkpt>
      <trkpt lat="45.30887" lon="6.66926">
        <ele>2063.13</ele>
        <time>2019-09-12T08:19:35Z</time>
      </trkpt>
      <trkpt lat="45.30885" lon="6.66925">
        <ele>2063.61</ele>
        <time>2019-09-12T08:19:37Z</time>
      </trkpt>
      <trkpt lat="45.30882" lon="6.66922">
        <ele>2064.09</ele>
        <time>2019-09-12T08:19:40Z</time>
      </trkpt>
      <trkpt lat="45.30879" lon="6.66918">
        <ele>2064.57</ele>
        <time>2019-09-12T08:19:44Z</time>
      </trkpt>
      <trkpt lat="45.30877" lon="6.66917">
        <ele>2064.57</ele>
        <time>2019-09-12T08:19:46Z</time>
      </trkpt>
      <trkpt lat="45.30865" lon="6.6691">
        <ele>2067.45</ele>
        <time>2019-09-12T08:19:59Z</time>
      </trkpt>
      <trkpt lat="45.30862" lon="6.66908">
        <ele>2067.93</ele>
        <time>2019-09-12T08:20:02Z</time>
      </trkpt>
      <trkpt lat="45.30858" lon="6.66906">
        <ele>2070.82</ele>
        <time>2019-09-12T08:20:09Z</time>
      </trkpt>
      <trkpt lat="45.30855" lon="6.669">
        <ele>2070.82</ele>
        <time>2019-09-12T08:20:13Z</time>
      </trkpt>
      <trkpt lat="45.30852" lon="6.66896">
        <ele>2068.89</ele>
        <time>2019-09-12T08:20:17Z</time>
      </trkpt>
      <trkpt lat="45.3085" lon="6.66897">
        <ele>2069.38</ele>
        <time>2019-09-12T08:20:19Z</time>
      </trkpt>
      <trkpt lat="45.30848" lon="6.66894">
        <ele>2069.38</ele>
        <time>2019-09-12T08:20:22Z</time>
      </trkpt>
      <trkpt lat="45.30838" lon="6.66891">
        <ele>2073.22</ele>
        <time>2019-09-12T08:20:35Z</time>
      </trkpt>
      <trkpt lat="45.30835" lon="6.6689">
        <ele>2072.74</ele>
        <time>2019-09-12T08:20:37Z</time>
      </trkpt>
      <trkpt lat="45.30823" lon="6.66882">
        <ele>2071.3</ele>
        <time>2019-09-12T08:20:50Z</time>
      </trkpt>
      <trkpt lat="45.30821" lon="6.66881">
        <ele>2070.34</ele>
        <time>2019-09-12T08:20:52Z</time>
      </trkpt>
      <trkpt lat="45.30815" lon="6.66875">
        <ele>2069.86</ele>
        <time>2019-09-12T08:21:00Z</time>
      </trkpt>
      <trkpt lat="45.30814" lon="6.66873">
        <ele>2068.89</ele>
        <time>2019-09-12T08:21:02Z</time>
      </trkpt>
      <trkpt lat="45.3081" lon="6.66869">
        <ele>2069.86</ele>
        <time>2019-09-12T08:21:06Z</time>
      </trkpt>
      <trkpt lat="45.30803" lon="6.66861">
        <ele>2069.38</ele>
        <time>2019-09-12T08:21:13Z</time>
      </trkpt>
      <trkpt lat="45.30797" lon="6.66856">
        <ele>2066.97</ele>
        <time>2019-09-12T08:21:20Z</time>
      </trkpt>
      <trkpt lat="45.30794" lon="6.66856">
        <ele>2067.45</ele>
        <time>2019-09-12T08:21:25Z</time>
      </trkpt>
      <trkpt lat="45.30776" lon="6.66847">
        <ele>2064.57</ele>
        <time>2019-09-12T08:21:46Z</time>
      </trkpt>
      <trkpt lat="45.30775" lon="6.66847">
        <ele>2065.05</ele>
        <time>2019-09-12T08:21:47Z</time>
      </trkpt>
      <trkpt lat="45.3077" lon="6.66851">
        <ele>2068.89</ele>
        <time>2019-09-12T08:22:05Z</time>
      </trkpt>
      <trkpt lat="45.30764" lon="6.66851">
        <ele>2069.38</ele>
        <time>2019-09-12T08:22:11Z</time>
      </trkpt>
      <trkpt lat="45.30756" lon="6.66846">
        <ele>2070.34</ele>
        <time>2019-09-12T08:22:33Z</time>
      </trkpt>
      <trkpt lat="45.30755" lon="6.66846">
        <ele>2068.89</ele>
        <time>2019-09-12T08:23:04Z</time>
      </trkpt>
      <trkpt lat="45.30752" lon="6.66843">
        <ele>2068.89</ele>
        <time>2019-09-12T08:23:07Z</time>
      </trkpt>
      <trkpt lat="45.30749" lon="6.66839">
        <ele>2068.41</ele>
        <time>2019-09-12T08:23:11Z</time>
      </trkpt>
      <trkpt lat="45.30745" lon="6.66837">
        <ele>2069.38</ele>
        <time>2019-09-12T08:23:15Z</time>
      </trkpt>
      <trkpt lat="45.30737" lon="6.66836">
        <ele>2070.34</ele>
        <time>2019-09-12T08:23:20Z</time>
      </trkpt>
      <trkpt lat="45.30732" lon="6.66834">
        <ele>2069.86</ele>
        <time>2019-09-12T08:23:24Z</time>
      </trkpt>
      <trkpt lat="45.30729" lon="6.66832">
        <ele>2070.34</ele>
        <time>2019-09-12T08:23:26Z</time>
      </trkpt>
      <trkpt lat="45.30727" lon="6.6683">
        <ele>2069.86</ele>
        <time>2019-09-12T08:23:28Z</time>
      </trkpt>
      <trkpt lat="45.30714" lon="6.66824">
        <ele>2073.22</ele>
        <time>2019-09-12T08:23:40Z</time>
      </trkpt>
      <trkpt lat="45.30706" lon="6.66825">
        <ele>2077.07</ele>
        <time>2019-09-12T08:23:53Z</time>
      </trkpt>
      <trkpt lat="45.30698" lon="6.66824">
        <ele>2079.47</ele>
        <time>2019-09-12T08:24:01Z</time>
      </trkpt>
      <trkpt lat="45.30679" lon="6.66815">
        <ele>2078.99</ele>
        <time>2019-09-12T08:24:15Z</time>
      </trkpt>
      <trkpt lat="45.30667" lon="6.66808">
        <ele>2078.99</ele>
        <time>2019-09-12T08:24:24Z</time>
      </trkpt>
      <trkpt lat="45.30663" lon="6.66806">
        <ele>2079.47</ele>
        <time>2019-09-12T08:24:28Z</time>
      </trkpt>
      <trkpt lat="45.30655" lon="6.66805">
        <ele>2081.87</ele>
        <time>2019-09-12T08:24:35Z</time>
      </trkpt>
      <trkpt lat="45.3064" lon="6.66799">
        <ele>2083.31</ele>
        <time>2019-09-12T08:24:46Z</time>
      </trkpt>
      <trkpt lat="45.30635" lon="6.66794">
        <ele>2083.31</ele>
        <time>2019-09-12T08:24:50Z</time>
      </trkpt>
      <trkpt lat="45.3063" lon="6.66792">
        <ele>2083.31</ele>
        <time>2019-09-12T08:24:54Z</time>
      </trkpt>
      <trkpt lat="45.3062" lon="6.6679">
        <ele>2082.83</ele>
        <time>2019-09-12T08:25:01Z</time>
      </trkpt>
      <trkpt lat="45.30615" lon="6.66794">
        <ele>2083.31</ele>
        <time>2019-09-12T08:25:06Z</time>
      </trkpt>
      <trkpt lat="45.30607" lon="6.66808">
        <ele>2084.76</ele>
        <time>2019-09-12T08:25:15Z</time>
      </trkpt>
      <trkpt lat="45.306" lon="6.66817">
        <ele>2085.72</ele>
        <time>2019-09-12T08:25:25Z</time>
      </trkpt>
      <trkpt lat="45.30595" lon="6.66816">
        <ele>2085.24</ele>
        <time>2019-09-12T08:25:31Z</time>
      </trkpt>
      <trkpt lat="45.30578" lon="6.66819">
        <ele>2088.12</ele>
        <time>2019-09-12T08:25:49Z</time>
      </trkpt>
      <trkpt lat="45.30576" lon="6.66821">
        <ele>2091.97</ele>
        <time>2019-09-12T08:26:11Z</time>
      </trkpt>
      <trkpt lat="45.30574" lon="6.66819">
        <ele>2091.97</ele>
        <time>2019-09-12T08:26:14Z</time>
      </trkpt>
      <trkpt lat="45.30567" lon="6.66814">
        <ele>2094.37</ele>
        <time>2019-09-12T08:26:23Z</time>
      </trkpt>
      <trkpt lat="45.30563" lon="6.66811">
        <ele>2094.85</ele>
        <time>2019-09-12T08:26:29Z</time>
      </trkpt>
      <trkpt lat="45.30551" lon="6.668">
        <ele>2097.73</ele>
        <time>2019-09-12T08:26:47Z</time>
      </trkpt>
      <trkpt lat="45.30549" lon="6.66798">
        <ele>2099.66</ele>
        <time>2019-09-12T08:27:04Z</time>
      </trkpt>
      <trkpt lat="45.3054" lon="6.6679">
        <ele>2100.62</ele>
        <time>2019-09-12T08:27:21Z</time>
      </trkpt>
      <trkpt lat="45.30534" lon="6.66786">
        <ele>2103.98</ele>
        <time>2019-09-12T08:27:28Z</time>
      </trkpt>
      <trkpt lat="45.30519" lon="6.66778">
        <ele>2106.39</ele>
        <time>2019-09-12T08:27:43Z</time>
      </trkpt>
      <trkpt lat="45.30517" lon="6.66778">
        <ele>2105.91</ele>
        <time>2019-09-12T08:27:45Z</time>
      </trkpt>
      <trkpt lat="45.30504" lon="6.66771">
        <ele>2108.31</ele>
        <time>2019-09-12T08:28:03Z</time>
      </trkpt>
      <trkpt lat="45.30501" lon="6.6677">
        <ele>2108.79</ele>
        <time>2019-09-12T08:28:08Z</time>
      </trkpt>
      <trkpt lat="45.30486" lon="6.66765">
        <ele>2109.27</ele>
        <time>2019-09-12T08:28:24Z</time>
      </trkpt>
      <trkpt lat="45.30476" lon="6.66761">
        <ele>2110.71</ele>
        <time>2019-09-12T08:28:36Z</time>
      </trkpt>
      <trkpt lat="45.30462" lon="6.66753">
        <ele>2111.19</ele>
        <time>2019-09-12T08:28:52Z</time>
      </trkpt>
      <trkpt lat="45.30458" lon="6.66748">
        <ele>2111.19</ele>
        <time>2019-09-12T08:28:57Z</time>
      </trkpt>
      <trkpt lat="45.30456" lon="6.66747">
        <ele>2112.63</ele>
        <time>2019-09-12T08:29:01Z</time>
      </trkpt>
      <trkpt lat="45.3045" lon="6.66747">
        <ele>2113.6</ele>
        <time>2019-09-12T08:29:06Z</time>
      </trkpt>
      <trkpt lat="45.30448" lon="6.66747">
        <ele>2114.08</ele>
        <time>2019-09-12T08:29:08Z</time>
      </trkpt>
      <trkpt lat="45.30446" lon="6.66747">
        <ele>2114.08</ele>
        <time>2019-09-12T08:29:10Z</time>
      </trkpt>
      <trkpt lat="45.30435" lon="6.6675">
        <ele>2115.52</ele>
        <time>2019-09-12T08:29:20Z</time>
      </trkpt>
      <trkpt lat="45.30425" lon="6.66749">
        <ele>2116.96</ele>
        <time>2019-09-12T08:29:33Z</time>
      </trkpt>
      <trkpt lat="45.30421" lon="6.66753">
        <ele>2117.44</ele>
        <time>2019-09-12T08:30:05Z</time>
      </trkpt>
      <trkpt lat="45.30414" lon="6.66755">
        <ele>2119.84</ele>
        <time>2019-09-12T08:30:39Z</time>
      </trkpt>
      <trkpt lat="45.30415" lon="6.66757">
        <ele>2118.88</ele>
        <time>2019-09-12T08:31:20Z</time>
      </trkpt>
      <trkpt lat="45.30415" lon="6.66755">
        <ele>2118.4</ele>
        <time>2019-09-12T08:31:51Z</time>
      </trkpt>
      <trkpt lat="45.30417" lon="6.66755">
        <ele>2118.88</ele>
        <time>2019-09-12T08:32:12Z</time>
      </trkpt>
      <trkpt lat="45.30418" lon="6.66755">
        <ele>2118.88</ele>
        <time>2019-09-12T08:35:20Z</time>
      </trkpt>
      <trkpt lat="45.30418" lon="6.66756">
        <ele>2119.36</ele>
        <time>2019-09-12T08:36:51Z</time>
      </trkpt>
      <trkpt lat="45.30415" lon="6.66755">
        <ele>2117.44</ele>
        <time>2019-09-12T08:36:59Z</time>
      </trkpt>
      <trkpt lat="45.30413" lon="6.66756">
        <ele>2117.44</ele>
        <time>2019-09-12T08:37:01Z</time>
      </trkpt>
      <trkpt lat="45.30399" lon="6.66763">
        <ele>2121.77</ele>
        <time>2019-09-12T08:37:18Z</time>
      </trkpt>
      <trkpt lat="45.30392" lon="6.66768">
        <ele>2122.73</ele>
        <time>2019-09-12T08:37:33Z</time>
      </trkpt>
      <trkpt lat="45.30391" lon="6.66768">
        <ele>2121.29</ele>
        <time>2019-09-12T08:37:54Z</time>
      </trkpt>
      <trkpt lat="45.30387" lon="6.6677">
        <ele>2123.21</ele>
        <time>2019-09-12T08:38:01Z</time>
      </trkpt>
      <trkpt lat="45.30382" lon="6.6677">
        <ele>2123.69</ele>
        <time>2019-09-12T08:38:05Z</time>
      </trkpt>
      <trkpt lat="45.30372" lon="6.66773">
        <ele>2124.17</ele>
        <time>2019-09-12T08:38:16Z</time>
      </trkpt>
      <trkpt lat="45.30366" lon="6.66775">
        <ele>2124.65</ele>
        <time>2019-09-12T08:38:22Z</time>
      </trkpt>
      <trkpt lat="45.30358" lon="6.66777">
        <ele>2125.13</ele>
        <time>2019-09-12T08:38:30Z</time>
      </trkpt>
      <trkpt lat="45.30353" lon="6.66779">
        <ele>2125.61</ele>
        <time>2019-09-12T08:38:36Z</time>
      </trkpt>
      <trkpt lat="45.30349" lon="6.66778">
        <ele>2125.13</ele>
        <time>2019-09-12T08:38:40Z</time>
      </trkpt>
      <trkpt lat="45.30347" lon="6.66777">
        <ele>2125.61</ele>
        <time>2019-09-12T08:38:42Z</time>
      </trkpt>
      <trkpt lat="45.30342" lon="6.66781">
        <ele>2125.61</ele>
        <time>2019-09-12T08:38:48Z</time>
      </trkpt>
      <trkpt lat="45.30329" lon="6.66783">
        <ele>2128.02</ele>
        <time>2019-09-12T08:39:03Z</time>
      </trkpt>
      <trkpt lat="45.30316" lon="6.66785">
        <ele>2128.98</ele>
        <time>2019-09-12T08:39:21Z</time>
      </trkpt>
      <trkpt lat="45.30306" lon="6.66783">
        <ele>2129.46</ele>
        <time>2019-09-12T08:39:33Z</time>
      </trkpt>
      <trkpt lat="45.30293" lon="6.66784">
        <ele>2132.82</ele>
        <time>2019-09-12T08:39:50Z</time>
      </trkpt>
      <trkpt lat="45.30279" lon="6.66785">
        <ele>2134.74</ele>
        <time>2019-09-12T08:40:08Z</time>
      </trkpt>
      <trkpt lat="45.30276" lon="6.66785">
        <ele>2134.74</ele>
        <time>2019-09-12T08:40:11Z</time>
      </trkpt>
      <trkpt lat="45.30269" lon="6.66787">
        <ele>2135.71</ele>
        <time>2019-09-12T08:40:19Z</time>
      </trkpt>
      <trkpt lat="45.30264" lon="6.66788">
        <ele>2136.67</ele>
        <time>2019-09-12T08:40:25Z</time>
      </trkpt>
      <trkpt lat="45.30259" lon="6.66785">
        <ele>2135.71</ele>
        <time>2019-09-12T08:40:31Z</time>
      </trkpt>
      <trkpt lat="45.30244" lon="6.66785">
        <ele>2136.19</ele>
        <time>2019-09-12T08:40:49Z</time>
      </trkpt>
      <trkpt lat="45.30229" lon="6.66783">
        <ele>2139.07</ele>
        <time>2019-09-12T08:41:08Z</time>
      </trkpt>
      <trkpt lat="45.30218" lon="6.66778">
        <ele>2140.03</ele>
        <time>2019-09-12T08:41:23Z</time>
      </trkpt>
      <trkpt lat="45.30208" lon="6.66779">
        <ele>2142.92</ele>
        <time>2019-09-12T08:41:36Z</time>
      </trkpt>
      <trkpt lat="45.30197" lon="6.66778">
        <ele>2142.44</ele>
        <time>2019-09-12T08:41:49Z</time>
      </trkpt>
      <trkpt lat="45.30185" lon="6.66777">
        <ele>2145.8</ele>
        <time>2019-09-12T08:42:06Z</time>
      </trkpt>
      <trkpt lat="45.30173" lon="6.66775">
        <ele>2149.16</ele>
        <time>2019-09-12T08:42:24Z</time>
      </trkpt>
      <trkpt lat="45.30162" lon="6.66773">
        <ele>2149.65</ele>
        <time>2019-09-12T08:42:43Z</time>
      </trkpt>
      <trkpt lat="45.3016" lon="6.66774">
        <ele>2150.13</ele>
        <time>2019-09-12T08:42:45Z</time>
      </trkpt>
      <trkpt lat="45.30158" lon="6.66773">
        <ele>2150.13</ele>
        <time>2019-09-12T08:42:47Z</time>
      </trkpt>
      <trkpt lat="45.30156" lon="6.66774">
        <ele>2151.09</ele>
        <time>2019-09-12T08:43:26Z</time>
      </trkpt>
      <trkpt lat="45.30143" lon="6.66773">
        <ele>2153.01</ele>
        <time>2019-09-12T08:44:10Z</time>
      </trkpt>
      <trkpt lat="45.30142" lon="6.66771">
        <ele>2153.01</ele>
        <time>2019-09-12T08:44:13Z</time>
      </trkpt>
      <trkpt lat="45.30139" lon="6.66771">
        <ele>2153.01</ele>
        <time>2019-09-12T08:44:15Z</time>
      </trkpt>
      <trkpt lat="45.30135" lon="6.66771">
        <ele>2153.01</ele>
        <time>2019-09-12T08:44:18Z</time>
      </trkpt>
      <trkpt lat="45.30131" lon="6.66767">
        <ele>2153.01</ele>
        <time>2019-09-12T08:44:23Z</time>
      </trkpt>
      <trkpt lat="45.3012" lon="6.6677">
        <ele>2154.45</ele>
        <time>2019-09-12T08:44:32Z</time>
      </trkpt>
      <trkpt lat="45.30099" lon="6.66775">
        <ele>2156.37</ele>
        <time>2019-09-12T08:44:51Z</time>
      </trkpt>
      <trkpt lat="45.30095" lon="6.66777">
        <ele>2157.82</ele>
        <time>2019-09-12T08:44:56Z</time>
      </trkpt>
      <trkpt lat="45.30087" lon="6.66774">
        <ele>2157.34</ele>
        <time>2019-09-12T08:45:03Z</time>
      </trkpt>
      <trkpt lat="45.30078" lon="6.66774">
        <ele>2158.3</ele>
        <time>2019-09-12T08:45:12Z</time>
      </trkpt>
      <trkpt lat="45.30076" lon="6.66772">
        <ele>2157.82</ele>
        <time>2019-09-12T08:45:14Z</time>
      </trkpt>
      <trkpt lat="45.30071" lon="6.66773">
        <ele>2159.26</ele>
        <time>2019-09-12T08:45:20Z</time>
      </trkpt>
      <trkpt lat="45.30068" lon="6.66772">
        <ele>2159.26</ele>
        <time>2019-09-12T08:45:23Z</time>
      </trkpt>
      <trkpt lat="45.30061" lon="6.6677">
        <ele>2160.22</ele>
        <time>2019-09-12T08:45:29Z</time>
      </trkpt>
      <trkpt lat="45.30056" lon="6.66769">
        <ele>2161.66</ele>
        <time>2019-09-12T08:45:33Z</time>
      </trkpt>
      <trkpt lat="45.30048" lon="6.66771">
        <ele>2162.62</ele>
        <time>2019-09-12T08:45:40Z</time>
      </trkpt>
      <trkpt lat="45.30046" lon="6.6677">
        <ele>2163.1</ele>
        <time>2019-09-12T08:45:43Z</time>
      </trkpt>
      <trkpt lat="45.30043" lon="6.66767">
        <ele>2162.62</ele>
        <time>2019-09-12T08:45:47Z</time>
      </trkpt>
      <trkpt lat="45.30036" lon="6.66762">
        <ele>2163.58</ele>
        <time>2019-09-12T08:45:53Z</time>
      </trkpt>
      <trkpt lat="45.30023" lon="6.66752">
        <ele>2167.43</ele>
        <time>2019-09-12T08:46:08Z</time>
      </trkpt>
      <trkpt lat="45.30011" lon="6.66748">
        <ele>2170.31</ele>
        <time>2019-09-12T08:46:18Z</time>
      </trkpt>
      <trkpt lat="45.29998" lon="6.66749">
        <ele>2172.24</ele>
        <time>2019-09-12T08:46:28Z</time>
      </trkpt>
      <trkpt lat="45.29978" lon="6.66742">
        <ele>2175.12</ele>
        <time>2019-09-12T08:46:48Z</time>
      </trkpt>
      <trkpt lat="45.29976" lon="6.6674">
        <ele>2176.08</ele>
        <time>2019-09-12T08:46:50Z</time>
      </trkpt>
      <trkpt lat="45.29962" lon="6.66736">
        <ele>2177.04</ele>
        <time>2019-09-12T08:47:07Z</time>
      </trkpt>
      <trkpt lat="45.29962" lon="6.66736">
        <ele>2177.04</ele>
        <time>2019-09-12T08:47:08Z</time>
      </trkpt>
      <trkpt lat="45.29958" lon="6.66737">
        <ele>2177.52</ele>
        <time>2019-09-12T08:47:13Z</time>
      </trkpt>
      <trkpt lat="45.29939" lon="6.66738">
        <ele>2179.45</ele>
        <time>2019-09-12T08:47:35Z</time>
      </trkpt>
      <trkpt lat="45.29926" lon="6.66732">
        <ele>2183.29</ele>
        <time>2019-09-12T08:47:54Z</time>
      </trkpt>
      <trkpt lat="45.29926" lon="6.66731">
        <ele>2183.29</ele>
        <time>2019-09-12T08:47:55Z</time>
      </trkpt>
      <trkpt lat="45.29916" lon="6.66724">
        <ele>2186.66</ele>
        <time>2019-09-12T08:48:12Z</time>
      </trkpt>
      <trkpt lat="45.29914" lon="6.66721">
        <ele>2186.18</ele>
        <time>2019-09-12T08:48:48Z</time>
      </trkpt>
      <trkpt lat="45.29908" lon="6.66715">
        <ele>2187.14</ele>
        <time>2019-09-12T08:49:04Z</time>
      </trkpt>
      <trkpt lat="45.299" lon="6.66708">
        <ele>2190.02</ele>
        <time>2019-09-12T08:49:21Z</time>
      </trkpt>
      <trkpt lat="45.29892" lon="6.66699">
        <ele>2190.98</ele>
        <time>2019-09-12T08:49:41Z</time>
      </trkpt>
      <trkpt lat="45.29884" lon="6.66693">
        <ele>2193.39</ele>
        <time>2019-09-12T08:49:59Z</time>
      </trkpt>
      <trkpt lat="45.29879" lon="6.66691">
        <ele>2195.79</ele>
        <time>2019-09-12T08:50:22Z</time>
      </trkpt>
      <trkpt lat="45.29873" lon="6.66685">
        <ele>2197.23</ele>
        <time>2019-09-12T08:50:37Z</time>
      </trkpt>
      <trkpt lat="45.29865" lon="6.66682">
        <ele>2200.59</ele>
        <time>2019-09-12T08:50:51Z</time>
      </trkpt>
      <trkpt lat="45.29855" lon="6.66679">
        <ele>2202.04</ele>
        <time>2019-09-12T08:51:09Z</time>
      </trkpt>
      <trkpt lat="45.29849" lon="6.66675">
        <ele>2203.96</ele>
        <time>2019-09-12T08:51:27Z</time>
      </trkpt>
      <trkpt lat="45.29839" lon="6.66666">
        <ele>2206.36</ele>
        <time>2019-09-12T08:51:43Z</time>
      </trkpt>
      <trkpt lat="45.29835" lon="6.66661">
        <ele>2205.4</ele>
        <time>2019-09-12T08:52:00Z</time>
      </trkpt>
      <trkpt lat="45.2983" lon="6.66656">
        <ele>2209.25</ele>
        <time>2019-09-12T08:52:19Z</time>
      </trkpt>
      <trkpt lat="45.2982" lon="6.66647">
        <ele>2210.69</ele>
        <time>2019-09-12T08:52:38Z</time>
      </trkpt>
      <trkpt lat="45.29814" lon="6.66642">
        <ele>2213.57</ele>
        <time>2019-09-12T08:52:59Z</time>
      </trkpt>
      <trkpt lat="45.29808" lon="6.6663">
        <ele>2215.01</ele>
        <time>2019-09-12T08:53:15Z</time>
      </trkpt>
      <trkpt lat="45.298" lon="6.66621">
        <ele>2219.82</ele>
        <time>2019-09-12T08:53:35Z</time>
      </trkpt>
      <trkpt lat="45.29793" lon="6.66608">
        <ele>2220.78</ele>
        <time>2019-09-12T08:53:54Z</time>
      </trkpt>
      <trkpt lat="45.29785" lon="6.66598">
        <ele>2221.74</ele>
        <time>2019-09-12T08:54:12Z</time>
      </trkpt>
      <trkpt lat="45.29781" lon="6.66593">
        <ele>2223.19</ele>
        <time>2019-09-12T08:54:35Z</time>
      </trkpt>
      <trkpt lat="45.29775" lon="6.66583">
        <ele>2224.15</ele>
        <time>2019-09-12T08:54:53Z</time>
      </trkpt>
      <trkpt lat="45.29768" lon="6.66569">
        <ele>2225.59</ele>
        <time>2019-09-12T08:55:14Z</time>
      </trkpt>
      <trkpt lat="45.29764" lon="6.6656">
        <ele>2229.43</ele>
        <time>2019-09-12T08:55:32Z</time>
      </trkpt>
      <trkpt lat="45.29761" lon="6.66557">
        <ele>2228.95</ele>
        <time>2019-09-12T08:56:18Z</time>
      </trkpt>
      <trkpt lat="45.29756" lon="6.66544">
        <ele>2229.92</ele>
        <time>2019-09-12T08:56:38Z</time>
      </trkpt>
      <trkpt lat="45.29751" lon="6.66533">
        <ele>2231.84</ele>
        <time>2019-09-12T08:56:57Z</time>
      </trkpt>
      <trkpt lat="45.29745" lon="6.66528">
        <ele>2236.64</ele>
        <time>2019-09-12T08:57:13Z</time>
      </trkpt>
      <trkpt lat="45.29739" lon="6.6652">
        <ele>2236.64</ele>
        <time>2019-09-12T08:57:29Z</time>
      </trkpt>
      <trkpt lat="45.29735" lon="6.66509">
        <ele>2239.05</ele>
        <time>2019-09-12T08:57:45Z</time>
      </trkpt>
      <trkpt lat="45.29732" lon="6.66496">
        <ele>2241.45</ele>
        <time>2019-09-12T08:58:03Z</time>
      </trkpt>
      <trkpt lat="45.2973" lon="6.6648">
        <ele>2243.37</ele>
        <time>2019-09-12T08:58:22Z</time>
      </trkpt>
      <trkpt lat="45.29728" lon="6.66462">
        <ele>2244.82</ele>
        <time>2019-09-12T08:58:42Z</time>
      </trkpt>
      <trkpt lat="45.29724" lon="6.66444">
        <ele>2245.78</ele>
        <time>2019-09-12T08:59:01Z</time>
      </trkpt>
      <trkpt lat="45.29717" lon="6.66424">
        <ele>2244.82</ele>
        <time>2019-09-12T08:59:23Z</time>
      </trkpt>
      <trkpt lat="45.29715" lon="6.66418">
        <ele>2245.78</ele>
        <time>2019-09-12T08:59:48Z</time>
      </trkpt>
      <trkpt lat="45.29712" lon="6.66414">
        <ele>2245.78</ele>
        <time>2019-09-12T09:00:34Z</time>
      </trkpt>
      <trkpt lat="45.29708" lon="6.66398">
        <ele>2246.74</ele>
        <time>2019-09-12T09:00:52Z</time>
      </trkpt>
      <trkpt lat="45.29706" lon="6.66383">
        <ele>2247.22</ele>
        <time>2019-09-12T09:01:08Z</time>
      </trkpt>
      <trkpt lat="45.29705" lon="6.66378">
        <ele>2247.7</ele>
        <time>2019-09-12T09:01:12Z</time>
      </trkpt>
      <trkpt lat="45.29695" lon="6.66353">
        <ele>2246.26</ele>
        <time>2019-09-12T09:01:33Z</time>
      </trkpt>
      <trkpt lat="45.29694" lon="6.6635">
        <ele>2247.22</ele>
        <time>2019-09-12T09:01:36Z</time>
      </trkpt>
      <trkpt lat="45.2969" lon="6.66331">
        <ele>2248.18</ele>
        <time>2019-09-12T09:01:50Z</time>
      </trkpt>
      <trkpt lat="45.29688" lon="6.66329">
        <ele>2248.18</ele>
        <time>2019-09-12T09:01:52Z</time>
      </trkpt>
      <trkpt lat="45.29669" lon="6.66302">
        <ele>2252.51</ele>
        <time>2019-09-12T09:02:11Z</time>
      </trkpt>
      <trkpt lat="45.2966" lon="6.66291">
        <ele>2253.95</ele>
        <time>2019-09-12T09:02:21Z</time>
      </trkpt>
      <trkpt lat="45.2966" lon="6.66289">
        <ele>2254.43</ele>
        <time>2019-09-12T09:02:23Z</time>
      </trkpt>
      <trkpt lat="45.29647" lon="6.66274">
        <ele>2255.87</ele>
        <time>2019-09-12T09:02:40Z</time>
      </trkpt>
      <trkpt lat="45.2964" lon="6.66255">
        <ele>2254.91</ele>
        <time>2019-09-12T09:02:56Z</time>
      </trkpt>
      <trkpt lat="45.29639" lon="6.66252">
        <ele>2254.43</ele>
        <time>2019-09-12T09:02:58Z</time>
      </trkpt>
      <trkpt lat="45.29634" lon="6.66242">
        <ele>2255.87</ele>
        <time>2019-09-12T09:03:06Z</time>
      </trkpt>
      <trkpt lat="45.29622" lon="6.66233">
        <ele>2255.39</ele>
        <time>2019-09-12T09:03:20Z</time>
      </trkpt>
      <trkpt lat="45.29617" lon="6.66236">
        <ele>2257.31</ele>
        <time>2019-09-12T09:03:26Z</time>
      </trkpt>
      <trkpt lat="45.2961" lon="6.66242">
        <ele>2258.27</ele>
        <time>2019-09-12T09:03:35Z</time>
      </trkpt>
      <trkpt lat="45.29605" lon="6.6625">
        <ele>2260.2</ele>
        <time>2019-09-12T09:03:52Z</time>
      </trkpt>
      <trkpt lat="45.29594" lon="6.66264">
        <ele>2262.12</ele>
        <time>2019-09-12T09:04:10Z</time>
      </trkpt>
      <trkpt lat="45.29586" lon="6.66273">
        <ele>2264.04</ele>
        <time>2019-09-12T09:04:26Z</time>
      </trkpt>
      <trkpt lat="45.29576" lon="6.66282">
        <ele>2267.41</ele>
        <time>2019-09-12T09:04:41Z</time>
      </trkpt>
      <trkpt lat="45.2957" lon="6.66293">
        <ele>2269.33</ele>
        <time>2019-09-12T09:04:58Z</time>
      </trkpt>
      <trkpt lat="45.29562" lon="6.66303">
        <ele>2271.25</ele>
        <time>2019-09-12T09:05:17Z</time>
      </trkpt>
      <trkpt lat="45.29549" lon="6.66308">
        <ele>2273.17</ele>
        <time>2019-09-12T09:05:36Z</time>
      </trkpt>
      <trkpt lat="45.29541" lon="6.66308">
        <ele>2275.58</ele>
        <time>2019-09-12T09:05:52Z</time>
      </trkpt>
      <trkpt lat="45.29534" lon="6.66308">
        <ele>2276.54</ele>
        <time>2019-09-12T09:06:15Z</time>
      </trkpt>
      <trkpt lat="45.29533" lon="6.66302">
        <ele>2277.5</ele>
        <time>2019-09-12T09:07:14Z</time>
      </trkpt>
      <trkpt lat="45.29529" lon="6.66298">
        <ele>2278.94</ele>
        <time>2019-09-12T09:07:31Z</time>
      </trkpt>
      <trkpt lat="45.29523" lon="6.66302">
        <ele>2281.35</ele>
        <time>2019-09-12T09:07:48Z</time>
      </trkpt>
      <trkpt lat="45.29514" lon="6.66307">
        <ele>2281.35</ele>
        <time>2019-09-12T09:08:08Z</time>
      </trkpt>
      <trkpt lat="45.29511" lon="6.66307">
        <ele>2281.83</ele>
        <time>2019-09-12T09:08:12Z</time>
      </trkpt>
      <trkpt lat="45.29509" lon="6.66299">
        <ele>2283.75</ele>
        <time>2019-09-12T09:08:32Z</time>
      </trkpt>
      <trkpt lat="45.29512" lon="6.6629">
        <ele>2285.67</ele>
        <time>2019-09-12T09:08:50Z</time>
      </trkpt>
      <trkpt lat="45.29507" lon="6.66285">
        <ele>2290.48</ele>
        <time>2019-09-12T09:09:12Z</time>
      </trkpt>
      <trkpt lat="45.29502" lon="6.66287">
        <ele>2290.96</ele>
        <time>2019-09-12T09:09:27Z</time>
      </trkpt>
      <trkpt lat="45.29496" lon="6.66291">
        <ele>2292.4</ele>
        <time>2019-09-12T09:09:43Z</time>
      </trkpt>
      <trkpt lat="45.29487" lon="6.66294">
        <ele>2293.36</ele>
        <time>2019-09-12T09:10:02Z</time>
      </trkpt>
      <trkpt lat="45.29477" lon="6.66297">
        <ele>2291.44</ele>
        <time>2019-09-12T09:10:22Z</time>
      </trkpt>
      <trkpt lat="45.29466" lon="6.66296">
        <ele>2293.84</ele>
        <time>2019-09-12T09:10:43Z</time>
      </trkpt>
      <trkpt lat="45.29458" lon="6.66302">
        <ele>2297.69</ele>
        <time>2019-09-12T09:11:01Z</time>
      </trkpt>
      <trkpt lat="45.2945" lon="6.66306">
        <ele>2299.13</ele>
        <time>2019-09-12T09:11:15Z</time>
      </trkpt>
      <trkpt lat="45.29445" lon="6.66312">
        <ele>2301.53</ele>
        <time>2019-09-12T09:11:34Z</time>
      </trkpt>
      <trkpt lat="45.29438" lon="6.66314">
        <ele>2304.42</ele>
        <time>2019-09-12T09:11:50Z</time>
      </trkpt>
      <trkpt lat="45.29429" lon="6.66317">
        <ele>2304.9</ele>
        <time>2019-09-12T09:12:08Z</time>
      </trkpt>
      <trkpt lat="45.29422" lon="6.66319">
        <ele>2306.82</ele>
        <time>2019-09-12T09:12:27Z</time>
      </trkpt>
      <trkpt lat="45.29417" lon="6.66321">
        <ele>2307.78</ele>
        <time>2019-09-12T09:12:37Z</time>
      </trkpt>
      <trkpt lat="45.29407" lon="6.66323">
        <ele>2308.74</ele>
        <time>2019-09-12T09:12:57Z</time>
      </trkpt>
      <trkpt lat="45.29406" lon="6.66315">
        <ele>2311.63</ele>
        <time>2019-09-12T09:13:13Z</time>
      </trkpt>
      <trkpt lat="45.29407" lon="6.66307">
        <ele>2313.07</ele>
        <time>2019-09-12T09:13:27Z</time>
      </trkpt>
      <trkpt lat="45.29409" lon="6.66297">
        <ele>2317.4</ele>
        <time>2019-09-12T09:13:42Z</time>
      </trkpt>
      <trkpt lat="45.29409" lon="6.66287">
        <ele>2320.76</ele>
        <time>2019-09-12T09:13:56Z</time>
      </trkpt>
      <trkpt lat="45.29411" lon="6.66278">
        <ele>2322.68</ele>
        <time>2019-09-12T09:14:14Z</time>
      </trkpt>
      <trkpt lat="45.29411" lon="6.66274">
        <ele>2323.64</ele>
        <time>2019-09-12T09:14:32Z</time>
      </trkpt>
      <trkpt lat="45.29408" lon="6.66275">
        <ele>2324.12</ele>
        <time>2019-09-12T09:14:53Z</time>
      </trkpt>
      <trkpt lat="45.29408" lon="6.66277">
        <ele>2323.16</ele>
        <time>2019-09-12T09:15:25Z</time>
      </trkpt>
      <trkpt lat="45.29403" lon="6.66278">
        <ele>2322.68</ele>
        <time>2019-09-12T09:16:41Z</time>
      </trkpt>
      <trkpt lat="45.29398" lon="6.66282">
        <ele>2324.61</ele>
        <time>2019-09-12T09:16:54Z</time>
      </trkpt>
      <trkpt lat="45.29392" lon="6.66283">
        <ele>2325.09</ele>
        <time>2019-09-12T09:17:12Z</time>
      </trkpt>
      <trkpt lat="45.29384" lon="6.66288">
        <ele>2327.49</ele>
        <time>2019-09-12T09:17:29Z</time>
      </trkpt>
      <trkpt lat="45.29374" lon="6.66288">
        <ele>2327.49</ele>
        <time>2019-09-12T09:17:45Z</time>
      </trkpt>
      <trkpt lat="45.29364" lon="6.6629">
        <ele>2330.37</ele>
        <time>2019-09-12T09:18:01Z</time>
      </trkpt>
      <trkpt lat="45.29356" lon="6.66292">
        <ele>2331.81</ele>
        <time>2019-09-12T09:18:17Z</time>
      </trkpt>
      <trkpt lat="45.29354" lon="6.66293">
        <ele>2330.85</ele>
        <time>2019-09-12T09:18:21Z</time>
      </trkpt>
      <trkpt lat="45.29344" lon="6.66298">
        <ele>2333.74</ele>
        <time>2019-09-12T09:18:36Z</time>
      </trkpt>
      <trkpt lat="45.29334" lon="6.66302">
        <ele>2336.62</ele>
        <time>2019-09-12T09:18:52Z</time>
      </trkpt>
      <trkpt lat="45.29327" lon="6.66303">
        <ele>2337.1</ele>
        <time>2019-09-12T09:19:11Z</time>
      </trkpt>
      <trkpt lat="45.29317" lon="6.66307">
        <ele>2337.58</ele>
        <time>2019-09-12T09:19:27Z</time>
      </trkpt>
      <trkpt lat="45.29309" lon="6.66311">
        <ele>2339.51</ele>
        <time>2019-09-12T09:19:44Z</time>
      </trkpt>
      <trkpt lat="45.29299" lon="6.66316">
        <ele>2340.95</ele>
        <time>2019-09-12T09:20:01Z</time>
      </trkpt>
      <trkpt lat="45.29292" lon="6.66318">
        <ele>2341.43</ele>
        <time>2019-09-12T09:20:10Z</time>
      </trkpt>
      <trkpt lat="45.29284" lon="6.6632">
        <ele>2343.35</ele>
        <time>2019-09-12T09:20:25Z</time>
      </trkpt>
      <trkpt lat="45.29278" lon="6.66316">
        <ele>2344.31</ele>
        <time>2019-09-12T09:20:36Z</time>
      </trkpt>
      <trkpt lat="45.29275" lon="6.66328">
        <ele>2344.31</ele>
        <time>2019-09-12T09:20:55Z</time>
      </trkpt>
      <trkpt lat="45.29275" lon="6.66339">
        <ele>2345.75</ele>
        <time>2019-09-12T09:21:09Z</time>
      </trkpt>
      <trkpt lat="45.29278" lon="6.66357">
        <ele>2347.68</ele>
        <time>2019-09-12T09:21:28Z</time>
      </trkpt>
      <trkpt lat="45.29281" lon="6.66367">
        <ele>2349.12</ele>
        <time>2019-09-12T09:21:43Z</time>
      </trkpt>
      <trkpt lat="45.2928" lon="6.66369">
        <ele>2349.6</ele>
        <time>2019-09-12T09:21:45Z</time>
      </trkpt>
      <trkpt lat="45.2928" lon="6.66378">
        <ele>2351.52</ele>
        <time>2019-09-12T09:22:02Z</time>
      </trkpt>
      <trkpt lat="45.29276" lon="6.66383">
        <ele>2352.48</ele>
        <time>2019-09-12T09:22:15Z</time>
      </trkpt>
      <trkpt lat="45.29272" lon="6.66384">
        <ele>2352.48</ele>
        <time>2019-09-12T09:22:22Z</time>
      </trkpt>
      <trkpt lat="45.29265" lon="6.66384">
        <ele>2355.85</ele>
        <time>2019-09-12T09:22:41Z</time>
      </trkpt>
      <trkpt lat="45.29263" lon="6.66383">
        <ele>2356.81</ele>
        <time>2019-09-12T09:22:52Z</time>
      </trkpt>
      <trkpt lat="45.29256" lon="6.66382">
        <ele>2356.81</ele>
        <time>2019-09-12T09:23:07Z</time>
      </trkpt>
      <trkpt lat="45.29246" lon="6.66383">
        <ele>2359.21</ele>
        <time>2019-09-12T09:23:24Z</time>
      </trkpt>
      <trkpt lat="45.29237" lon="6.66384">
        <ele>2362.1</ele>
        <time>2019-09-12T09:23:47Z</time>
      </trkpt>
      <trkpt lat="45.29229" lon="6.66385">
        <ele>2364.02</ele>
        <time>2019-09-12T09:24:06Z</time>
      </trkpt>
      <trkpt lat="45.29222" lon="6.66382">
        <ele>2362.58</ele>
        <time>2019-09-12T09:24:25Z</time>
      </trkpt>
      <trkpt lat="45.29213" lon="6.66384">
        <ele>2364.98</ele>
        <time>2019-09-12T09:24:45Z</time>
      </trkpt>
      <trkpt lat="45.29211" lon="6.66384">
        <ele>2364.98</ele>
        <time>2019-09-12T09:24:49Z</time>
      </trkpt>
      <trkpt lat="45.29205" lon="6.66381">
        <ele>2364.5</ele>
        <time>2019-09-12T09:25:09Z</time>
      </trkpt>
      <trkpt lat="45.29202" lon="6.66381">
        <ele>2365.46</ele>
        <time>2019-09-12T09:25:13Z</time>
      </trkpt>
      <trkpt lat="45.29191" lon="6.66379">
        <ele>2366.9</ele>
        <time>2019-09-12T09:25:30Z</time>
      </trkpt>
      <trkpt lat="45.29185" lon="6.66379">
        <ele>2366.9</ele>
        <time>2019-09-12T09:25:40Z</time>
      </trkpt>
      <trkpt lat="45.29177" lon="6.6638">
        <ele>2368.35</ele>
        <time>2019-09-12T09:25:55Z</time>
      </trkpt>
      <trkpt lat="45.29171" lon="6.6638">
        <ele>2369.79</ele>
        <time>2019-09-12T09:26:05Z</time>
      </trkpt>
      <trkpt lat="45.29161" lon="6.66379">
        <ele>2370.75</ele>
        <time>2019-09-12T09:26:20Z</time>
      </trkpt>
      <trkpt lat="45.29155" lon="6.66377">
        <ele>2372.19</ele>
        <time>2019-09-12T09:26:42Z</time>
      </trkpt>
      <trkpt lat="45.29147" lon="6.66371">
        <ele>2374.11</ele>
        <time>2019-09-12T09:27:01Z</time>
      </trkpt>
      <trkpt lat="45.2914" lon="6.66368">
        <ele>2375.55</ele>
        <time>2019-09-12T09:27:16Z</time>
      </trkpt>
      <trkpt lat="45.29135" lon="6.66367">
        <ele>2377</ele>
        <time>2019-09-12T09:27:37Z</time>
      </trkpt>
      <trkpt lat="45.29127" lon="6.66363">
        <ele>2378.44</ele>
        <time>2019-09-12T09:27:57Z</time>
      </trkpt>
      <trkpt lat="45.29119" lon="6.66358">
        <ele>2380.36</ele>
        <time>2019-09-12T09:28:14Z</time>
      </trkpt>
      <trkpt lat="45.29112" lon="6.66356">
        <ele>2383.25</ele>
        <time>2019-09-12T09:28:33Z</time>
      </trkpt>
      <trkpt lat="45.29102" lon="6.66355">
        <ele>2384.69</ele>
        <time>2019-09-12T09:28:51Z</time>
      </trkpt>
      <trkpt lat="45.29098" lon="6.66354">
        <ele>2385.65</ele>
        <time>2019-09-12T09:28:58Z</time>
      </trkpt>
      <trkpt lat="45.29095" lon="6.66352">
        <ele>2386.61</ele>
        <time>2019-09-12T09:29:20Z</time>
      </trkpt>
      <trkpt lat="45.29093" lon="6.66352">
        <ele>2386.61</ele>
        <time>2019-09-12T09:29:27Z</time>
      </trkpt>
      <trkpt lat="45.29083" lon="6.66348">
        <ele>2389.49</ele>
        <time>2019-09-12T09:29:43Z</time>
      </trkpt>
      <trkpt lat="45.29073" lon="6.66346">
        <ele>2390.94</ele>
        <time>2019-09-12T09:30:01Z</time>
      </trkpt>
      <trkpt lat="45.29062" lon="6.66344">
        <ele>2392.38</ele>
        <time>2019-09-12T09:30:20Z</time>
      </trkpt>
      <trkpt lat="45.29054" lon="6.66341">
        <ele>2394.3</ele>
        <time>2019-09-12T09:30:36Z</time>
      </trkpt>
      <trkpt lat="45.29047" lon="6.66335">
        <ele>2395.74</ele>
        <time>2019-09-12T09:30:53Z</time>
      </trkpt>
      <trkpt lat="45.29054" lon="6.66328">
        <ele>2396.22</ele>
        <time>2019-09-12T09:31:11Z</time>
      </trkpt>
      <trkpt lat="45.29056" lon="6.66328">
        <ele>2397.18</ele>
        <time>2019-09-12T09:31:42Z</time>
      </trkpt>
      <trkpt lat="45.29063" lon="6.66325">
        <ele>2400.07</ele>
        <time>2019-09-12T09:31:58Z</time>
      </trkpt>
      <trkpt lat="45.2907" lon="6.66321">
        <ele>2401.03</ele>
        <time>2019-09-12T09:32:16Z</time>
      </trkpt>
      <trkpt lat="45.29073" lon="6.66311">
        <ele>2402.47</ele>
        <time>2019-09-12T09:32:35Z</time>
      </trkpt>
      <trkpt lat="45.29064" lon="6.66303">
        <ele>2403.91</ele>
        <time>2019-09-12T09:32:54Z</time>
      </trkpt>
      <trkpt lat="45.2906" lon="6.663">
        <ele>2403.91</ele>
        <time>2019-09-12T09:33:14Z</time>
      </trkpt>
      <trkpt lat="45.29055" lon="6.66296">
        <ele>2404.88</ele>
        <time>2019-09-12T09:33:47Z</time>
      </trkpt>
      <trkpt lat="45.29044" lon="6.66287">
        <ele>2407.28</ele>
        <time>2019-09-12T09:34:05Z</time>
      </trkpt>
      <trkpt lat="45.29039" lon="6.66286">
        <ele>2408.72</ele>
        <time>2019-09-12T09:34:19Z</time>
      </trkpt>
      <trkpt lat="45.29031" lon="6.6628">
        <ele>2410.16</ele>
        <time>2019-09-12T09:34:42Z</time>
      </trkpt>
      <trkpt lat="45.29021" lon="6.66273">
        <ele>2411.6</ele>
        <time>2019-09-12T09:34:58Z</time>
      </trkpt>
      <trkpt lat="45.2901" lon="6.6627">
        <ele>2413.05</ele>
        <time>2019-09-12T09:35:15Z</time>
      </trkpt>
      <trkpt lat="45.28999" lon="6.66263">
        <ele>2414.97</ele>
        <time>2019-09-12T09:35:33Z</time>
      </trkpt>
      <trkpt lat="45.2899" lon="6.66258">
        <ele>2415.93</ele>
        <time>2019-09-12T09:35:51Z</time>
      </trkpt>
      <trkpt lat="45.28984" lon="6.66255">
        <ele>2417.37</ele>
        <time>2019-09-12T09:35:59Z</time>
      </trkpt>
      <trkpt lat="45.28974" lon="6.66248">
        <ele>2419.3</ele>
        <time>2019-09-12T09:36:17Z</time>
      </trkpt>
      <trkpt lat="45.28963" lon="6.66244">
        <ele>2419.78</ele>
        <time>2019-09-12T09:36:35Z</time>
      </trkpt>
      <trkpt lat="45.28954" lon="6.6624">
        <ele>2423.62</ele>
        <time>2019-09-12T09:36:52Z</time>
      </trkpt>
      <trkpt lat="45.2894" lon="6.66232">
        <ele>2426.5</ele>
        <time>2019-09-12T09:37:13Z</time>
      </trkpt>
      <trkpt lat="45.28933" lon="6.66231">
        <ele>2426.99</ele>
        <time>2019-09-12T09:37:24Z</time>
      </trkpt>
      <trkpt lat="45.28921" lon="6.66233">
        <ele>2426.5</ele>
        <time>2019-09-12T09:37:43Z</time>
      </trkpt>
      <trkpt lat="45.28909" lon="6.66233">
        <ele>2426.99</ele>
        <time>2019-09-12T09:38:01Z</time>
      </trkpt>
      <trkpt lat="45.28905" lon="6.66231">
        <ele>2428.43</ele>
        <time>2019-09-12T09:38:05Z</time>
      </trkpt>
      <trkpt lat="45.2889" lon="6.6623">
        <ele>2431.31</ele>
        <time>2019-09-12T09:38:25Z</time>
      </trkpt>
      <trkpt lat="45.2888" lon="6.66228">
        <ele>2430.35</ele>
        <time>2019-09-12T09:38:43Z</time>
      </trkpt>
      <trkpt lat="45.28877" lon="6.66228">
        <ele>2429.87</ele>
        <time>2019-09-12T09:39:01Z</time>
      </trkpt>
      <trkpt lat="45.28871" lon="6.66226">
        <ele>2430.83</ele>
        <time>2019-09-12T09:39:09Z</time>
      </trkpt>
      <trkpt lat="45.28869" lon="6.6623">
        <ele>2432.27</ele>
        <time>2019-09-12T09:39:24Z</time>
      </trkpt>
      <trkpt lat="45.28866" lon="6.66225">
        <ele>2433.23</ele>
        <time>2019-09-12T09:39:41Z</time>
      </trkpt>
      <trkpt lat="45.28865" lon="6.66219">
        <ele>2432.27</ele>
        <time>2019-09-12T09:40:00Z</time>
      </trkpt>
      <trkpt lat="45.28865" lon="6.66213">
        <ele>2432.27</ele>
        <time>2019-09-12T09:40:05Z</time>
      </trkpt>
      <trkpt lat="45.28865" lon="6.66208">
        <ele>2431.79</ele>
        <time>2019-09-12T09:40:09Z</time>
      </trkpt>
      <trkpt lat="45.28867" lon="6.66197">
        <ele>2431.79</ele>
        <time>2019-09-12T09:40:17Z</time>
      </trkpt>
      <trkpt lat="45.28869" lon="6.66185">
        <ele>2432.27</ele>
        <time>2019-09-12T09:40:26Z</time>
      </trkpt>
      <trkpt lat="45.28872" lon="6.66169">
        <ele>2432.75</ele>
        <time>2019-09-12T09:40:38Z</time>
      </trkpt>
      <trkpt lat="45.28868" lon="6.66144">
        <ele>2435.16</ele>
        <time>2019-09-12T09:40:58Z</time>
      </trkpt>
      <trkpt lat="45.28867" lon="6.66129">
        <ele>2438.04</ele>
        <time>2019-09-12T09:41:15Z</time>
      </trkpt>
      <trkpt lat="45.28865" lon="6.6612">
        <ele>2439.48</ele>
        <time>2019-09-12T09:41:30Z</time>
      </trkpt>
      <trkpt lat="45.28862" lon="6.66109">
        <ele>2442.85</ele>
        <time>2019-09-12T09:41:53Z</time>
      </trkpt>
      <trkpt lat="45.28861" lon="6.66098">
        <ele>2443.33</ele>
        <time>2019-09-12T09:42:05Z</time>
      </trkpt>
      <trkpt lat="45.28862" lon="6.66093">
        <ele>2443.81</ele>
        <time>2019-09-12T09:42:09Z</time>
      </trkpt>
      <trkpt lat="45.28864" lon="6.66091">
        <ele>2443.81</ele>
        <time>2019-09-12T09:42:11Z</time>
      </trkpt>
      <trkpt lat="45.28864" lon="6.66071">
        <ele>2446.69</ele>
        <time>2019-09-12T09:42:27Z</time>
      </trkpt>
      <trkpt lat="45.28872" lon="6.66061">
        <ele>2450.06</ele>
        <time>2019-09-12T09:42:41Z</time>
      </trkpt>
      <trkpt lat="45.28883" lon="6.66047">
        <ele>2453.42</ele>
        <time>2019-09-12T09:42:59Z</time>
      </trkpt>
      <trkpt lat="45.28893" lon="6.66031">
        <ele>2455.82</ele>
        <time>2019-09-12T09:43:17Z</time>
      </trkpt>
      <trkpt lat="45.28894" lon="6.6603">
        <ele>2456.31</ele>
        <time>2019-09-12T09:43:18Z</time>
      </trkpt>
      <trkpt lat="45.28906" lon="6.66016">
        <ele>2461.11</ele>
        <time>2019-09-12T09:43:36Z</time>
      </trkpt>
      <trkpt lat="45.28911" lon="6.66001">
        <ele>2461.11</ele>
        <time>2019-09-12T09:43:49Z</time>
      </trkpt>
      <trkpt lat="45.28911" lon="6.65992">
        <ele>2460.63</ele>
        <time>2019-09-12T09:43:54Z</time>
      </trkpt>
      <trkpt lat="45.28913" lon="6.65991">
        <ele>2460.15</ele>
        <time>2019-09-12T09:43:56Z</time>
      </trkpt>
      <trkpt lat="45.28917" lon="6.65988">
        <ele>2460.15</ele>
        <time>2019-09-12T09:44:00Z</time>
      </trkpt>
      <trkpt lat="45.28922" lon="6.65978">
        <ele>2462.07</ele>
        <time>2019-09-12T09:44:12Z</time>
      </trkpt>
      <trkpt lat="45.28914" lon="6.65959">
        <ele>2465.92</ele>
        <time>2019-09-12T09:44:29Z</time>
      </trkpt>
      <trkpt lat="45.28911" lon="6.65947">
        <ele>2467.36</ele>
        <time>2019-09-12T09:44:47Z</time>
      </trkpt>
      <trkpt lat="45.28915" lon="6.65937">
        <ele>2467.36</ele>
        <time>2019-09-12T09:45:02Z</time>
      </trkpt>
      <trkpt lat="45.28919" lon="6.65936">
        <ele>2467.36</ele>
        <time>2019-09-12T09:45:06Z</time>
      </trkpt>
      <trkpt lat="45.28927" lon="6.65933">
        <ele>2470.73</ele>
        <time>2019-09-12T09:45:21Z</time>
      </trkpt>
      <trkpt lat="45.28926" lon="6.65931">
        <ele>2470.73</ele>
        <time>2019-09-12T09:45:23Z</time>
      </trkpt>
      <trkpt lat="45.28923" lon="6.65927">
        <ele>2470.73</ele>
        <time>2019-09-12T09:45:27Z</time>
      </trkpt>
      <trkpt lat="45.28922" lon="6.6592">
        <ele>2472.17</ele>
        <time>2019-09-12T09:45:47Z</time>
      </trkpt>
      <trkpt lat="45.28926" lon="6.65925">
        <ele>2474.57</ele>
        <time>2019-09-12T09:46:15Z</time>
      </trkpt>
      <trkpt lat="45.28932" lon="6.6592">
        <ele>2478.9</ele>
        <time>2019-09-12T09:46:36Z</time>
      </trkpt>
      <trkpt lat="45.28931" lon="6.65916">
        <ele>2479.86</ele>
        <time>2019-09-12T09:47:10Z</time>
      </trkpt>
      <trkpt lat="45.28932" lon="6.65921">
        <ele>2479.38</ele>
        <time>2019-09-12T09:47:53Z</time>
      </trkpt>
      <trkpt lat="45.28927" lon="6.65928">
        <ele>2478.42</ele>
        <time>2019-09-12T09:48:33Z</time>
      </trkpt>
      <trkpt lat="45.28926" lon="6.65929">
        <ele>2478.42</ele>
        <time>2019-09-12T09:49:45Z</time>
      </trkpt>
      <trkpt lat="45.28924" lon="6.65923">
        <ele>2478.42</ele>
        <time>2019-09-12T09:50:18Z</time>
      </trkpt>
      <trkpt lat="45.28926" lon="6.6592">
        <ele>2478.42</ele>
        <time>2019-09-12T09:50:22Z</time>
      </trkpt>
      <trkpt lat="45.28929" lon="6.65927">
        <ele>2463.04</ele>
        <time>2019-09-12T09:59:28Z</time>
      </trkpt>
      <trkpt lat="45.28924" lon="6.65919">
        <ele>2468.32</ele>
        <time>2019-09-12T09:59:42Z</time>
      </trkpt>
      <trkpt lat="45.28924" lon="6.65917">
        <ele>2462.07</ele>
        <time>2019-09-12T10:00:00Z</time>
      </trkpt>
      <trkpt lat="45.28924" lon="6.65915">
        <ele>2466.4</ele>
        <time>2019-09-12T10:00:30Z</time>
      </trkpt>
      <trkpt lat="45.28924" lon="6.65914">
        <ele>2468.32</ele>
        <time>2019-09-12T10:01:23Z</time>
      </trkpt>
      <trkpt lat="45.28924" lon="6.65914">
        <ele>2468.32</ele>
        <time>2019-09-12T10:01:53Z</time>
      </trkpt>
      <trkpt lat="45.28925" lon="6.65926">
        <ele>2471.21</ele>
        <time>2019-09-12T10:02:15Z</time>
      </trkpt>
      <trkpt lat="45.28926" lon="6.65928">
        <ele>2471.69</ele>
        <time>2019-09-12T10:02:17Z</time>
      </trkpt>
      <trkpt lat="45.28936" lon="6.65937">
        <ele>2471.69</ele>
        <time>2019-09-12T10:02:35Z</time>
      </trkpt>
      <trkpt lat="45.2894" lon="6.65934">
        <ele>2472.65</ele>
        <time>2019-09-12T10:02:42Z</time>
      </trkpt>
      <trkpt lat="45.28957" lon="6.65936">
        <ele>2475.53</ele>
        <time>2019-09-12T10:02:59Z</time>
      </trkpt>
      <trkpt lat="45.28963" lon="6.6594">
        <ele>2476.49</ele>
        <time>2019-09-12T10:03:05Z</time>
      </trkpt>
      <trkpt lat="45.28965" lon="6.65941">
        <ele>2476.49</ele>
        <time>2019-09-12T10:03:07Z</time>
      </trkpt>
      <trkpt lat="45.28972" lon="6.65944">
        <ele>2476.49</ele>
        <time>2019-09-12T10:03:16Z</time>
      </trkpt>
      <trkpt lat="45.28977" lon="6.65946">
        <ele>2478.42</ele>
        <time>2019-09-12T10:03:39Z</time>
      </trkpt>
      <trkpt lat="45.28986" lon="6.65948">
        <ele>2481.78</ele>
        <time>2019-09-12T10:03:54Z</time>
      </trkpt>
      <trkpt lat="45.28987" lon="6.65948">
        <ele>2481.78</ele>
        <time>2019-09-12T10:03:55Z</time>
      </trkpt>
      <trkpt lat="45.29" lon="6.6595">
        <ele>2485.15</ele>
        <time>2019-09-12T10:04:11Z</time>
      </trkpt>
      <trkpt lat="45.29006" lon="6.65951">
        <ele>2485.15</ele>
        <time>2019-09-12T10:04:18Z</time>
      </trkpt>
      <trkpt lat="45.29014" lon="6.65947">
        <ele>2487.07</ele>
        <time>2019-09-12T10:04:29Z</time>
      </trkpt>
      <trkpt lat="45.29023" lon="6.65934">
        <ele>2488.99</ele>
        <time>2019-09-12T10:04:47Z</time>
      </trkpt>
      <trkpt lat="45.29024" lon="6.65931">
        <ele>2488.99</ele>
        <time>2019-09-12T10:05:11Z</time>
      </trkpt>
      <trkpt lat="45.2903" lon="6.65917">
        <ele>2487.55</ele>
        <time>2019-09-12T10:05:24Z</time>
      </trkpt>
      <trkpt lat="45.29032" lon="6.65905">
        <ele>2488.03</ele>
        <time>2019-09-12T10:05:35Z</time>
      </trkpt>
      <trkpt lat="45.29033" lon="6.65904">
        <ele>2488.03</ele>
        <time>2019-09-12T10:05:37Z</time>
      </trkpt>
      <trkpt lat="45.29038" lon="6.65897">
        <ele>2488.03</ele>
        <time>2019-09-12T10:05:45Z</time>
      </trkpt>
      <trkpt lat="45.29042" lon="6.65891">
        <ele>2488.03</ele>
        <time>2019-09-12T10:05:52Z</time>
      </trkpt>
      <trkpt lat="45.29045" lon="6.6588">
        <ele>2488.03</ele>
        <time>2019-09-12T10:06:00Z</time>
      </trkpt>
      <trkpt lat="45.29047" lon="6.65878">
        <ele>2488.03</ele>
        <time>2019-09-12T10:06:03Z</time>
      </trkpt>
      <trkpt lat="45.29052" lon="6.65876">
        <ele>2488.51</ele>
        <time>2019-09-12T10:06:09Z</time>
      </trkpt>
      <trkpt lat="45.29057" lon="6.65865">
        <ele>2489.47</ele>
        <time>2019-09-12T10:06:19Z</time>
      </trkpt>
      <trkpt lat="45.2906" lon="6.65858">
        <ele>2489.95</ele>
        <time>2019-09-12T10:06:26Z</time>
      </trkpt>
      <trkpt lat="45.29061" lon="6.65853">
        <ele>2489.95</ele>
        <time>2019-09-12T10:06:29Z</time>
      </trkpt>
      <trkpt lat="45.29064" lon="6.65847">
        <ele>2490.91</ele>
        <time>2019-09-12T10:06:35Z</time>
      </trkpt>
      <trkpt lat="45.29073" lon="6.65831">
        <ele>2493.8</ele>
        <time>2019-09-12T10:06:55Z</time>
      </trkpt>
      <trkpt lat="45.29078" lon="6.65819">
        <ele>2494.28</ele>
        <time>2019-09-12T10:07:05Z</time>
      </trkpt>
      <trkpt lat="45.29083" lon="6.6581">
        <ele>2494.28</ele>
        <time>2019-09-12T10:07:18Z</time>
      </trkpt>
      <trkpt lat="45.29085" lon="6.65803">
        <ele>2495.24</ele>
        <time>2019-09-12T10:07:25Z</time>
      </trkpt>
      <trkpt lat="45.2909" lon="6.65781">
        <ele>2494.28</ele>
        <time>2019-09-12T10:07:44Z</time>
      </trkpt>
      <trkpt lat="45.29093" lon="6.65778">
        <ele>2494.28</ele>
        <time>2019-09-12T10:07:50Z</time>
      </trkpt>
      <trkpt lat="45.29096" lon="6.65778">
        <ele>2494.28</ele>
        <time>2019-09-12T10:07:56Z</time>
      </trkpt>
      <trkpt lat="45.29109" lon="6.65765">
        <ele>2496.2</ele>
        <time>2019-09-12T10:08:13Z</time>
      </trkpt>
      <trkpt lat="45.2911" lon="6.65762">
        <ele>2497.16</ele>
        <time>2019-09-12T10:08:19Z</time>
      </trkpt>
      <trkpt lat="45.29114" lon="6.65751">
        <ele>2498.6</ele>
        <time>2019-09-12T10:08:29Z</time>
      </trkpt>
      <trkpt lat="45.29126" lon="6.65735">
        <ele>2497.64</ele>
        <time>2019-09-12T10:08:44Z</time>
      </trkpt>
      <trkpt lat="45.29126" lon="6.65731">
        <ele>2497.64</ele>
        <time>2019-09-12T10:08:47Z</time>
      </trkpt>
      <trkpt lat="45.29127" lon="6.65729">
        <ele>2497.64</ele>
        <time>2019-09-12T10:08:49Z</time>
      </trkpt>
      <trkpt lat="45.29144" lon="6.65724">
        <ele>2497.16</ele>
        <time>2019-09-12T10:09:06Z</time>
      </trkpt>
      <trkpt lat="45.2915" lon="6.65715">
        <ele>2496.68</ele>
        <time>2019-09-12T10:09:14Z</time>
      </trkpt>
      <trkpt lat="45.29155" lon="6.65712">
        <ele>2496.2</ele>
        <time>2019-09-12T10:09:19Z</time>
      </trkpt>
      <trkpt lat="45.29158" lon="6.65706">
        <ele>2495.72</ele>
        <time>2019-09-12T10:09:24Z</time>
      </trkpt>
      <trkpt lat="45.29164" lon="6.65699">
        <ele>2494.28</ele>
        <time>2019-09-12T10:09:31Z</time>
      </trkpt>
      <trkpt lat="45.29168" lon="6.65693">
        <ele>2495.24</ele>
        <time>2019-09-12T10:09:37Z</time>
      </trkpt>
      <trkpt lat="45.29171" lon="6.65684">
        <ele>2496.2</ele>
        <time>2019-09-12T10:09:44Z</time>
      </trkpt>
      <trkpt lat="45.29175" lon="6.65683">
        <ele>2495.72</ele>
        <time>2019-09-12T10:10:08Z</time>
      </trkpt>
      <trkpt lat="45.2918" lon="6.65676">
        <ele>2495.24</ele>
        <time>2019-09-12T10:11:00Z</time>
      </trkpt>
      <trkpt lat="45.29183" lon="6.65674">
        <ele>2495.24</ele>
        <time>2019-09-12T10:11:29Z</time>
      </trkpt>
      <trkpt lat="45.29188" lon="6.65668">
        <ele>2495.24</ele>
        <time>2019-09-12T10:11:36Z</time>
      </trkpt>
      <trkpt lat="45.29189" lon="6.65666">
        <ele>2495.72</ele>
        <time>2019-09-12T10:11:38Z</time>
      </trkpt>
      <trkpt lat="45.29195" lon="6.65659">
        <ele>2494.76</ele>
        <time>2019-09-12T10:11:50Z</time>
      </trkpt>
      <trkpt lat="45.29196" lon="6.65656">
        <ele>2494.76</ele>
        <time>2019-09-12T10:11:52Z</time>
      </trkpt>
      <trkpt lat="45.29199" lon="6.65654">
        <ele>2494.28</ele>
        <time>2019-09-12T10:11:55Z</time>
      </trkpt>
      <trkpt lat="45.29204" lon="6.65646">
        <ele>2493.8</ele>
        <time>2019-09-12T10:12:01Z</time>
      </trkpt>
      <trkpt lat="45.29216" lon="6.6563">
        <ele>2493.32</ele>
        <time>2019-09-12T10:12:18Z</time>
      </trkpt>
      <trkpt lat="45.29233" lon="6.65614">
        <ele>2491.39</ele>
        <time>2019-09-12T10:12:36Z</time>
      </trkpt>
      <trkpt lat="45.29237" lon="6.65611">
        <ele>2491.39</ele>
        <time>2019-09-12T10:12:39Z</time>
      </trkpt>
      <trkpt lat="45.29242" lon="6.65607">
        <ele>2490.91</ele>
        <time>2019-09-12T10:12:44Z</time>
      </trkpt>
      <trkpt lat="45.29245" lon="6.65602">
        <ele>2490.43</ele>
        <time>2019-09-12T10:12:48Z</time>
      </trkpt>
      <trkpt lat="45.2925" lon="6.65597">
        <ele>2489.95</ele>
        <time>2019-09-12T10:12:53Z</time>
      </trkpt>
      <trkpt lat="45.29254" lon="6.65596">
        <ele>2489.47</ele>
        <time>2019-09-12T10:12:57Z</time>
      </trkpt>
      <trkpt lat="45.29262" lon="6.65593">
        <ele>2489.47</ele>
        <time>2019-09-12T10:13:04Z</time>
      </trkpt>
      <trkpt lat="45.2927" lon="6.65585">
        <ele>2488.99</ele>
        <time>2019-09-12T10:13:14Z</time>
      </trkpt>
      <trkpt lat="45.29275" lon="6.65583">
        <ele>2487.55</ele>
        <time>2019-09-12T10:13:19Z</time>
      </trkpt>
      <trkpt lat="45.29283" lon="6.65582">
        <ele>2487.55</ele>
        <time>2019-09-12T10:13:38Z</time>
      </trkpt>
      <trkpt lat="45.2929" lon="6.65572">
        <ele>2487.55</ele>
        <time>2019-09-12T10:13:55Z</time>
      </trkpt>
      <trkpt lat="45.29299" lon="6.65569">
        <ele>2484.66</ele>
        <time>2019-09-12T10:14:12Z</time>
      </trkpt>
      <trkpt lat="45.293" lon="6.65569">
        <ele>2485.15</ele>
        <time>2019-09-12T10:14:40Z</time>
      </trkpt>
      <trkpt lat="45.293" lon="6.65571">
        <ele>2484.66</ele>
        <time>2019-09-12T10:15:00Z</time>
      </trkpt>
      <trkpt lat="45.293" lon="6.65567">
        <ele>2483.7</ele>
        <time>2019-09-12T10:15:15Z</time>
      </trkpt>
      <trkpt lat="45.293" lon="6.65567">
        <ele>2484.18</ele>
        <time>2019-09-12T10:15:16Z</time>
      </trkpt>
      <trkpt lat="45.29305" lon="6.65555">
        <ele>2484.18</ele>
        <time>2019-09-12T10:15:32Z</time>
      </trkpt>
      <trkpt lat="45.29303" lon="6.65552">
        <ele>2480.34</ele>
        <time>2019-09-12T10:15:46Z</time>
      </trkpt>
      <trkpt lat="45.29303" lon="6.65552">
        <ele>2479.86</ele>
        <time>2019-09-12T10:17:10Z</time>
      </trkpt>
      <trkpt lat="45.29304" lon="6.65551">
        <ele>2483.7</ele>
        <time>2019-09-12T10:40:25Z</time>
      </trkpt>
      <trkpt lat="45.29306" lon="6.65551">
        <ele>2483.22</ele>
        <time>2019-09-12T10:40:45Z</time>
      </trkpt>
      <trkpt lat="45.29307" lon="6.65553">
        <ele>2481.78</ele>
        <time>2019-09-12T10:41:17Z</time>
      </trkpt>
      <trkpt lat="45.29307" lon="6.65554">
        <ele>2481.78</ele>
        <time>2019-09-12T10:42:55Z</time>
      </trkpt>
      <trkpt lat="45.29306" lon="6.65555">
        <ele>2482.26</ele>
        <time>2019-09-12T10:45:07Z</time>
      </trkpt>
      <trkpt lat="45.29306" lon="6.65554">
        <ele>2482.74</ele>
        <time>2019-09-12T10:47:12Z</time>
      </trkpt>
      <trkpt lat="45.29307" lon="6.65553">
        <ele>2482.74</ele>
        <time>2019-09-12T10:48:18Z</time>
      </trkpt>
      <trkpt lat="45.29307" lon="6.65555">
        <ele>2482.74</ele>
        <time>2019-09-12T10:49:22Z</time>
      </trkpt>
      <trkpt lat="45.29307" lon="6.65556">
        <ele>2483.22</ele>
        <time>2019-09-12T10:50:55Z</time>
      </trkpt>
      <trkpt lat="45.29306" lon="6.65557">
        <ele>2483.22</ele>
        <time>2019-09-12T10:51:58Z</time>
      </trkpt>
      <trkpt lat="45.29307" lon="6.65559">
        <ele>2483.22</ele>
        <time>2019-09-12T10:52:58Z</time>
      </trkpt>
      <trkpt lat="45.29307" lon="6.65558">
        <ele>2483.22</ele>
        <time>2019-09-12T10:54:03Z</time>
      </trkpt>
      <trkpt lat="45.29306" lon="6.65558">
        <ele>2482.74</ele>
        <time>2019-09-12T10:55:21Z</time>
      </trkpt>
      <trkpt lat="45.29304" lon="6.65556">
        <ele>2484.66</ele>
        <time>2019-09-12T10:56:02Z</time>
      </trkpt>
      <trkpt lat="45.29301" lon="6.65558">
        <ele>2485.15</ele>
        <time>2019-09-12T10:56:29Z</time>
      </trkpt>
      <trkpt lat="45.29296" lon="6.6556">
        <ele>2486.11</ele>
        <time>2019-09-12T10:56:58Z</time>
      </trkpt>
      <trkpt lat="45.29292" lon="6.65572">
        <ele>2487.07</ele>
        <time>2019-09-12T10:57:15Z</time>
      </trkpt>
      <trkpt lat="45.2929" lon="6.6558">
        <ele>2487.55</ele>
        <time>2019-09-12T10:57:28Z</time>
      </trkpt>
      <trkpt lat="45.29281" lon="6.65586">
        <ele>2488.51</ele>
        <time>2019-09-12T10:57:43Z</time>
      </trkpt>
      <trkpt lat="45.29275" lon="6.65588">
        <ele>2488.51</ele>
        <time>2019-09-12T10:57:52Z</time>
      </trkpt>
      <trkpt lat="45.29267" lon="6.6559">
        <ele>2489.47</ele>
        <time>2019-09-12T10:58:02Z</time>
      </trkpt>
      <trkpt lat="45.29259" lon="6.65597">
        <ele>2489.95</ele>
        <time>2019-09-12T10:58:15Z</time>
      </trkpt>
      <trkpt lat="45.2925" lon="6.65601">
        <ele>2489.47</ele>
        <time>2019-09-12T10:58:28Z</time>
      </trkpt>
      <trkpt lat="45.29247" lon="6.65605">
        <ele>2489.47</ele>
        <time>2019-09-12T10:58:35Z</time>
      </trkpt>
      <trkpt lat="45.29239" lon="6.65613">
        <ele>2489.95</ele>
        <time>2019-09-12T10:58:45Z</time>
      </trkpt>
      <trkpt lat="45.29237" lon="6.65614">
        <ele>2489.95</ele>
        <time>2019-09-12T10:58:47Z</time>
      </trkpt>
      <trkpt lat="45.29233" lon="6.65616">
        <ele>2489.47</ele>
        <time>2019-09-12T10:58:52Z</time>
      </trkpt>
      <trkpt lat="45.29229" lon="6.65619">
        <ele>2489.47</ele>
        <time>2019-09-12T10:58:58Z</time>
      </trkpt>
      <trkpt lat="45.29226" lon="6.65622">
        <ele>2490.43</ele>
        <time>2019-09-12T10:59:02Z</time>
      </trkpt>
      <trkpt lat="45.29216" lon="6.65633">
        <ele>2491.87</ele>
        <time>2019-09-12T10:59:18Z</time>
      </trkpt>
      <trkpt lat="45.29205" lon="6.65645">
        <ele>2492.84</ele>
        <time>2019-09-12T10:59:36Z</time>
      </trkpt>
      <trkpt lat="45.29197" lon="6.6566">
        <ele>2494.28</ele>
        <time>2019-09-12T10:59:52Z</time>
      </trkpt>
      <trkpt lat="45.29187" lon="6.65672">
        <ele>2494.28</ele>
        <time>2019-09-12T11:00:09Z</time>
      </trkpt>
      <trkpt lat="45.29175" lon="6.65685">
        <ele>2495.24</ele>
        <time>2019-09-12T11:00:26Z</time>
      </trkpt>
      <trkpt lat="45.29174" lon="6.65688">
        <ele>2494.76</ele>
        <time>2019-09-12T11:00:29Z</time>
      </trkpt>
      <trkpt lat="45.2917" lon="6.65695">
        <ele>2495.72</ele>
        <time>2019-09-12T11:00:54Z</time>
      </trkpt>
      <trkpt lat="45.2917" lon="6.65695">
        <ele>2496.2</ele>
        <time>2019-09-12T11:02:05Z</time>
      </trkpt>
      <trkpt lat="45.2917" lon="6.65696">
        <ele>2497.16</ele>
        <time>2019-09-12T11:03:25Z</time>
      </trkpt>
      <trkpt lat="45.29171" lon="6.65693">
        <ele>2498.12</ele>
        <time>2019-09-12T11:03:45Z</time>
      </trkpt>
      <trkpt lat="45.29171" lon="6.65693">
        <ele>2498.12</ele>
        <time>2019-09-12T11:04:44Z</time>
      </trkpt>
      <trkpt lat="45.2917" lon="6.65693">
        <ele>2497.64</ele>
        <time>2019-09-12T11:05:33Z</time>
      </trkpt>
      <trkpt lat="45.29169" lon="6.65695">
        <ele>2497.16</ele>
        <time>2019-09-12T11:06:06Z</time>
      </trkpt>
      <trkpt lat="45.29165" lon="6.65702">
        <ele>2495.72</ele>
        <time>2019-09-12T11:06:25Z</time>
      </trkpt>
      <trkpt lat="45.29164" lon="6.65703">
        <ele>2495.24</ele>
        <time>2019-09-12T11:06:26Z</time>
      </trkpt>
      <trkpt lat="45.29158" lon="6.65711">
        <ele>2494.76</ele>
        <time>2019-09-12T11:06:36Z</time>
      </trkpt>
      <trkpt lat="45.29155" lon="6.65714">
        <ele>2494.76</ele>
        <time>2019-09-12T11:06:40Z</time>
      </trkpt>
      <trkpt lat="45.29154" lon="6.65716">
        <ele>2495.24</ele>
        <time>2019-09-12T11:06:42Z</time>
      </trkpt>
      <trkpt lat="45.2915" lon="6.6572">
        <ele>2496.2</ele>
        <time>2019-09-12T11:06:47Z</time>
      </trkpt>
      <trkpt lat="45.29148" lon="6.65722">
        <ele>2496.2</ele>
        <time>2019-09-12T11:06:49Z</time>
      </trkpt>
      <trkpt lat="45.29145" lon="6.65725">
        <ele>2496.2</ele>
        <time>2019-09-12T11:07:02Z</time>
      </trkpt>
      <trkpt lat="45.29139" lon="6.65728">
        <ele>2497.16</ele>
        <time>2019-09-12T11:07:10Z</time>
      </trkpt>
      <trkpt lat="45.29129" lon="6.65736">
        <ele>2498.12</ele>
        <time>2019-09-12T11:07:22Z</time>
      </trkpt>
      <trkpt lat="45.29128" lon="6.65741">
        <ele>2499.08</ele>
        <time>2019-09-12T11:07:43Z</time>
      </trkpt>
      <trkpt lat="45.29122" lon="6.65748">
        <ele>2497.16</ele>
        <time>2019-09-12T11:08:01Z</time>
      </trkpt>
      <trkpt lat="45.29119" lon="6.6575">
        <ele>2498.6</ele>
        <time>2019-09-12T11:08:16Z</time>
      </trkpt>
      <trkpt lat="45.29116" lon="6.65756">
        <ele>2498.12</ele>
        <time>2019-09-12T11:08:21Z</time>
      </trkpt>
      <trkpt lat="45.29115" lon="6.65759">
        <ele>2498.12</ele>
        <time>2019-09-12T11:08:45Z</time>
      </trkpt>
      <trkpt lat="45.29109" lon="6.65765">
        <ele>2496.68</ele>
        <time>2019-09-12T11:09:52Z</time>
      </trkpt>
      <trkpt lat="45.29096" lon="6.65777">
        <ele>2490.43</ele>
        <time>2019-09-12T11:10:10Z</time>
      </trkpt>
      <trkpt lat="45.29096" lon="6.6578">
        <ele>2490.91</ele>
        <time>2019-09-12T11:10:13Z</time>
      </trkpt>
      <trkpt lat="45.29095" lon="6.65783">
        <ele>2490.91</ele>
        <time>2019-09-12T11:10:17Z</time>
      </trkpt>
      <trkpt lat="45.29088" lon="6.65801">
        <ele>2493.32</ele>
        <time>2019-09-12T11:10:30Z</time>
      </trkpt>
      <trkpt lat="45.29084" lon="6.65807">
        <ele>2494.28</ele>
        <time>2019-09-12T11:10:35Z</time>
      </trkpt>
      <trkpt lat="45.29083" lon="6.65812">
        <ele>2495.24</ele>
        <time>2019-09-12T11:10:39Z</time>
      </trkpt>
      <trkpt lat="45.2908" lon="6.65817">
        <ele>2495.24</ele>
        <time>2019-09-12T11:10:44Z</time>
      </trkpt>
      <trkpt lat="45.29067" lon="6.65841">
        <ele>2492.84</ele>
        <time>2019-09-12T11:11:04Z</time>
      </trkpt>
      <trkpt lat="45.29063" lon="6.65851">
        <ele>2490.91</ele>
        <time>2019-09-12T11:11:12Z</time>
      </trkpt>
      <trkpt lat="45.29053" lon="6.65874">
        <ele>2491.87</ele>
        <time>2019-09-12T11:11:30Z</time>
      </trkpt>
      <trkpt lat="45.29045" lon="6.65885">
        <ele>2490.91</ele>
        <time>2019-09-12T11:11:41Z</time>
      </trkpt>
      <trkpt lat="45.2904" lon="6.65896">
        <ele>2488.99</ele>
        <time>2019-09-12T11:11:51Z</time>
      </trkpt>
      <trkpt lat="45.29029" lon="6.65913">
        <ele>2488.03</ele>
        <time>2019-09-12T11:12:09Z</time>
      </trkpt>
      <trkpt lat="45.29027" lon="6.65922">
        <ele>2488.03</ele>
        <time>2019-09-12T11:12:15Z</time>
      </trkpt>
      <trkpt lat="45.29024" lon="6.65931">
        <ele>2488.51</ele>
        <time>2019-09-12T11:12:22Z</time>
      </trkpt>
      <trkpt lat="45.29023" lon="6.65934">
        <ele>2488.03</ele>
        <time>2019-09-12T11:12:24Z</time>
      </trkpt>
      <trkpt lat="45.2902" lon="6.65941">
        <ele>2487.55</ele>
        <time>2019-09-12T11:12:30Z</time>
      </trkpt>
      <trkpt lat="45.29018" lon="6.65942">
        <ele>2487.07</ele>
        <time>2019-09-12T11:12:32Z</time>
      </trkpt>
      <trkpt lat="45.29011" lon="6.65949">
        <ele>2485.63</ele>
        <time>2019-09-12T11:12:41Z</time>
      </trkpt>
      <trkpt lat="45.29006" lon="6.65951">
        <ele>2485.15</ele>
        <time>2019-09-12T11:12:46Z</time>
      </trkpt>
      <trkpt lat="45.28995" lon="6.65951">
        <ele>2482.74</ele>
        <time>2019-09-12T11:13:04Z</time>
      </trkpt>
      <trkpt lat="45.28993" lon="6.6595">
        <ele>2482.26</ele>
        <time>2019-09-12T11:13:06Z</time>
      </trkpt>
      <trkpt lat="45.28989" lon="6.65948">
        <ele>2481.78</ele>
        <time>2019-09-12T11:13:11Z</time>
      </trkpt>
      <trkpt lat="45.28974" lon="6.65943">
        <ele>2477.94</ele>
        <time>2019-09-12T11:13:29Z</time>
      </trkpt>
      <trkpt lat="45.28967" lon="6.65944">
        <ele>2476.01</ele>
        <time>2019-09-12T11:13:36Z</time>
      </trkpt>
      <trkpt lat="45.28947" lon="6.65933">
        <ele>2474.57</ele>
        <time>2019-09-12T11:13:56Z</time>
      </trkpt>
      <trkpt lat="45.2894" lon="6.6593">
        <ele>2473.13</ele>
        <time>2019-09-12T11:14:14Z</time>
      </trkpt>
      <trkpt lat="45.2894" lon="6.6593">
        <ele>2473.13</ele>
        <time>2019-09-12T11:14:18Z</time>
      </trkpt>
      <trkpt lat="45.28933" lon="6.65933">
        <ele>2469.76</ele>
        <time>2019-09-12T11:14:35Z</time>
      </trkpt>
      <trkpt lat="45.28933" lon="6.65933">
        <ele>2469.76</ele>
        <time>2019-09-12T11:14:38Z</time>
      </trkpt>
      <trkpt lat="45.28923" lon="6.65922">
        <ele>2470.24</ele>
        <time>2019-09-12T11:14:54Z</time>
      </trkpt>
      <trkpt lat="45.28922" lon="6.6592">
        <ele>2471.69</ele>
        <time>2019-09-12T11:15:10Z</time>
      </trkpt>
      <trkpt lat="45.28922" lon="6.65922">
        <ele>2471.69</ele>
        <time>2019-09-12T11:16:11Z</time>
      </trkpt>
      <trkpt lat="45.28922" lon="6.65922">
        <ele>2471.21</ele>
        <time>2019-09-12T11:17:35Z</time>
      </trkpt>
      <trkpt lat="45.28922" lon="6.65921">
        <ele>2470.73</ele>
        <time>2019-09-12T11:28:05Z</time>
      </trkpt>
      <trkpt lat="45.28921" lon="6.65921">
        <ele>2470.24</ele>
        <time>2019-09-12T11:29:38Z</time>
      </trkpt>
      <trkpt lat="45.28921" lon="6.65921">
        <ele>2469.76</ele>
        <time>2019-09-12T11:33:06Z</time>
      </trkpt>
      <trkpt lat="45.2892" lon="6.65921">
        <ele>2469.76</ele>
        <time>2019-09-12T11:33:24Z</time>
      </trkpt>
      <trkpt lat="45.2892" lon="6.65921">
        <ele>2469.76</ele>
        <time>2019-09-12T11:34:06Z</time>
      </trkpt>
      <trkpt lat="45.28924" lon="6.65923">
        <ele>2468.32</ele>
        <time>2019-09-12T11:34:10Z</time>
      </trkpt>
      <trkpt lat="45.2892" lon="6.65921">
        <ele>2476.97</ele>
        <time>2019-09-12T11:35:02Z</time>
      </trkpt>
      <trkpt lat="45.28921" lon="6.65922">
        <ele>2474.09</ele>
        <time>2019-09-12T11:35:30Z</time>
      </trkpt>
      <trkpt lat="45.28926" lon="6.65924">
        <ele>2473.61</ele>
        <time>2019-09-12T11:36:10Z</time>
      </trkpt>
      <trkpt lat="45.28929" lon="6.65924">
        <ele>2475.05</ele>
        <time>2019-09-12T11:36:27Z</time>
      </trkpt>
      <trkpt lat="45.2893" lon="6.65924">
        <ele>2476.97</ele>
        <time>2019-09-12T11:37:06Z</time>
      </trkpt>
      <trkpt lat="45.28925" lon="6.65924">
        <ele>2472.65</ele>
        <time>2019-09-12T11:37:23Z</time>
      </trkpt>
      <trkpt lat="45.28923" lon="6.65923">
        <ele>2472.65</ele>
        <time>2019-09-12T11:37:37Z</time>
      </trkpt>
      <trkpt lat="45.28922" lon="6.65924">
        <ele>2473.61</ele>
        <time>2019-09-12T11:38:09Z</time>
      </trkpt>
      <trkpt lat="45.28922" lon="6.65924">
        <ele>2472.65</ele>
        <time>2019-09-12T11:38:50Z</time>
      </trkpt>
      <trkpt lat="45.28927" lon="6.65938">
        <ele>2469.28</ele>
        <time>2019-09-12T11:39:21Z</time>
      </trkpt>
      <trkpt lat="45.28921" lon="6.65937">
        <ele>2467.36</ele>
        <time>2019-09-12T11:39:30Z</time>
      </trkpt>
      <trkpt lat="45.2892" lon="6.65936">
        <ele>2467.36</ele>
        <time>2019-09-12T11:39:32Z</time>
      </trkpt>
      <trkpt lat="45.28911" lon="6.65946">
        <ele>2464.48</ele>
        <time>2019-09-12T11:39:47Z</time>
      </trkpt>
      <trkpt lat="45.28912" lon="6.6595">
        <ele>2464</ele>
        <time>2019-09-12T11:39:50Z</time>
      </trkpt>
      <trkpt lat="45.28915" lon="6.6596">
        <ele>2463.04</ele>
        <time>2019-09-12T11:39:58Z</time>
      </trkpt>
      <trkpt lat="45.28917" lon="6.65962">
        <ele>2463.04</ele>
        <time>2019-09-12T11:40:00Z</time>
      </trkpt>
      <trkpt lat="45.2892" lon="6.65971">
        <ele>2461.59</ele>
        <time>2019-09-12T11:40:09Z</time>
      </trkpt>
      <trkpt lat="45.28924" lon="6.65979">
        <ele>2460.15</ele>
        <time>2019-09-12T11:40:18Z</time>
      </trkpt>
      <trkpt lat="45.28926" lon="6.65986">
        <ele>2459.67</ele>
        <time>2019-09-12T11:40:23Z</time>
      </trkpt>
      <trkpt lat="45.28925" lon="6.65988">
        <ele>2458.71</ele>
        <time>2019-09-12T11:40:25Z</time>
      </trkpt>
      <trkpt lat="45.28919" lon="6.65989">
        <ele>2457.27</ele>
        <time>2019-09-12T11:40:31Z</time>
      </trkpt>
      <trkpt lat="45.28916" lon="6.65988">
        <ele>2458.23</ele>
        <time>2019-09-12T11:40:34Z</time>
      </trkpt>
      <trkpt lat="45.28915" lon="6.65991">
        <ele>2457.75</ele>
        <time>2019-09-12T11:40:37Z</time>
      </trkpt>
      <trkpt lat="45.28913" lon="6.66009">
        <ele>2458.71</ele>
        <time>2019-09-12T11:40:50Z</time>
      </trkpt>
      <trkpt lat="45.28898" lon="6.6603">
        <ele>2455.34</ele>
        <time>2019-09-12T11:41:09Z</time>
      </trkpt>
      <trkpt lat="45.28894" lon="6.66033">
        <ele>2453.42</ele>
        <time>2019-09-12T11:41:14Z</time>
      </trkpt>
      <trkpt lat="45.2888" lon="6.66055">
        <ele>2447.65</ele>
        <time>2019-09-12T11:41:37Z</time>
      </trkpt>
      <trkpt lat="45.28869" lon="6.66068">
        <ele>2444.77</ele>
        <time>2019-09-12T11:41:56Z</time>
      </trkpt>
      <trkpt lat="45.28868" lon="6.66078">
        <ele>2442.37</ele>
        <time>2019-09-12T11:42:05Z</time>
      </trkpt>
      <trkpt lat="45.28868" lon="6.66082">
        <ele>2441.89</ele>
        <time>2019-09-12T11:42:07Z</time>
      </trkpt>
      <trkpt lat="45.28867" lon="6.66085">
        <ele>2441.89</ele>
        <time>2019-09-12T11:42:09Z</time>
      </trkpt>
      <trkpt lat="45.28867" lon="6.66088">
        <ele>2440.92</ele>
        <time>2019-09-12T11:42:11Z</time>
      </trkpt>
      <trkpt lat="45.28864" lon="6.66095">
        <ele>2440.92</ele>
        <time>2019-09-12T11:42:16Z</time>
      </trkpt>
      <trkpt lat="45.28862" lon="6.661">
        <ele>2441.41</ele>
        <time>2019-09-12T11:42:19Z</time>
      </trkpt>
      <trkpt lat="45.28865" lon="6.66115">
        <ele>2439</ele>
        <time>2019-09-12T11:42:32Z</time>
      </trkpt>
      <trkpt lat="45.2887" lon="6.66133">
        <ele>2433.71</ele>
        <time>2019-09-12T11:42:51Z</time>
      </trkpt>
      <trkpt lat="45.28871" lon="6.66137">
        <ele>2433.23</ele>
        <time>2019-09-12T11:42:54Z</time>
      </trkpt>
      <trkpt lat="45.28875" lon="6.66162">
        <ele>2429.39</ele>
        <time>2019-09-12T11:43:13Z</time>
      </trkpt>
      <trkpt lat="45.28871" lon="6.66193">
        <ele>2429.87</ele>
        <time>2019-09-12T11:43:32Z</time>
      </trkpt>
      <trkpt lat="45.28869" lon="6.66217">
        <ele>2426.5</ele>
        <time>2019-09-12T11:43:50Z</time>
      </trkpt>
      <trkpt lat="45.28868" lon="6.66222">
        <ele>2427.47</ele>
        <time>2019-09-12T11:44:06Z</time>
      </trkpt>
      <trkpt lat="45.28867" lon="6.66231">
        <ele>2429.39</ele>
        <time>2019-09-12T11:44:24Z</time>
      </trkpt>
      <trkpt lat="45.28865" lon="6.66242">
        <ele>2428.91</ele>
        <time>2019-09-12T11:44:43Z</time>
      </trkpt>
      <trkpt lat="45.2886" lon="6.66257">
        <ele>2426.99</ele>
        <time>2019-09-12T11:44:58Z</time>
      </trkpt>
      <trkpt lat="45.28856" lon="6.66269">
        <ele>2426.99</ele>
        <time>2019-09-12T11:45:15Z</time>
      </trkpt>
      <trkpt lat="45.28854" lon="6.66273">
        <ele>2428.43</ele>
        <time>2019-09-12T11:46:01Z</time>
      </trkpt>
      <trkpt lat="45.28852" lon="6.66281">
        <ele>2429.39</ele>
        <time>2019-09-12T11:46:21Z</time>
      </trkpt>
      <trkpt lat="45.28849" lon="6.6629">
        <ele>2431.31</ele>
        <time>2019-09-12T11:46:31Z</time>
      </trkpt>
      <trkpt lat="45.28844" lon="6.66299">
        <ele>2430.35</ele>
        <time>2019-09-12T11:46:40Z</time>
      </trkpt>
      <trkpt lat="45.28844" lon="6.66301">
        <ele>2429.87</ele>
        <time>2019-09-12T11:46:42Z</time>
      </trkpt>
      <trkpt lat="45.28841" lon="6.66308">
        <ele>2428.91</ele>
        <time>2019-09-12T11:46:49Z</time>
      </trkpt>
      <trkpt lat="45.28838" lon="6.66327">
        <ele>2427.95</ele>
        <time>2019-09-12T11:47:08Z</time>
      </trkpt>
      <trkpt lat="45.28837" lon="6.66342">
        <ele>2429.39</ele>
        <time>2019-09-12T11:47:23Z</time>
      </trkpt>
      <trkpt lat="45.28834" lon="6.66356">
        <ele>2433.23</ele>
        <time>2019-09-12T11:47:39Z</time>
      </trkpt>
      <trkpt lat="45.28823" lon="6.66357">
        <ele>2431.79</ele>
        <time>2019-09-12T11:47:50Z</time>
      </trkpt>
      <trkpt lat="45.28819" lon="6.66359">
        <ele>2431.79</ele>
        <time>2019-09-12T11:47:54Z</time>
      </trkpt>
      <trkpt lat="45.28812" lon="6.66365">
        <ele>2432.27</ele>
        <time>2019-09-12T11:48:07Z</time>
      </trkpt>
      <trkpt lat="45.2881" lon="6.66365">
        <ele>2432.27</ele>
        <time>2019-09-12T11:48:09Z</time>
      </trkpt>
      <trkpt lat="45.28807" lon="6.66369">
        <ele>2433.71</ele>
        <time>2019-09-12T11:48:14Z</time>
      </trkpt>
      <trkpt lat="45.28795" lon="6.66377">
        <ele>2433.71</ele>
        <time>2019-09-12T11:48:30Z</time>
      </trkpt>
      <trkpt lat="45.28783" lon="6.66386">
        <ele>2431.79</ele>
        <time>2019-09-12T11:48:48Z</time>
      </trkpt>
      <trkpt lat="45.28777" lon="6.66389">
        <ele>2431.79</ele>
        <time>2019-09-12T11:48:57Z</time>
      </trkpt>
      <trkpt lat="45.28762" lon="6.66397">
        <ele>2430.83</ele>
        <time>2019-09-12T11:49:16Z</time>
      </trkpt>
      <trkpt lat="45.28751" lon="6.66396">
        <ele>2432.27</ele>
        <time>2019-09-12T11:49:32Z</time>
      </trkpt>
      <trkpt lat="45.28748" lon="6.66396">
        <ele>2433.23</ele>
        <time>2019-09-12T11:49:35Z</time>
      </trkpt>
      <trkpt lat="45.28737" lon="6.66401">
        <ele>2434.2</ele>
        <time>2019-09-12T11:49:52Z</time>
      </trkpt>
      <trkpt lat="45.28733" lon="6.66407">
        <ele>2433.23</ele>
        <time>2019-09-12T11:50:14Z</time>
      </trkpt>
      <trkpt lat="45.28723" lon="6.66412">
        <ele>2431.79</ele>
        <time>2019-09-12T11:50:29Z</time>
      </trkpt>
      <trkpt lat="45.28716" lon="6.66427">
        <ele>2429.87</ele>
        <time>2019-09-12T11:50:48Z</time>
      </trkpt>
      <trkpt lat="45.28714" lon="6.66435">
        <ele>2427.95</ele>
        <time>2019-09-12T11:50:55Z</time>
      </trkpt>
      <trkpt lat="45.28709" lon="6.6644">
        <ele>2426.99</ele>
        <time>2019-09-12T11:51:04Z</time>
      </trkpt>
      <trkpt lat="45.287" lon="6.6645">
        <ele>2427.47</ele>
        <time>2019-09-12T11:51:19Z</time>
      </trkpt>
      <trkpt lat="45.2869" lon="6.6646">
        <ele>2428.91</ele>
        <time>2019-09-12T11:51:34Z</time>
      </trkpt>
      <trkpt lat="45.28686" lon="6.66466">
        <ele>2427.95</ele>
        <time>2019-09-12T11:51:41Z</time>
      </trkpt>
      <trkpt lat="45.28678" lon="6.66477">
        <ele>2426.02</ele>
        <time>2019-09-12T11:51:56Z</time>
      </trkpt>
      <trkpt lat="45.28663" lon="6.6648">
        <ele>2425.54</ele>
        <time>2019-09-12T11:52:17Z</time>
      </trkpt>
      <trkpt lat="45.28659" lon="6.66479">
        <ele>2425.54</ele>
        <time>2019-09-12T11:52:22Z</time>
      </trkpt>
      <trkpt lat="45.28652" lon="6.66482">
        <ele>2425.54</ele>
        <time>2019-09-12T11:52:34Z</time>
      </trkpt>
      <trkpt lat="45.28648" lon="6.66485">
        <ele>2425.06</ele>
        <time>2019-09-12T11:52:40Z</time>
      </trkpt>
      <trkpt lat="45.28635" lon="6.66485">
        <ele>2424.1</ele>
        <time>2019-09-12T11:52:56Z</time>
      </trkpt>
      <trkpt lat="45.28625" lon="6.66481">
        <ele>2424.58</ele>
        <time>2019-09-12T11:53:13Z</time>
      </trkpt>
      <trkpt lat="45.28617" lon="6.66488">
        <ele>2424.1</ele>
        <time>2019-09-12T11:53:31Z</time>
      </trkpt>
      <trkpt lat="45.28614" lon="6.66489">
        <ele>2423.14</ele>
        <time>2019-09-12T11:53:36Z</time>
      </trkpt>
      <trkpt lat="45.28605" lon="6.6649">
        <ele>2420.26</ele>
        <time>2019-09-12T11:53:49Z</time>
      </trkpt>
      <trkpt lat="45.28596" lon="6.6649">
        <ele>2417.37</ele>
        <time>2019-09-12T11:54:06Z</time>
      </trkpt>
      <trkpt lat="45.28587" lon="6.66491">
        <ele>2416.89</ele>
        <time>2019-09-12T11:54:27Z</time>
      </trkpt>
      <trkpt lat="45.28585" lon="6.66491">
        <ele>2416.89</ele>
        <time>2019-09-12T11:54:29Z</time>
      </trkpt>
      <trkpt lat="45.28573" lon="6.66496">
        <ele>2415.93</ele>
        <time>2019-09-12T11:54:46Z</time>
      </trkpt>
      <trkpt lat="45.28561" lon="6.66504">
        <ele>2412.09</ele>
        <time>2019-09-12T11:55:07Z</time>
      </trkpt>
      <trkpt lat="45.28559" lon="6.66504">
        <ele>2411.6</ele>
        <time>2019-09-12T11:55:19Z</time>
      </trkpt>
      <trkpt lat="45.28558" lon="6.66505">
        <ele>2411.12</ele>
        <time>2019-09-12T11:55:21Z</time>
      </trkpt>
      <trkpt lat="45.28546" lon="6.66517">
        <ele>2407.76</ele>
        <time>2019-09-12T11:55:39Z</time>
      </trkpt>
      <trkpt lat="45.28533" lon="6.66524">
        <ele>2403.91</ele>
        <time>2019-09-12T11:55:55Z</time>
      </trkpt>
      <trkpt lat="45.28527" lon="6.66527">
        <ele>2404.88</ele>
        <time>2019-09-12T11:56:01Z</time>
      </trkpt>
      <trkpt lat="45.28515" lon="6.66539">
        <ele>2403.91</ele>
        <time>2019-09-12T11:56:19Z</time>
      </trkpt>
      <trkpt lat="45.28513" lon="6.66541">
        <ele>2403.43</ele>
        <time>2019-09-12T11:56:21Z</time>
      </trkpt>
      <trkpt lat="45.28502" lon="6.66551">
        <ele>2401.51</ele>
        <time>2019-09-12T11:56:40Z</time>
      </trkpt>
      <trkpt lat="45.28495" lon="6.66562">
        <ele>2400.55</ele>
        <time>2019-09-12T11:56:56Z</time>
      </trkpt>
      <trkpt lat="45.28493" lon="6.66562">
        <ele>2400.55</ele>
        <time>2019-09-12T11:57:00Z</time>
      </trkpt>
      <trkpt lat="45.28489" lon="6.66564">
        <ele>2400.55</ele>
        <time>2019-09-12T11:57:04Z</time>
      </trkpt>
      <trkpt lat="45.28479" lon="6.66565">
        <ele>2397.67</ele>
        <time>2019-09-12T11:57:19Z</time>
      </trkpt>
      <trkpt lat="45.28478" lon="6.66565">
        <ele>2398.15</ele>
        <time>2019-09-12T11:57:21Z</time>
      </trkpt>
      <trkpt lat="45.28473" lon="6.66562">
        <ele>2399.11</ele>
        <time>2019-09-12T11:57:26Z</time>
      </trkpt>
      <trkpt lat="45.28467" lon="6.66566">
        <ele>2399.11</ele>
        <time>2019-09-12T11:57:35Z</time>
      </trkpt>
      <trkpt lat="45.28461" lon="6.66576">
        <ele>2400.07</ele>
        <time>2019-09-12T11:57:50Z</time>
      </trkpt>
      <trkpt lat="45.28458" lon="6.66581">
        <ele>2399.59</ele>
        <time>2019-09-12T11:58:06Z</time>
      </trkpt>
      <trkpt lat="45.28459" lon="6.66587">
        <ele>2398.15</ele>
        <time>2019-09-12T11:58:12Z</time>
      </trkpt>
      <trkpt lat="45.28463" lon="6.66597">
        <ele>2396.22</ele>
        <time>2019-09-12T11:58:24Z</time>
      </trkpt>
      <trkpt lat="45.28469" lon="6.66614">
        <ele>2394.78</ele>
        <time>2019-09-12T11:58:40Z</time>
      </trkpt>
      <trkpt lat="45.28472" lon="6.6662">
        <ele>2395.26</ele>
        <time>2019-09-12T11:58:48Z</time>
      </trkpt>
      <trkpt lat="45.28478" lon="6.66625">
        <ele>2393.34</ele>
        <time>2019-09-12T11:58:55Z</time>
      </trkpt>
      <trkpt lat="45.28483" lon="6.66633">
        <ele>2392.38</ele>
        <time>2019-09-12T11:59:05Z</time>
      </trkpt>
      <trkpt lat="45.28494" lon="6.66643">
        <ele>2390.94</ele>
        <time>2019-09-12T11:59:21Z</time>
      </trkpt>
      <trkpt lat="45.28491" lon="6.66651">
        <ele>2390.94</ele>
        <time>2019-09-12T11:59:37Z</time>
      </trkpt>
      <trkpt lat="45.2849" lon="6.6666">
        <ele>2390.46</ele>
        <time>2019-09-12T11:59:51Z</time>
      </trkpt>
      <trkpt lat="45.28495" lon="6.66665">
        <ele>2389.49</ele>
        <time>2019-09-12T12:00:08Z</time>
      </trkpt>
      <trkpt lat="45.28504" lon="6.66668">
        <ele>2388.53</ele>
        <time>2019-09-12T12:00:21Z</time>
      </trkpt>
      <trkpt lat="45.28499" lon="6.66666">
        <ele>2388.05</ele>
        <time>2019-09-12T12:00:37Z</time>
      </trkpt>
      <trkpt lat="45.28499" lon="6.66666">
        <ele>2388.53</ele>
        <time>2019-09-12T12:00:38Z</time>
      </trkpt>
      <trkpt lat="45.28495" lon="6.66664">
        <ele>2389.49</ele>
        <time>2019-09-12T12:00:43Z</time>
      </trkpt>
      <trkpt lat="45.28492" lon="6.66674">
        <ele>2388.05</ele>
        <time>2019-09-12T12:01:01Z</time>
      </trkpt>
      <trkpt lat="45.2849" lon="6.66684">
        <ele>2385.65</ele>
        <time>2019-09-12T12:01:17Z</time>
      </trkpt>
      <trkpt lat="45.28493" lon="6.66689">
        <ele>2386.13</ele>
        <time>2019-09-12T12:01:30Z</time>
      </trkpt>
      <trkpt lat="45.28495" lon="6.66693">
        <ele>2385.65</ele>
        <time>2019-09-12T12:01:33Z</time>
      </trkpt>
      <trkpt lat="45.28502" lon="6.66702">
        <ele>2387.09</ele>
        <time>2019-09-12T12:01:46Z</time>
      </trkpt>
      <trkpt lat="45.28502" lon="6.66702">
        <ele>2387.09</ele>
        <time>2019-09-12T12:01:54Z</time>
      </trkpt>
      <trkpt lat="45.28505" lon="6.6671">
        <ele>2387.09</ele>
        <time>2019-09-12T12:02:09Z</time>
      </trkpt>
      <trkpt lat="45.28506" lon="6.66711">
        <ele>2387.09</ele>
        <time>2019-09-12T12:02:12Z</time>
      </trkpt>
      <trkpt lat="45.28509" lon="6.66716">
        <ele>2387.09</ele>
        <time>2019-09-12T12:02:17Z</time>
      </trkpt>
      <trkpt lat="45.28506" lon="6.66723">
        <ele>2386.61</ele>
        <time>2019-09-12T12:02:28Z</time>
      </trkpt>
      <trkpt lat="45.28505" lon="6.66729">
        <ele>2386.13</ele>
        <time>2019-09-12T12:02:32Z</time>
      </trkpt>
      <trkpt lat="45.28495" lon="6.66732">
        <ele>2388.05</ele>
        <time>2019-09-12T12:02:44Z</time>
      </trkpt>
      <trkpt lat="45.28498" lon="6.6675">
        <ele>2384.69</ele>
        <time>2019-09-12T12:03:00Z</time>
      </trkpt>
      <trkpt lat="45.28501" lon="6.66756">
        <ele>2382.76</ele>
        <time>2019-09-12T12:03:14Z</time>
      </trkpt>
      <trkpt lat="45.28499" lon="6.66759">
        <ele>2382.28</ele>
        <time>2019-09-12T12:03:29Z</time>
      </trkpt>
      <trkpt lat="45.28494" lon="6.66767">
        <ele>2382.76</ele>
        <time>2019-09-12T12:03:47Z</time>
      </trkpt>
      <trkpt lat="45.28492" lon="6.66781">
        <ele>2381.32</ele>
        <time>2019-09-12T12:03:59Z</time>
      </trkpt>
      <trkpt lat="45.28491" lon="6.66785">
        <ele>2380.36</ele>
        <time>2019-09-12T12:04:04Z</time>
      </trkpt>
      <trkpt lat="45.28488" lon="6.66803">
        <ele>2380.36</ele>
        <time>2019-09-12T12:04:23Z</time>
      </trkpt>
      <trkpt lat="45.28483" lon="6.66812">
        <ele>2380.84</ele>
        <time>2019-09-12T12:04:40Z</time>
      </trkpt>
      <trkpt lat="45.28483" lon="6.66814">
        <ele>2381.32</ele>
        <time>2019-09-12T12:05:06Z</time>
      </trkpt>
      <trkpt lat="45.28485" lon="6.6682">
        <ele>2378.44</ele>
        <time>2019-09-12T12:05:22Z</time>
      </trkpt>
      <trkpt lat="45.28488" lon="6.66828">
        <ele>2377</ele>
        <time>2019-09-12T12:05:38Z</time>
      </trkpt>
      <trkpt lat="45.2849" lon="6.66833">
        <ele>2376.52</ele>
        <time>2019-09-12T12:05:58Z</time>
      </trkpt>
      <trkpt lat="45.28487" lon="6.66832">
        <ele>2376.52</ele>
        <time>2019-09-12T12:06:11Z</time>
      </trkpt>
      <trkpt lat="45.28485" lon="6.6683">
        <ele>2376.52</ele>
        <time>2019-09-12T12:06:15Z</time>
      </trkpt>
      <trkpt lat="45.28483" lon="6.66831">
        <ele>2376.52</ele>
        <time>2019-09-12T12:06:33Z</time>
      </trkpt>
      <trkpt lat="45.28484" lon="6.66836">
        <ele>2374.59</ele>
        <time>2019-09-12T12:06:51Z</time>
      </trkpt>
      <trkpt lat="45.28484" lon="6.66843">
        <ele>2373.63</ele>
        <time>2019-09-12T12:07:14Z</time>
      </trkpt>
      <trkpt lat="45.28485" lon="6.66844">
        <ele>2373.15</ele>
        <time>2019-09-12T12:07:42Z</time>
      </trkpt>
      <trkpt lat="45.28486" lon="6.66849">
        <ele>2370.75</ele>
        <time>2019-09-12T12:07:57Z</time>
      </trkpt>
      <trkpt lat="45.28489" lon="6.66855">
        <ele>2369.79</ele>
        <time>2019-09-12T12:08:11Z</time>
      </trkpt>
      <trkpt lat="45.28486" lon="6.66854">
        <ele>2368.83</ele>
        <time>2019-09-12T12:09:05Z</time>
      </trkpt>
      <trkpt lat="45.28487" lon="6.66855">
        <ele>2368.83</ele>
        <time>2019-09-12T12:10:20Z</time>
      </trkpt>
      <trkpt lat="45.28489" lon="6.66857">
        <ele>2367.38</ele>
        <time>2019-09-12T12:10:43Z</time>
      </trkpt>
      <trkpt lat="45.28489" lon="6.66864">
        <ele>2366.42</ele>
        <time>2019-09-12T12:11:43Z</time>
      </trkpt>
      <trkpt lat="45.28489" lon="6.66869">
        <ele>2367.38</ele>
        <time>2019-09-12T12:11:58Z</time>
      </trkpt>
      <trkpt lat="45.28492" lon="6.66881">
        <ele>2368.83</ele>
        <time>2019-09-12T12:12:15Z</time>
      </trkpt>
      <trkpt lat="45.28492" lon="6.66885">
        <ele>2368.35</ele>
        <time>2019-09-12T12:12:31Z</time>
      </trkpt>
      <trkpt lat="45.28497" lon="6.66893">
        <ele>2365.94</ele>
        <time>2019-09-12T12:12:48Z</time>
      </trkpt>
      <trkpt lat="45.28498" lon="6.66894">
        <ele>2365.94</ele>
        <time>2019-09-12T12:12:51Z</time>
      </trkpt>
      <trkpt lat="45.28508" lon="6.66897">
        <ele>2364.5</ele>
        <time>2019-09-12T12:13:07Z</time>
      </trkpt>
      <trkpt lat="45.28509" lon="6.66898">
        <ele>2364.02</ele>
        <time>2019-09-12T12:13:24Z</time>
      </trkpt>
      <trkpt lat="45.28518" lon="6.66899">
        <ele>2364.98</ele>
        <time>2019-09-12T12:13:44Z</time>
      </trkpt>
      <trkpt lat="45.28519" lon="6.66899">
        <ele>2365.46</ele>
        <time>2019-09-12T12:13:56Z</time>
      </trkpt>
      <trkpt lat="45.2853" lon="6.66905">
        <ele>2365.94</ele>
        <time>2019-09-12T12:14:13Z</time>
      </trkpt>
      <trkpt lat="45.28536" lon="6.66911">
        <ele>2367.86</ele>
        <time>2019-09-12T12:14:26Z</time>
      </trkpt>
      <trkpt lat="45.28539" lon="6.66912">
        <ele>2368.35</ele>
        <time>2019-09-12T12:14:29Z</time>
      </trkpt>
      <trkpt lat="45.28542" lon="6.66916">
        <ele>2370.27</ele>
        <time>2019-09-12T12:14:50Z</time>
      </trkpt>
      <trkpt lat="45.28545" lon="6.66919">
        <ele>2369.31</ele>
        <time>2019-09-12T12:14:58Z</time>
      </trkpt>
      <trkpt lat="45.28549" lon="6.66924">
        <ele>2370.27</ele>
        <time>2019-09-12T12:15:02Z</time>
      </trkpt>
      <trkpt lat="45.28552" lon="6.66926">
        <ele>2370.75</ele>
        <time>2019-09-12T12:15:06Z</time>
      </trkpt>
      <trkpt lat="45.28555" lon="6.66927">
        <ele>2369.79</ele>
        <time>2019-09-12T12:15:09Z</time>
      </trkpt>
      <trkpt lat="45.28559" lon="6.6693">
        <ele>2371.23</ele>
        <time>2019-09-12T12:15:14Z</time>
      </trkpt>
      <trkpt lat="45.28562" lon="6.6693">
        <ele>2370.75</ele>
        <time>2019-09-12T12:15:17Z</time>
      </trkpt>
      <trkpt lat="45.28564" lon="6.66931">
        <ele>2369.79</ele>
        <time>2019-09-12T12:15:24Z</time>
      </trkpt>
      <trkpt lat="45.2857" lon="6.6694">
        <ele>2370.75</ele>
        <time>2019-09-12T12:15:34Z</time>
      </trkpt>
      <trkpt lat="45.28574" lon="6.66945">
        <ele>2369.31</ele>
        <time>2019-09-12T12:15:53Z</time>
      </trkpt>
      <trkpt lat="45.28577" lon="6.66946">
        <ele>2368.83</ele>
        <time>2019-09-12T12:16:05Z</time>
      </trkpt>
      <trkpt lat="45.28592" lon="6.66951">
        <ele>2364.98</ele>
        <time>2019-09-12T12:16:22Z</time>
      </trkpt>
      <trkpt lat="45.28604" lon="6.66947">
        <ele>2362.1</ele>
        <time>2019-09-12T12:16:38Z</time>
      </trkpt>
      <trkpt lat="45.28619" lon="6.66944">
        <ele>2360.17</ele>
        <time>2019-09-12T12:16:55Z</time>
      </trkpt>
      <trkpt lat="45.28622" lon="6.66943">
        <ele>2358.73</ele>
        <time>2019-09-12T12:17:08Z</time>
      </trkpt>
      <trkpt lat="45.28628" lon="6.66943">
        <ele>2358.73</ele>
        <time>2019-09-12T12:17:28Z</time>
      </trkpt>
      <trkpt lat="45.28635" lon="6.66933">
        <ele>2354.41</ele>
        <time>2019-09-12T12:17:57Z</time>
      </trkpt>
      <trkpt lat="45.28649" lon="6.6693">
        <ele>2350.56</ele>
        <time>2019-09-12T12:18:13Z</time>
      </trkpt>
      <trkpt lat="45.28659" lon="6.66925">
        <ele>2348.64</ele>
        <time>2019-09-12T12:18:28Z</time>
      </trkpt>
      <trkpt lat="45.28662" lon="6.66925">
        <ele>2347.2</ele>
        <time>2019-09-12T12:18:41Z</time>
      </trkpt>
      <trkpt lat="45.28672" lon="6.66916">
        <ele>2343.83</ele>
        <time>2019-09-12T12:18:57Z</time>
      </trkpt>
      <trkpt lat="45.28677" lon="6.66911">
        <ele>2340.95</ele>
        <time>2019-09-12T12:19:07Z</time>
      </trkpt>
      <trkpt lat="45.28686" lon="6.66906">
        <ele>2335.66</ele>
        <time>2019-09-12T12:19:24Z</time>
      </trkpt>
      <trkpt lat="45.28687" lon="6.66902">
        <ele>2335.18</ele>
        <time>2019-09-12T12:19:30Z</time>
      </trkpt>
      <trkpt lat="45.28693" lon="6.66899">
        <ele>2332.3</ele>
        <time>2019-09-12T12:19:48Z</time>
      </trkpt>
      <trkpt lat="45.28682" lon="6.66898">
        <ele>2334.22</ele>
        <time>2019-09-12T12:20:05Z</time>
      </trkpt>
      <trkpt lat="45.2868" lon="6.66899">
        <ele>2337.58</ele>
        <time>2019-09-12T12:20:32Z</time>
      </trkpt>
      <trkpt lat="45.28686" lon="6.66897">
        <ele>2334.22</ele>
        <time>2019-09-12T12:20:40Z</time>
      </trkpt>
      <trkpt lat="45.28693" lon="6.66901">
        <ele>2331.81</ele>
        <time>2019-09-12T12:20:58Z</time>
      </trkpt>
      <trkpt lat="45.28695" lon="6.66908">
        <ele>2327.97</ele>
        <time>2019-09-12T12:21:13Z</time>
      </trkpt>
      <trkpt lat="45.28701" lon="6.66914">
        <ele>2326.53</ele>
        <time>2019-09-12T12:21:28Z</time>
      </trkpt>
      <trkpt lat="45.28707" lon="6.66921">
        <ele>2326.05</ele>
        <time>2019-09-12T12:21:42Z</time>
      </trkpt>
      <trkpt lat="45.28716" lon="6.66927">
        <ele>2323.64</ele>
        <time>2019-09-12T12:21:57Z</time>
      </trkpt>
      <trkpt lat="45.28718" lon="6.66927">
        <ele>2324.12</ele>
        <time>2019-09-12T12:22:27Z</time>
      </trkpt>
      <trkpt lat="45.28729" lon="6.66926">
        <ele>2323.64</ele>
        <time>2019-09-12T12:22:59Z</time>
      </trkpt>
      <trkpt lat="45.2874" lon="6.66924">
        <ele>2324.61</ele>
        <time>2019-09-12T12:23:15Z</time>
      </trkpt>
      <trkpt lat="45.28747" lon="6.66922">
        <ele>2322.2</ele>
        <time>2019-09-12T12:23:24Z</time>
      </trkpt>
      <trkpt lat="45.28758" lon="6.66923">
        <ele>2321.72</ele>
        <time>2019-09-12T12:23:41Z</time>
      </trkpt>
      <trkpt lat="45.2877" lon="6.6693">
        <ele>2322.2</ele>
        <time>2019-09-12T12:23:59Z</time>
      </trkpt>
      <trkpt lat="45.28779" lon="6.66937">
        <ele>2320.76</ele>
        <time>2019-09-12T12:24:16Z</time>
      </trkpt>
      <trkpt lat="45.28791" lon="6.6694">
        <ele>2320.76</ele>
        <time>2019-09-12T12:24:30Z</time>
      </trkpt>
      <trkpt lat="45.28791" lon="6.66942">
        <ele>2320.28</ele>
        <time>2019-09-12T12:24:56Z</time>
      </trkpt>
      <trkpt lat="45.28791" lon="6.66941">
        <ele>2319.32</ele>
        <time>2019-09-12T12:26:12Z</time>
      </trkpt>
      <trkpt lat="45.28792" lon="6.66941">
        <ele>2318.84</ele>
        <time>2019-09-12T12:26:53Z</time>
      </trkpt>
      <trkpt lat="45.2879" lon="6.66941">
        <ele>2317.88</ele>
        <time>2019-09-12T12:28:54Z</time>
      </trkpt>
      <trkpt lat="45.28797" lon="6.66938">
        <ele>2312.11</ele>
        <time>2019-09-12T12:29:13Z</time>
      </trkpt>
      <trkpt lat="45.28805" lon="6.66939">
        <ele>2309.7</ele>
        <time>2019-09-12T12:29:28Z</time>
      </trkpt>
      <trkpt lat="45.28816" lon="6.66938">
        <ele>2305.38</ele>
        <time>2019-09-12T12:29:43Z</time>
      </trkpt>
      <trkpt lat="45.28819" lon="6.66938">
        <ele>2304.42</ele>
        <time>2019-09-12T12:29:45Z</time>
      </trkpt>
      <trkpt lat="45.28825" lon="6.66935">
        <ele>2302.98</ele>
        <time>2019-09-12T12:29:53Z</time>
      </trkpt>
      <trkpt lat="45.28833" lon="6.6693">
        <ele>2300.09</ele>
        <time>2019-09-12T12:30:03Z</time>
      </trkpt>
      <trkpt lat="45.28838" lon="6.66932">
        <ele>2293.36</ele>
        <time>2019-09-12T12:30:08Z</time>
      </trkpt>
      <trkpt lat="45.28844" lon="6.66924">
        <ele>2293.84</ele>
        <time>2019-09-12T12:30:22Z</time>
      </trkpt>
      <trkpt lat="45.28848" lon="6.66923">
        <ele>2291.44</ele>
        <time>2019-09-12T12:30:26Z</time>
      </trkpt>
      <trkpt lat="45.28852" lon="6.66924">
        <ele>2287.59</ele>
        <time>2019-09-12T12:30:31Z</time>
      </trkpt>
      <trkpt lat="45.28858" lon="6.66922">
        <ele>2289.04</ele>
        <time>2019-09-12T12:30:38Z</time>
      </trkpt>
      <trkpt lat="45.28861" lon="6.6692">
        <ele>2288.08</ele>
        <time>2019-09-12T12:30:46Z</time>
      </trkpt>
      <trkpt lat="45.28868" lon="6.66916">
        <ele>2285.19</ele>
        <time>2019-09-12T12:30:55Z</time>
      </trkpt>
      <trkpt lat="45.28873" lon="6.66908">
        <ele>2286.63</ele>
        <time>2019-09-12T12:31:06Z</time>
      </trkpt>
      <trkpt lat="45.28879" lon="6.66903">
        <ele>2286.63</ele>
        <time>2019-09-12T12:31:21Z</time>
      </trkpt>
      <trkpt lat="45.28882" lon="6.66902">
        <ele>2286.63</ele>
        <time>2019-09-12T12:31:47Z</time>
      </trkpt>
      <trkpt lat="45.28892" lon="6.66898">
        <ele>2290.48</ele>
        <time>2019-09-12T12:32:09Z</time>
      </trkpt>
      <trkpt lat="45.28904" lon="6.66892">
        <ele>2288.56</ele>
        <time>2019-09-12T12:32:26Z</time>
      </trkpt>
      <trkpt lat="45.28918" lon="6.66884">
        <ele>2289.04</ele>
        <time>2019-09-12T12:32:45Z</time>
      </trkpt>
      <trkpt lat="45.28924" lon="6.66883">
        <ele>2286.15</ele>
        <time>2019-09-12T12:32:51Z</time>
      </trkpt>
      <trkpt lat="45.28931" lon="6.66881">
        <ele>2286.63</ele>
        <time>2019-09-12T12:33:00Z</time>
      </trkpt>
      <trkpt lat="45.2894" lon="6.66876">
        <ele>2285.19</ele>
        <time>2019-09-12T12:33:09Z</time>
      </trkpt>
      <trkpt lat="45.28951" lon="6.66873">
        <ele>2286.15</ele>
        <time>2019-09-12T12:33:24Z</time>
      </trkpt>
      <trkpt lat="45.28959" lon="6.66868">
        <ele>2285.67</ele>
        <time>2019-09-12T12:33:35Z</time>
      </trkpt>
      <trkpt lat="45.28961" lon="6.66867">
        <ele>2285.19</ele>
        <time>2019-09-12T12:33:37Z</time>
      </trkpt>
      <trkpt lat="45.28964" lon="6.66867">
        <ele>2284.23</ele>
        <time>2019-09-12T12:33:39Z</time>
      </trkpt>
      <trkpt lat="45.28967" lon="6.66866">
        <ele>2284.23</ele>
        <time>2019-09-12T12:33:44Z</time>
      </trkpt>
      <trkpt lat="45.2897" lon="6.66866">
        <ele>2285.19</ele>
        <time>2019-09-12T12:33:47Z</time>
      </trkpt>
      <trkpt lat="45.28972" lon="6.66864">
        <ele>2286.15</ele>
        <time>2019-09-12T12:33:50Z</time>
      </trkpt>
      <trkpt lat="45.28986" lon="6.66857">
        <ele>2285.19</ele>
        <time>2019-09-12T12:34:08Z</time>
      </trkpt>
      <trkpt lat="45.29003" lon="6.66857">
        <ele>2274.14</ele>
        <time>2019-09-12T12:34:28Z</time>
      </trkpt>
      <trkpt lat="45.29012" lon="6.66859">
        <ele>2267.41</ele>
        <time>2019-09-12T12:34:38Z</time>
      </trkpt>
      <trkpt lat="45.29026" lon="6.66865">
        <ele>2266.93</ele>
        <time>2019-09-12T12:34:56Z</time>
      </trkpt>
      <trkpt lat="45.2904" lon="6.66872">
        <ele>2265.48</ele>
        <time>2019-09-12T12:35:14Z</time>
      </trkpt>
      <trkpt lat="45.29042" lon="6.66872">
        <ele>2265.48</ele>
        <time>2019-09-12T12:35:16Z</time>
      </trkpt>
      <trkpt lat="45.29058" lon="6.66863">
        <ele>2268.37</ele>
        <time>2019-09-12T12:35:34Z</time>
      </trkpt>
      <trkpt lat="45.29062" lon="6.66865">
        <ele>2265.96</ele>
        <time>2019-09-12T12:35:37Z</time>
      </trkpt>
      <trkpt lat="45.29067" lon="6.66867">
        <ele>2264.04</ele>
        <time>2019-09-12T12:35:42Z</time>
      </trkpt>
      <trkpt lat="45.2907" lon="6.66861">
        <ele>2265.48</ele>
        <time>2019-09-12T12:35:51Z</time>
      </trkpt>
      <trkpt lat="45.29079" lon="6.66861">
        <ele>2266.45</ele>
        <time>2019-09-12T12:35:59Z</time>
      </trkpt>
      <trkpt lat="45.29081" lon="6.66854">
        <ele>2271.25</ele>
        <time>2019-09-12T12:36:07Z</time>
      </trkpt>
      <trkpt lat="45.29085" lon="6.66855">
        <ele>2272.69</ele>
        <time>2019-09-12T12:36:11Z</time>
      </trkpt>
      <trkpt lat="45.29087" lon="6.66857">
        <ele>2274.14</ele>
        <time>2019-09-12T12:36:16Z</time>
      </trkpt>
      <trkpt lat="45.29088" lon="6.66859">
        <ele>2274.62</ele>
        <time>2019-09-12T12:36:18Z</time>
      </trkpt>
      <trkpt lat="45.29092" lon="6.66871">
        <ele>2277.98</ele>
        <time>2019-09-12T12:36:28Z</time>
      </trkpt>
      <trkpt lat="45.29093" lon="6.66873">
        <ele>2278.46</ele>
        <time>2019-09-12T12:36:30Z</time>
      </trkpt>
      <trkpt lat="45.29095" lon="6.66879">
        <ele>2280.38</ele>
        <time>2019-09-12T12:36:34Z</time>
      </trkpt>
      <trkpt lat="45.29097" lon="6.66881">
        <ele>2280.87</ele>
        <time>2019-09-12T12:36:36Z</time>
      </trkpt>
      <trkpt lat="45.29105" lon="6.66886">
        <ele>2281.35</ele>
        <time>2019-09-12T12:36:46Z</time>
      </trkpt>
      <trkpt lat="45.29113" lon="6.66886">
        <ele>2280.38</ele>
        <time>2019-09-12T12:36:54Z</time>
      </trkpt>
      <trkpt lat="45.29117" lon="6.66888">
        <ele>2279.9</ele>
        <time>2019-09-12T12:36:58Z</time>
      </trkpt>
      <trkpt lat="45.29124" lon="6.6689">
        <ele>2280.38</ele>
        <time>2019-09-12T12:37:06Z</time>
      </trkpt>
      <trkpt lat="45.29128" lon="6.66891">
        <ele>2280.38</ele>
        <time>2019-09-12T12:37:09Z</time>
      </trkpt>
      <trkpt lat="45.29133" lon="6.66893">
        <ele>2279.42</ele>
        <time>2019-09-12T12:37:27Z</time>
      </trkpt>
      <trkpt lat="45.2913" lon="6.6689">
        <ele>2279.42</ele>
        <time>2019-09-12T12:37:36Z</time>
      </trkpt>
      <trkpt lat="45.29137" lon="6.66891">
        <ele>2278.46</ele>
        <time>2019-09-12T12:37:42Z</time>
      </trkpt>
      <trkpt lat="45.29142" lon="6.66891">
        <ele>2277.5</ele>
        <time>2019-09-12T12:37:48Z</time>
      </trkpt>
      <trkpt lat="45.29156" lon="6.6689">
        <ele>2274.14</ele>
        <time>2019-09-12T12:38:07Z</time>
      </trkpt>
      <trkpt lat="45.29156" lon="6.66889">
        <ele>2274.62</ele>
        <time>2019-09-12T12:38:47Z</time>
      </trkpt>
      <trkpt lat="45.29157" lon="6.6689">
        <ele>2275.1</ele>
        <time>2019-09-12T12:39:17Z</time>
      </trkpt>
      <trkpt lat="45.29159" lon="6.6689">
        <ele>2277.98</ele>
        <time>2019-09-12T12:39:48Z</time>
      </trkpt>
      <trkpt lat="45.29161" lon="6.6689">
        <ele>2278.46</ele>
        <time>2019-09-12T12:40:17Z</time>
      </trkpt>
      <trkpt lat="45.29167" lon="6.66894">
        <ele>2276.54</ele>
        <time>2019-09-12T12:40:24Z</time>
      </trkpt>
      <trkpt lat="45.29177" lon="6.66901">
        <ele>2276.06</ele>
        <time>2019-09-12T12:40:42Z</time>
      </trkpt>
      <trkpt lat="45.29184" lon="6.66904">
        <ele>2277.02</ele>
        <time>2019-09-12T12:41:00Z</time>
      </trkpt>
      <trkpt lat="45.29184" lon="6.66904">
        <ele>2277.02</ele>
        <time>2019-09-12T12:41:27Z</time>
      </trkpt>
      <trkpt lat="45.2918" lon="6.66906">
        <ele>2279.9</ele>
        <time>2019-09-12T12:41:55Z</time>
      </trkpt>
      <trkpt lat="45.2918" lon="6.66906">
        <ele>2279.9</ele>
        <time>2019-09-12T12:42:02Z</time>
      </trkpt>
      <trkpt lat="45.29179" lon="6.66909">
        <ele>2281.83</ele>
        <time>2019-09-12T12:42:22Z</time>
      </trkpt>
      <trkpt lat="45.29179" lon="6.66907">
        <ele>2282.79</ele>
        <time>2019-09-12T12:42:39Z</time>
      </trkpt>
      <trkpt lat="45.29181" lon="6.66904">
        <ele>2283.75</ele>
        <time>2019-09-12T12:43:03Z</time>
      </trkpt>
      <trkpt lat="45.29189" lon="6.66911">
        <ele>2280.38</ele>
        <time>2019-09-12T12:43:18Z</time>
      </trkpt>
      <trkpt lat="45.29191" lon="6.66914">
        <ele>2280.87</ele>
        <time>2019-09-12T12:43:22Z</time>
      </trkpt>
      <trkpt lat="45.29193" lon="6.66917">
        <ele>2281.83</ele>
        <time>2019-09-12T12:43:25Z</time>
      </trkpt>
      <trkpt lat="45.29197" lon="6.6692">
        <ele>2280.38</ele>
        <time>2019-09-12T12:43:31Z</time>
      </trkpt>
      <trkpt lat="45.29209" lon="6.66934">
        <ele>2276.06</ele>
        <time>2019-09-12T12:43:53Z</time>
      </trkpt>
      <trkpt lat="45.29209" lon="6.66935">
        <ele>2276.06</ele>
        <time>2019-09-12T12:43:54Z</time>
      </trkpt>
      <trkpt lat="45.29211" lon="6.66937">
        <ele>2274.62</ele>
        <time>2019-09-12T12:43:56Z</time>
      </trkpt>
      <trkpt lat="45.29213" lon="6.66939">
        <ele>2274.62</ele>
        <time>2019-09-12T12:43:58Z</time>
      </trkpt>
      <trkpt lat="45.29215" lon="6.66941">
        <ele>2274.14</ele>
        <time>2019-09-12T12:44:01Z</time>
      </trkpt>
      <trkpt lat="45.29232" lon="6.66955">
        <ele>2269.33</ele>
        <time>2019-09-12T12:44:22Z</time>
      </trkpt>
      <trkpt lat="45.29233" lon="6.66956">
        <ele>2270.29</ele>
        <time>2019-09-12T12:44:24Z</time>
      </trkpt>
      <trkpt lat="45.29242" lon="6.6697">
        <ele>2269.33</ele>
        <time>2019-09-12T12:44:40Z</time>
      </trkpt>
      <trkpt lat="45.29246" lon="6.66976">
        <ele>2269.33</ele>
        <time>2019-09-12T12:44:47Z</time>
      </trkpt>
      <trkpt lat="45.2925" lon="6.66981">
        <ele>2267.89</ele>
        <time>2019-09-12T12:44:53Z</time>
      </trkpt>
      <trkpt lat="45.29252" lon="6.66984">
        <ele>2267.41</ele>
        <time>2019-09-12T12:44:56Z</time>
      </trkpt>
      <trkpt lat="45.29256" lon="6.66986">
        <ele>2266.93</ele>
        <time>2019-09-12T12:45:00Z</time>
      </trkpt>
      <trkpt lat="45.29266" lon="6.66999">
        <ele>2267.41</ele>
        <time>2019-09-12T12:45:17Z</time>
      </trkpt>
      <trkpt lat="45.29274" lon="6.67007">
        <ele>2267.89</ele>
        <time>2019-09-12T12:45:34Z</time>
      </trkpt>
      <trkpt lat="45.29275" lon="6.67006">
        <ele>2268.37</ele>
        <time>2019-09-12T12:47:37Z</time>
      </trkpt>
      <trkpt lat="45.29276" lon="6.67008">
        <ele>2268.37</ele>
        <time>2019-09-12T12:47:54Z</time>
      </trkpt>
      <trkpt lat="45.29292" lon="6.67012">
        <ele>2267.41</ele>
        <time>2019-09-12T12:48:08Z</time>
      </trkpt>
      <trkpt lat="45.29311" lon="6.6702">
        <ele>2264.04</ele>
        <time>2019-09-12T12:48:29Z</time>
      </trkpt>
      <trkpt lat="45.29326" lon="6.67025">
        <ele>2263.08</ele>
        <time>2019-09-12T12:48:42Z</time>
      </trkpt>
      <trkpt lat="45.29329" lon="6.67027">
        <ele>2262.6</ele>
        <time>2019-09-12T12:48:45Z</time>
      </trkpt>
      <trkpt lat="45.29338" lon="6.67033">
        <ele>2261.64</ele>
        <time>2019-09-12T12:48:53Z</time>
      </trkpt>
      <trkpt lat="45.29343" lon="6.67043">
        <ele>2260.2</ele>
        <time>2019-09-12T12:49:00Z</time>
      </trkpt>
      <trkpt lat="45.29342" lon="6.67052">
        <ele>2258.27</ele>
        <time>2019-09-12T12:49:05Z</time>
      </trkpt>
      <trkpt lat="45.29359" lon="6.67079">
        <ele>2257.31</ele>
        <time>2019-09-12T12:49:25Z</time>
      </trkpt>
      <trkpt lat="45.29363" lon="6.67083">
        <ele>2258.27</ele>
        <time>2019-09-12T12:49:29Z</time>
      </trkpt>
      <trkpt lat="45.29366" lon="6.67088">
        <ele>2258.27</ele>
        <time>2019-09-12T12:49:33Z</time>
      </trkpt>
      <trkpt lat="45.29367" lon="6.67091">
        <ele>2257.79</ele>
        <time>2019-09-12T12:49:35Z</time>
      </trkpt>
      <trkpt lat="45.29384" lon="6.67114">
        <ele>2259.72</ele>
        <time>2019-09-12T12:49:55Z</time>
      </trkpt>
      <trkpt lat="45.29407" lon="6.67134">
        <ele>2260.2</ele>
        <time>2019-09-12T12:50:17Z</time>
      </trkpt>
      <trkpt lat="45.29408" lon="6.67135">
        <ele>2260.2</ele>
        <time>2019-09-12T12:50:18Z</time>
      </trkpt>
      <trkpt lat="45.29421" lon="6.6714">
        <ele>2258.75</ele>
        <time>2019-09-12T12:50:29Z</time>
      </trkpt>
      <trkpt lat="45.29433" lon="6.67143">
        <ele>2257.31</ele>
        <time>2019-09-12T12:50:39Z</time>
      </trkpt>
      <trkpt lat="45.29455" lon="6.67147">
        <ele>2258.27</ele>
        <time>2019-09-12T12:50:59Z</time>
      </trkpt>
      <trkpt lat="45.2946" lon="6.67147">
        <ele>2257.31</ele>
        <time>2019-09-12T12:51:05Z</time>
      </trkpt>
      <trkpt lat="45.29481" lon="6.67148">
        <ele>2256.83</ele>
        <time>2019-09-12T12:51:21Z</time>
      </trkpt>
      <trkpt lat="45.29492" lon="6.67146">
        <ele>2254.43</ele>
        <time>2019-09-12T12:51:29Z</time>
      </trkpt>
      <trkpt lat="45.29499" lon="6.67146">
        <ele>2254.43</ele>
        <time>2019-09-12T12:51:42Z</time>
      </trkpt>
      <trkpt lat="45.29515" lon="6.67144">
        <ele>2249.62</ele>
        <time>2019-09-12T12:51:59Z</time>
      </trkpt>
      <trkpt lat="45.29524" lon="6.67146">
        <ele>2248.18</ele>
        <time>2019-09-12T12:52:06Z</time>
      </trkpt>
      <trkpt lat="45.29529" lon="6.67148">
        <ele>2248.18</ele>
        <time>2019-09-12T12:52:11Z</time>
      </trkpt>
      <trkpt lat="45.29537" lon="6.67152">
        <ele>2247.7</ele>
        <time>2019-09-12T12:52:22Z</time>
      </trkpt>
      <trkpt lat="45.29554" lon="6.67156">
        <ele>2246.74</ele>
        <time>2019-09-12T12:52:42Z</time>
      </trkpt>
      <trkpt lat="45.29563" lon="6.6716">
        <ele>2246.26</ele>
        <time>2019-09-12T12:52:51Z</time>
      </trkpt>
      <trkpt lat="45.29568" lon="6.6716">
        <ele>2246.74</ele>
        <time>2019-09-12T12:52:55Z</time>
      </trkpt>
      <trkpt lat="45.29576" lon="6.67164">
        <ele>2248.18</ele>
        <time>2019-09-12T12:53:02Z</time>
      </trkpt>
      <trkpt lat="45.29582" lon="6.67166">
        <ele>2248.18</ele>
        <time>2019-09-12T12:53:06Z</time>
      </trkpt>
      <trkpt lat="45.29594" lon="6.67171">
        <ele>2247.7</ele>
        <time>2019-09-12T12:53:17Z</time>
      </trkpt>
      <trkpt lat="45.29607" lon="6.67173">
        <ele>2245.78</ele>
        <time>2019-09-12T12:53:28Z</time>
      </trkpt>
      <trkpt lat="45.29614" lon="6.67177">
        <ele>2245.3</ele>
        <time>2019-09-12T12:53:34Z</time>
      </trkpt>
      <trkpt lat="45.29637" lon="6.67193">
        <ele>2242.89</ele>
        <time>2019-09-12T12:53:56Z</time>
      </trkpt>
      <trkpt lat="45.29638" lon="6.67193">
        <ele>2242.89</ele>
        <time>2019-09-12T12:53:57Z</time>
      </trkpt>
      <trkpt lat="45.29641" lon="6.67196">
        <ele>2242.89</ele>
        <time>2019-09-12T12:54:00Z</time>
      </trkpt>
      <trkpt lat="45.29646" lon="6.67202">
        <ele>2240.97</ele>
        <time>2019-09-12T12:54:06Z</time>
      </trkpt>
      <trkpt lat="45.29648" lon="6.67203">
        <ele>2240.49</ele>
        <time>2019-09-12T12:54:08Z</time>
      </trkpt>
      <trkpt lat="45.29653" lon="6.67206">
        <ele>2239.05</ele>
        <time>2019-09-12T12:54:14Z</time>
      </trkpt>
      <trkpt lat="45.29654" lon="6.67209">
        <ele>2238.09</ele>
        <time>2019-09-12T12:54:16Z</time>
      </trkpt>
      <trkpt lat="45.29655" lon="6.67212">
        <ele>2238.09</ele>
        <time>2019-09-12T12:54:18Z</time>
      </trkpt>
      <trkpt lat="45.29659" lon="6.67216">
        <ele>2238.09</ele>
        <time>2019-09-12T12:54:24Z</time>
      </trkpt>
      <trkpt lat="45.2966" lon="6.67219">
        <ele>2238.09</ele>
        <time>2019-09-12T12:54:26Z</time>
      </trkpt>
      <trkpt lat="45.29662" lon="6.6722">
        <ele>2238.57</ele>
        <time>2019-09-12T12:54:28Z</time>
      </trkpt>
      <trkpt lat="45.29668" lon="6.67231">
        <ele>2241.93</ele>
        <time>2019-09-12T12:54:43Z</time>
      </trkpt>
      <trkpt lat="45.29671" lon="6.67232">
        <ele>2243.37</ele>
        <time>2019-09-12T12:54:46Z</time>
      </trkpt>
      <trkpt lat="45.29673" lon="6.67232">
        <ele>2243.85</ele>
        <time>2019-09-12T12:54:48Z</time>
      </trkpt>
      <trkpt lat="45.29683" lon="6.67237">
        <ele>2243.85</ele>
        <time>2019-09-12T12:55:00Z</time>
      </trkpt>
      <trkpt lat="45.29691" lon="6.67231">
        <ele>2245.78</ele>
        <time>2019-09-12T12:55:20Z</time>
      </trkpt>
      <trkpt lat="45.29691" lon="6.67232">
        <ele>2246.26</ele>
        <time>2019-09-12T12:56:13Z</time>
      </trkpt>
      <trkpt lat="45.29693" lon="6.67232">
        <ele>2245.78</ele>
        <time>2019-09-12T12:57:00Z</time>
      </trkpt>
      <trkpt lat="45.29693" lon="6.67233">
        <ele>2246.26</ele>
        <time>2019-09-12T12:57:47Z</time>
      </trkpt>
      <trkpt lat="45.29701" lon="6.6724">
        <ele>2249.14</ele>
        <time>2019-09-12T12:57:57Z</time>
      </trkpt>
      <trkpt lat="45.29713" lon="6.67237">
        <ele>2251.06</ele>
        <time>2019-09-12T12:58:11Z</time>
      </trkpt>
      <trkpt lat="45.29721" lon="6.67235">
        <ele>2252.03</ele>
        <time>2019-09-12T12:58:20Z</time>
      </trkpt>
      <trkpt lat="45.29734" lon="6.6722">
        <ele>2250.1</ele>
        <time>2019-09-12T12:58:39Z</time>
      </trkpt>
      <trkpt lat="45.2974" lon="6.67215">
        <ele>2249.62</ele>
        <time>2019-09-12T12:58:45Z</time>
      </trkpt>
      <trkpt lat="45.29751" lon="6.67206">
        <ele>2248.18</ele>
        <time>2019-09-12T12:58:57Z</time>
      </trkpt>
      <trkpt lat="45.29765" lon="6.67211">
        <ele>2247.7</ele>
        <time>2019-09-12T12:59:10Z</time>
      </trkpt>
      <trkpt lat="45.29766" lon="6.67212">
        <ele>2248.18</ele>
        <time>2019-09-12T12:59:12Z</time>
      </trkpt>
      <trkpt lat="45.29776" lon="6.67222">
        <ele>2249.62</ele>
        <time>2019-09-12T12:59:29Z</time>
      </trkpt>
      <trkpt lat="45.29782" lon="6.67226">
        <ele>2250.58</ele>
        <time>2019-09-12T12:59:45Z</time>
      </trkpt>
      <trkpt lat="45.29785" lon="6.6723">
        <ele>2250.58</ele>
        <time>2019-09-12T13:00:01Z</time>
      </trkpt>
      <trkpt lat="45.29791" lon="6.67242">
        <ele>2251.06</ele>
        <time>2019-09-12T13:00:18Z</time>
      </trkpt>
      <trkpt lat="45.29797" lon="6.67249">
        <ele>2253.47</ele>
        <time>2019-09-12T13:00:36Z</time>
      </trkpt>
      <trkpt lat="45.29804" lon="6.67257">
        <ele>2254.43</ele>
        <time>2019-09-12T13:00:54Z</time>
      </trkpt>
      <trkpt lat="45.29813" lon="6.67265">
        <ele>2256.83</ele>
        <time>2019-09-12T13:01:12Z</time>
      </trkpt>
      <trkpt lat="45.29821" lon="6.67268">
        <ele>2259.24</ele>
        <time>2019-09-12T13:01:33Z</time>
      </trkpt>
      <trkpt lat="45.29831" lon="6.6727">
        <ele>2258.27</ele>
        <time>2019-09-12T13:01:48Z</time>
      </trkpt>
      <trkpt lat="45.29841" lon="6.67274">
        <ele>2261.64</ele>
        <time>2019-09-12T13:02:08Z</time>
      </trkpt>
      <trkpt lat="45.29849" lon="6.67277">
        <ele>2264.52</ele>
        <time>2019-09-12T13:02:24Z</time>
      </trkpt>
      <trkpt lat="45.29856" lon="6.6728">
        <ele>2265</ele>
        <time>2019-09-12T13:02:40Z</time>
      </trkpt>
      <trkpt lat="45.29863" lon="6.67284">
        <ele>2266.45</ele>
        <time>2019-09-12T13:03:00Z</time>
      </trkpt>
      <trkpt lat="45.2987" lon="6.67289">
        <ele>2269.33</ele>
        <time>2019-09-12T13:03:21Z</time>
      </trkpt>
      <trkpt lat="45.29878" lon="6.67296">
        <ele>2270.29</ele>
        <time>2019-09-12T13:03:41Z</time>
      </trkpt>
      <trkpt lat="45.29888" lon="6.67304">
        <ele>2272.21</ele>
        <time>2019-09-12T13:04:00Z</time>
      </trkpt>
      <trkpt lat="45.29897" lon="6.67311">
        <ele>2273.17</ele>
        <time>2019-09-12T13:04:18Z</time>
      </trkpt>
      <trkpt lat="45.29906" lon="6.67316">
        <ele>2277.02</ele>
        <time>2019-09-12T13:04:36Z</time>
      </trkpt>
      <trkpt lat="45.29916" lon="6.67319">
        <ele>2277.98</ele>
        <time>2019-09-12T13:04:53Z</time>
      </trkpt>
      <trkpt lat="45.29923" lon="6.67324">
        <ele>2278.94</ele>
        <time>2019-09-12T13:05:13Z</time>
      </trkpt>
      <trkpt lat="45.29934" lon="6.67334">
        <ele>2281.35</ele>
        <time>2019-09-12T13:05:30Z</time>
      </trkpt>
      <trkpt lat="45.29936" lon="6.67336">
        <ele>2282.79</ele>
        <time>2019-09-12T13:05:38Z</time>
      </trkpt>
      <trkpt lat="45.29947" lon="6.67334">
        <ele>2283.75</ele>
        <time>2019-09-12T13:05:55Z</time>
      </trkpt>
      <trkpt lat="45.29954" lon="6.6734">
        <ele>2286.15</ele>
        <time>2019-09-12T13:06:10Z</time>
      </trkpt>
      <trkpt lat="45.29965" lon="6.67347">
        <ele>2287.11</ele>
        <time>2019-09-12T13:06:28Z</time>
      </trkpt>
      <trkpt lat="45.29969" lon="6.67352">
        <ele>2288.08</ele>
        <time>2019-09-12T13:06:45Z</time>
      </trkpt>
      <trkpt lat="45.29978" lon="6.67359">
        <ele>2290.48</ele>
        <time>2019-09-12T13:07:14Z</time>
      </trkpt>
      <trkpt lat="45.29985" lon="6.67363">
        <ele>2292.4</ele>
        <time>2019-09-12T13:07:32Z</time>
      </trkpt>
      <trkpt lat="45.29997" lon="6.67372">
        <ele>2294.8</ele>
        <time>2019-09-12T13:07:53Z</time>
      </trkpt>
      <trkpt lat="45.30005" lon="6.67374">
        <ele>2297.21</ele>
        <time>2019-09-12T13:08:07Z</time>
      </trkpt>
      <trkpt lat="45.30012" lon="6.6738">
        <ele>2297.69</ele>
        <time>2019-09-12T13:08:24Z</time>
      </trkpt>
      <trkpt lat="45.30021" lon="6.67383">
        <ele>2299.13</ele>
        <time>2019-09-12T13:08:43Z</time>
      </trkpt>
      <trkpt lat="45.30027" lon="6.67392">
        <ele>2301.53</ele>
        <time>2019-09-12T13:08:58Z</time>
      </trkpt>
      <trkpt lat="45.30037" lon="6.67395">
        <ele>2302.49</ele>
        <time>2019-09-12T13:09:16Z</time>
      </trkpt>
      <trkpt lat="45.30046" lon="6.67402">
        <ele>2304.42</ele>
        <time>2019-09-12T13:09:37Z</time>
      </trkpt>
      <trkpt lat="45.3005" lon="6.67409">
        <ele>2305.38</ele>
        <time>2019-09-12T13:09:55Z</time>
      </trkpt>
      <trkpt lat="45.30052" lon="6.6741">
        <ele>2307.3</ele>
        <time>2019-09-12T13:10:13Z</time>
      </trkpt>
      <trkpt lat="45.30049" lon="6.67417">
        <ele>2308.26</ele>
        <time>2019-09-12T13:10:47Z</time>
      </trkpt>
      <trkpt lat="45.30039" lon="6.67423">
        <ele>2311.15</ele>
        <time>2019-09-12T13:11:08Z</time>
      </trkpt>
      <trkpt lat="45.30031" lon="6.67429">
        <ele>2313.07</ele>
        <time>2019-09-12T13:11:26Z</time>
      </trkpt>
      <trkpt lat="45.30021" lon="6.67437">
        <ele>2316.43</ele>
        <time>2019-09-12T13:11:47Z</time>
      </trkpt>
      <trkpt lat="45.30013" lon="6.67444">
        <ele>2320.28</ele>
        <time>2019-09-12T13:12:07Z</time>
      </trkpt>
      <trkpt lat="45.30003" lon="6.67454">
        <ele>2325.09</ele>
        <time>2019-09-12T13:12:28Z</time>
      </trkpt>
      <trkpt lat="45.29992" lon="6.67461">
        <ele>2325.57</ele>
        <time>2019-09-12T13:12:47Z</time>
      </trkpt>
      <trkpt lat="45.29983" lon="6.67469">
        <ele>2327.49</ele>
        <time>2019-09-12T13:13:06Z</time>
      </trkpt>
      <trkpt lat="45.29973" lon="6.67474">
        <ele>2328.93</ele>
        <time>2019-09-12T13:13:27Z</time>
      </trkpt>
      <trkpt lat="45.29964" lon="6.6748">
        <ele>2330.85</ele>
        <time>2019-09-12T13:13:45Z</time>
      </trkpt>
      <trkpt lat="45.29953" lon="6.67485">
        <ele>2334.22</ele>
        <time>2019-09-12T13:14:05Z</time>
      </trkpt>
      <trkpt lat="45.29941" lon="6.67489">
        <ele>2335.66</ele>
        <time>2019-09-12T13:14:26Z</time>
      </trkpt>
      <trkpt lat="45.29935" lon="6.67493">
        <ele>2338.54</ele>
        <time>2019-09-12T13:14:42Z</time>
      </trkpt>
      <trkpt lat="45.29927" lon="6.67497">
        <ele>2338.54</ele>
        <time>2019-09-12T13:15:00Z</time>
      </trkpt>
      <trkpt lat="45.2992" lon="6.67503">
        <ele>2340.47</ele>
        <time>2019-09-12T13:15:15Z</time>
      </trkpt>
      <trkpt lat="45.29916" lon="6.67505">
        <ele>2340.47</ele>
        <time>2019-09-12T13:15:40Z</time>
      </trkpt>
      <trkpt lat="45.2991" lon="6.67525">
        <ele>2341.43</ele>
        <time>2019-09-12T13:16:02Z</time>
      </trkpt>
      <trkpt lat="45.29909" lon="6.67541">
        <ele>2343.83</ele>
        <time>2019-09-12T13:16:20Z</time>
      </trkpt>
      <trkpt lat="45.29909" lon="6.67557">
        <ele>2345.27</ele>
        <time>2019-09-12T13:16:38Z</time>
      </trkpt>
      <trkpt lat="45.29907" lon="6.67571">
        <ele>2350.08</ele>
        <time>2019-09-12T13:16:55Z</time>
      </trkpt>
      <trkpt lat="45.29907" lon="6.67587">
        <ele>2351.04</ele>
        <time>2019-09-12T13:17:12Z</time>
      </trkpt>
      <trkpt lat="45.29911" lon="6.67586">
        <ele>2352</ele>
        <time>2019-09-12T13:17:22Z</time>
      </trkpt>
      <trkpt lat="45.29922" lon="6.67597">
        <ele>2351.04</ele>
        <time>2019-09-12T13:17:41Z</time>
      </trkpt>
      <trkpt lat="45.29923" lon="6.67599">
        <ele>2351.04</ele>
        <time>2019-09-12T13:17:43Z</time>
      </trkpt>
      <trkpt lat="45.29919" lon="6.67617">
        <ele>2352</ele>
        <time>2019-09-12T13:18:02Z</time>
      </trkpt>
      <trkpt lat="45.2993" lon="6.67621">
        <ele>2357.29</ele>
        <time>2019-09-12T13:18:23Z</time>
      </trkpt>
      <trkpt lat="45.2994" lon="6.67618">
        <ele>2359.69</ele>
        <time>2019-09-12T13:18:40Z</time>
      </trkpt>
      <trkpt lat="45.2994" lon="6.67618">
        <ele>2360.17</ele>
        <time>2019-09-12T13:18:41Z</time>
      </trkpt>
      <trkpt lat="45.29949" lon="6.67615">
        <ele>2361.14</ele>
        <time>2019-09-12T13:18:59Z</time>
      </trkpt>
      <trkpt lat="45.29959" lon="6.67612">
        <ele>2365.46</ele>
        <time>2019-09-12T13:19:19Z</time>
      </trkpt>
      <trkpt lat="45.29962" lon="6.6761">
        <ele>2366.42</ele>
        <time>2019-09-12T13:19:43Z</time>
      </trkpt>
      <trkpt lat="45.29969" lon="6.67608">
        <ele>2366.42</ele>
        <time>2019-09-12T13:20:22Z</time>
      </trkpt>
      <trkpt lat="45.29977" lon="6.67608">
        <ele>2368.83</ele>
        <time>2019-09-12T13:20:37Z</time>
      </trkpt>
      <trkpt lat="45.29986" lon="6.67608">
        <ele>2371.23</ele>
        <time>2019-09-12T13:20:52Z</time>
      </trkpt>
      <trkpt lat="45.29988" lon="6.67607">
        <ele>2373.15</ele>
        <time>2019-09-12T13:21:13Z</time>
      </trkpt>
      <trkpt lat="45.3" lon="6.67605">
        <ele>2373.63</ele>
        <time>2019-09-12T13:21:35Z</time>
      </trkpt>
      <trkpt lat="45.30013" lon="6.67606">
        <ele>2376.04</ele>
        <time>2019-09-12T13:21:54Z</time>
      </trkpt>
      <trkpt lat="45.30022" lon="6.67609">
        <ele>2378.44</ele>
        <time>2019-09-12T13:22:10Z</time>
      </trkpt>
      <trkpt lat="45.30025" lon="6.67623">
        <ele>2381.8</ele>
        <time>2019-09-12T13:22:30Z</time>
      </trkpt>
      <trkpt lat="45.30025" lon="6.67636">
        <ele>2385.17</ele>
        <time>2019-09-12T13:22:47Z</time>
      </trkpt>
      <trkpt lat="45.30024" lon="6.67644">
        <ele>2385.65</ele>
        <time>2019-09-12T13:23:05Z</time>
      </trkpt>
      <trkpt lat="45.30024" lon="6.67655">
        <ele>2385.65</ele>
        <time>2019-09-12T13:23:36Z</time>
      </trkpt>
      <trkpt lat="45.30026" lon="6.67669">
        <ele>2387.57</ele>
        <time>2019-09-12T13:23:54Z</time>
      </trkpt>
      <trkpt lat="45.30023" lon="6.67686">
        <ele>2389.01</ele>
        <time>2019-09-12T13:24:12Z</time>
      </trkpt>
      <trkpt lat="45.30016" lon="6.67697">
        <ele>2390.46</ele>
        <time>2019-09-12T13:24:31Z</time>
      </trkpt>
      <trkpt lat="45.30014" lon="6.67705">
        <ele>2391.9</ele>
        <time>2019-09-12T13:24:47Z</time>
      </trkpt>
      <trkpt lat="45.30019" lon="6.6769">
        <ele>2389.49</ele>
        <time>2019-09-12T13:25:17Z</time>
      </trkpt>
      <trkpt lat="45.30022" lon="6.67682">
        <ele>2387.09</ele>
        <time>2019-09-12T13:25:34Z</time>
      </trkpt>
      <trkpt lat="45.30021" lon="6.67661">
        <ele>2382.76</ele>
        <time>2019-09-12T13:25:53Z</time>
      </trkpt>
      <trkpt lat="45.30022" lon="6.67637">
        <ele>2377.96</ele>
        <time>2019-09-12T13:26:12Z</time>
      </trkpt>
      <trkpt lat="45.30022" lon="6.67634">
        <ele>2377</ele>
        <time>2019-09-12T13:26:14Z</time>
      </trkpt>
      <trkpt lat="45.30024" lon="6.6761">
        <ele>2372.19</ele>
        <time>2019-09-12T13:26:34Z</time>
      </trkpt>
      <trkpt lat="45.30019" lon="6.67608">
        <ele>2371.23</ele>
        <time>2019-09-12T13:26:41Z</time>
      </trkpt>
      <trkpt lat="45.30014" lon="6.67606">
        <ele>2370.27</ele>
        <time>2019-09-12T13:26:47Z</time>
      </trkpt>
      <trkpt lat="45.29997" lon="6.67608">
        <ele>2369.79</ele>
        <time>2019-09-12T13:27:06Z</time>
      </trkpt>
      <trkpt lat="45.29996" lon="6.67607">
        <ele>2368.83</ele>
        <time>2019-09-12T13:27:30Z</time>
      </trkpt>
      <trkpt lat="45.30005" lon="6.67606">
        <ele>2372.19</ele>
        <time>2019-09-12T13:28:04Z</time>
      </trkpt>
      <trkpt lat="45.30015" lon="6.67606">
        <ele>2375.55</ele>
        <time>2019-09-12T13:28:18Z</time>
      </trkpt>
      <trkpt lat="45.3002" lon="6.67609">
        <ele>2377</ele>
        <time>2019-09-12T13:28:38Z</time>
      </trkpt>
      <trkpt lat="45.30023" lon="6.67625">
        <ele>2379.4</ele>
        <time>2019-09-12T13:28:58Z</time>
      </trkpt>
      <trkpt lat="45.30022" lon="6.67646">
        <ele>2383.73</ele>
        <time>2019-09-12T13:29:18Z</time>
      </trkpt>
      <trkpt lat="45.30023" lon="6.67661">
        <ele>2387.09</ele>
        <time>2019-09-12T13:29:35Z</time>
      </trkpt>
      <trkpt lat="45.30024" lon="6.67672">
        <ele>2388.05</ele>
        <time>2019-09-12T13:29:54Z</time>
      </trkpt>
      <trkpt lat="45.3002" lon="6.67689">
        <ele>2389.49</ele>
        <time>2019-09-12T13:30:20Z</time>
      </trkpt>
      <trkpt lat="45.30014" lon="6.67697">
        <ele>2390.46</ele>
        <time>2019-09-12T13:30:37Z</time>
      </trkpt>
      <trkpt lat="45.30015" lon="6.6771">
        <ele>2395.26</ele>
        <time>2019-09-12T13:30:56Z</time>
      </trkpt>
      <trkpt lat="45.30022" lon="6.67714">
        <ele>2395.74</ele>
        <time>2019-09-12T13:31:14Z</time>
      </trkpt>
      <trkpt lat="45.3003" lon="6.67721">
        <ele>2395.74</ele>
        <time>2019-09-12T13:31:32Z</time>
      </trkpt>
      <trkpt lat="45.30035" lon="6.67725">
        <ele>2397.67</ele>
        <time>2019-09-12T13:31:49Z</time>
      </trkpt>
      <trkpt lat="45.30042" lon="6.67732">
        <ele>2401.03</ele>
        <time>2019-09-12T13:32:06Z</time>
      </trkpt>
      <trkpt lat="45.30045" lon="6.67735">
        <ele>2402.95</ele>
        <time>2019-09-12T13:32:28Z</time>
      </trkpt>
      <trkpt lat="45.30052" lon="6.6774">
        <ele>2406.32</ele>
        <time>2019-09-12T13:32:45Z</time>
      </trkpt>
      <trkpt lat="45.30057" lon="6.67749">
        <ele>2406.8</ele>
        <time>2019-09-12T13:33:03Z</time>
      </trkpt>
      <trkpt lat="45.3006" lon="6.67756">
        <ele>2408.72</ele>
        <time>2019-09-12T13:33:24Z</time>
      </trkpt>
      <trkpt lat="45.30061" lon="6.6777">
        <ele>2411.12</ele>
        <time>2019-09-12T13:33:45Z</time>
      </trkpt>
      <trkpt lat="45.30057" lon="6.67784">
        <ele>2411.12</ele>
        <time>2019-09-12T13:34:05Z</time>
      </trkpt>
      <trkpt lat="45.30053" lon="6.67796">
        <ele>2415.93</ele>
        <time>2019-09-12T13:34:27Z</time>
      </trkpt>
      <trkpt lat="45.30048" lon="6.67806">
        <ele>2416.89</ele>
        <time>2019-09-12T13:34:57Z</time>
      </trkpt>
      <trkpt lat="45.30039" lon="6.67816">
        <ele>2418.81</ele>
        <time>2019-09-12T13:35:16Z</time>
      </trkpt>
      <trkpt lat="45.30033" lon="6.6782">
        <ele>2420.26</ele>
        <time>2019-09-12T13:35:28Z</time>
      </trkpt>
      <trkpt lat="45.30028" lon="6.67836">
        <ele>2421.7</ele>
        <time>2019-09-12T13:35:46Z</time>
      </trkpt>
      <trkpt lat="45.30031" lon="6.67855">
        <ele>2422.66</ele>
        <time>2019-09-12T13:36:04Z</time>
      </trkpt>
      <trkpt lat="45.30033" lon="6.67862">
        <ele>2423.62</ele>
        <time>2019-09-12T13:36:12Z</time>
      </trkpt>
      <trkpt lat="45.30033" lon="6.67866">
        <ele>2424.58</ele>
        <time>2019-09-12T13:36:16Z</time>
      </trkpt>
      <trkpt lat="45.30038" lon="6.67881">
        <ele>2424.1</ele>
        <time>2019-09-12T13:36:34Z</time>
      </trkpt>
      <trkpt lat="45.3004" lon="6.67884">
        <ele>2424.58</ele>
        <time>2019-09-12T13:37:05Z</time>
      </trkpt>
      <trkpt lat="45.3004" lon="6.67886">
        <ele>2425.06</ele>
        <time>2019-09-12T13:37:35Z</time>
      </trkpt>
      <trkpt lat="45.30041" lon="6.67889">
        <ele>2424.58</ele>
        <time>2019-09-12T13:38:41Z</time>
      </trkpt>
      <trkpt lat="45.3005" lon="6.67905">
        <ele>2426.02</ele>
        <time>2019-09-12T13:38:58Z</time>
      </trkpt>
      <trkpt lat="45.30056" lon="6.67912">
        <ele>2426.99</ele>
        <time>2019-09-12T13:39:08Z</time>
      </trkpt>
      <trkpt lat="45.30062" lon="6.67924">
        <ele>2430.83</ele>
        <time>2019-09-12T13:39:27Z</time>
      </trkpt>
      <trkpt lat="45.30069" lon="6.67936">
        <ele>2433.23</ele>
        <time>2019-09-12T13:39:45Z</time>
      </trkpt>
      <trkpt lat="45.30079" lon="6.67949">
        <ele>2432.27</ele>
        <time>2019-09-12T13:40:02Z</time>
      </trkpt>
      <trkpt lat="45.30088" lon="6.67963">
        <ele>2432.27</ele>
        <time>2019-09-12T13:40:21Z</time>
      </trkpt>
      <trkpt lat="45.30097" lon="6.67974">
        <ele>2433.71</ele>
        <time>2019-09-12T13:40:38Z</time>
      </trkpt>
      <trkpt lat="45.30104" lon="6.67982">
        <ele>2436.6</ele>
        <time>2019-09-12T13:40:51Z</time>
      </trkpt>
      <trkpt lat="45.30109" lon="6.67989">
        <ele>2437.56</ele>
        <time>2019-09-12T13:41:01Z</time>
      </trkpt>
      <trkpt lat="45.30121" lon="6.67997">
        <ele>2439.48</ele>
        <time>2019-09-12T13:41:19Z</time>
      </trkpt>
      <trkpt lat="45.30126" lon="6.6801">
        <ele>2442.85</ele>
        <time>2019-09-12T13:41:37Z</time>
      </trkpt>
      <trkpt lat="45.3013" lon="6.68023">
        <ele>2443.81</ele>
        <time>2019-09-12T13:41:53Z</time>
      </trkpt>
      <trkpt lat="45.30134" lon="6.68032">
        <ele>2444.29</ele>
        <time>2019-09-12T13:42:02Z</time>
      </trkpt>
      <trkpt lat="45.30133" lon="6.68037">
        <ele>2443.33</ele>
        <time>2019-09-12T13:42:19Z</time>
      </trkpt>
      <trkpt lat="45.30133" lon="6.68037">
        <ele>2442.37</ele>
        <time>2019-09-12T13:42:50Z</time>
      </trkpt>
      <trkpt lat="45.30133" lon="6.68036">
        <ele>2441.89</ele>
        <time>2019-09-12T13:43:30Z</time>
      </trkpt>
      <trkpt lat="45.30132" lon="6.68037">
        <ele>2439.96</ele>
        <time>2019-09-12T13:44:13Z</time>
      </trkpt>
      <trkpt lat="45.30128" lon="6.68041">
        <ele>2439.96</ele>
        <time>2019-09-12T13:44:18Z</time>
      </trkpt>
      <trkpt lat="45.30124" lon="6.68042">
        <ele>2439.96</ele>
        <time>2019-09-12T13:44:43Z</time>
      </trkpt>
      <trkpt lat="45.30124" lon="6.6804">
        <ele>2440.44</ele>
        <time>2019-09-12T13:44:55Z</time>
      </trkpt>
      <trkpt lat="45.30128" lon="6.68038">
        <ele>2441.41</ele>
        <time>2019-09-12T13:45:02Z</time>
      </trkpt>
      <trkpt lat="45.30132" lon="6.68037">
        <ele>2442.85</ele>
        <time>2019-09-12T13:45:09Z</time>
      </trkpt>
      <trkpt lat="45.3014" lon="6.68047">
        <ele>2440.92</ele>
        <time>2019-09-12T13:45:25Z</time>
      </trkpt>
      <trkpt lat="45.3014" lon="6.68048">
        <ele>2440.92</ele>
        <time>2019-09-12T13:45:29Z</time>
      </trkpt>
      <trkpt lat="45.30142" lon="6.68049">
        <ele>2440.44</ele>
        <time>2019-09-12T13:45:31Z</time>
      </trkpt>
      <trkpt lat="45.30147" lon="6.68052">
        <ele>2439.96</ele>
        <time>2019-09-12T13:45:36Z</time>
      </trkpt>
      <trkpt lat="45.30159" lon="6.68053">
        <ele>2437.08</ele>
        <time>2019-09-12T13:45:50Z</time>
      </trkpt>
      <trkpt lat="45.30167" lon="6.68054">
        <ele>2435.16</ele>
        <time>2019-09-12T13:46:08Z</time>
      </trkpt>
      <trkpt lat="45.30167" lon="6.68059">
        <ele>2431.79</ele>
        <time>2019-09-12T13:46:16Z</time>
      </trkpt>
      <trkpt lat="45.30166" lon="6.68061">
        <ele>2430.83</ele>
        <time>2019-09-12T13:46:19Z</time>
      </trkpt>
      <trkpt lat="45.30178" lon="6.68064">
        <ele>2426.99</ele>
        <time>2019-09-12T13:46:31Z</time>
      </trkpt>
      <trkpt lat="45.30175" lon="6.68072">
        <ele>2425.06</ele>
        <time>2019-09-12T13:46:38Z</time>
      </trkpt>
      <trkpt lat="45.30176" lon="6.68076">
        <ele>2423.62</ele>
        <time>2019-09-12T13:46:42Z</time>
      </trkpt>
      <trkpt lat="45.3018" lon="6.68075">
        <ele>2422.66</ele>
        <time>2019-09-12T13:46:45Z</time>
      </trkpt>
      <trkpt lat="45.30183" lon="6.68083">
        <ele>2418.81</ele>
        <time>2019-09-12T13:46:57Z</time>
      </trkpt>
      <trkpt lat="45.30192" lon="6.68081">
        <ele>2414.01</ele>
        <time>2019-09-12T13:47:09Z</time>
      </trkpt>
      <trkpt lat="45.30191" lon="6.68086">
        <ele>2412.57</ele>
        <time>2019-09-12T13:47:13Z</time>
      </trkpt>
      <trkpt lat="45.30191" lon="6.68095">
        <ele>2408.24</ele>
        <time>2019-09-12T13:47:23Z</time>
      </trkpt>
      <trkpt lat="45.30194" lon="6.68096">
        <ele>2406.8</ele>
        <time>2019-09-12T13:47:28Z</time>
      </trkpt>
      <trkpt lat="45.30198" lon="6.68096">
        <ele>2406.32</ele>
        <time>2019-09-12T13:47:34Z</time>
      </trkpt>
      <trkpt lat="45.30199" lon="6.68102">
        <ele>2404.88</ele>
        <time>2019-09-12T13:47:41Z</time>
      </trkpt>
      <trkpt lat="45.30204" lon="6.68102">
        <ele>2402.95</ele>
        <time>2019-09-12T13:47:58Z</time>
      </trkpt>
      <trkpt lat="45.30204" lon="6.68107">
        <ele>2402.47</ele>
        <time>2019-09-12T13:48:07Z</time>
      </trkpt>
      <trkpt lat="45.30206" lon="6.68113">
        <ele>2400.55</ele>
        <time>2019-09-12T13:48:12Z</time>
      </trkpt>
      <trkpt lat="45.30207" lon="6.68119">
        <ele>2399.11</ele>
        <time>2019-09-12T13:48:19Z</time>
      </trkpt>
      <trkpt lat="45.30211" lon="6.68118">
        <ele>2398.15</ele>
        <time>2019-09-12T13:48:24Z</time>
      </trkpt>
      <trkpt lat="45.30217" lon="6.6811">
        <ele>2397.67</ele>
        <time>2019-09-12T13:48:33Z</time>
      </trkpt>
      <trkpt lat="45.30219" lon="6.68108">
        <ele>2396.7</ele>
        <time>2019-09-12T13:48:36Z</time>
      </trkpt>
      <trkpt lat="45.30229" lon="6.68114">
        <ele>2389.01</ele>
        <time>2019-09-12T13:48:53Z</time>
      </trkpt>
      <trkpt lat="45.30231" lon="6.68119">
        <ele>2388.05</ele>
        <time>2019-09-12T13:48:58Z</time>
      </trkpt>
      <trkpt lat="45.30235" lon="6.6812">
        <ele>2387.57</ele>
        <time>2019-09-12T13:49:01Z</time>
      </trkpt>
      <trkpt lat="45.30244" lon="6.68112">
        <ele>2386.13</ele>
        <time>2019-09-12T13:49:11Z</time>
      </trkpt>
      <trkpt lat="45.30244" lon="6.68118">
        <ele>2384.69</ele>
        <time>2019-09-12T13:49:15Z</time>
      </trkpt>
      <trkpt lat="45.30247" lon="6.68129">
        <ele>2383.25</ele>
        <time>2019-09-12T13:49:24Z</time>
      </trkpt>
      <trkpt lat="45.30248" lon="6.68128">
        <ele>2382.28</ele>
        <time>2019-09-12T13:49:26Z</time>
      </trkpt>
      <trkpt lat="45.3025" lon="6.68135">
        <ele>2379.88</ele>
        <time>2019-09-12T13:49:32Z</time>
      </trkpt>
      <trkpt lat="45.3025" lon="6.68139">
        <ele>2379.4</ele>
        <time>2019-09-12T13:49:35Z</time>
      </trkpt>
      <trkpt lat="45.30256" lon="6.68139">
        <ele>2376.04</ele>
        <time>2019-09-12T13:49:42Z</time>
      </trkpt>
      <trkpt lat="45.30258" lon="6.68143">
        <ele>2375.07</ele>
        <time>2019-09-12T13:49:45Z</time>
      </trkpt>
      <trkpt lat="45.30259" lon="6.68149">
        <ele>2372.67</ele>
        <time>2019-09-12T13:49:50Z</time>
      </trkpt>
      <trkpt lat="45.30262" lon="6.68148">
        <ele>2371.71</ele>
        <time>2019-09-12T13:49:54Z</time>
      </trkpt>
      <trkpt lat="45.30274" lon="6.68149">
        <ele>2367.86</ele>
        <time>2019-09-12T13:50:05Z</time>
      </trkpt>
      <trkpt lat="45.30274" lon="6.68159">
        <ele>2365.94</ele>
        <time>2019-09-12T13:50:14Z</time>
      </trkpt>
      <trkpt lat="45.30275" lon="6.68159">
        <ele>2365.46</ele>
        <time>2019-09-12T13:50:16Z</time>
      </trkpt>
      <trkpt lat="45.30278" lon="6.68155">
        <ele>2364.98</ele>
        <time>2019-09-12T13:50:20Z</time>
      </trkpt>
      <trkpt lat="45.30287" lon="6.68148">
        <ele>2365.46</ele>
        <time>2019-09-12T13:50:35Z</time>
      </trkpt>
      <trkpt lat="45.30291" lon="6.68143">
        <ele>2364.98</ele>
        <time>2019-09-12T13:50:58Z</time>
      </trkpt>
      <trkpt lat="45.30291" lon="6.68143">
        <ele>2364.5</ele>
        <time>2019-09-12T13:51:10Z</time>
      </trkpt>
      <trkpt lat="45.30295" lon="6.68139">
        <ele>2360.17</ele>
        <time>2019-09-12T13:51:24Z</time>
      </trkpt>
      <trkpt lat="45.30299" lon="6.68136">
        <ele>2358.25</ele>
        <time>2019-09-12T13:51:30Z</time>
      </trkpt>
      <trkpt lat="45.30309" lon="6.68129">
        <ele>2358.25</ele>
        <time>2019-09-12T13:51:47Z</time>
      </trkpt>
      <trkpt lat="45.3032" lon="6.68132">
        <ele>2355.85</ele>
        <time>2019-09-12T13:52:07Z</time>
      </trkpt>
      <trkpt lat="45.30321" lon="6.68132">
        <ele>2354.89</ele>
        <time>2019-09-12T13:52:10Z</time>
      </trkpt>
      <trkpt lat="45.30327" lon="6.68135">
        <ele>2352.48</ele>
        <time>2019-09-12T13:52:19Z</time>
      </trkpt>
      <trkpt lat="45.30333" lon="6.68139">
        <ele>2351.52</ele>
        <time>2019-09-12T13:52:29Z</time>
      </trkpt>
      <trkpt lat="45.30337" lon="6.68142">
        <ele>2350.08</ele>
        <time>2019-09-12T13:52:51Z</time>
      </trkpt>
      <trkpt lat="45.30344" lon="6.68143">
        <ele>2346.23</ele>
        <time>2019-09-12T13:53:14Z</time>
      </trkpt>
      <trkpt lat="45.30351" lon="6.68138">
        <ele>2344.79</ele>
        <time>2019-09-12T13:53:33Z</time>
      </trkpt>
      <trkpt lat="45.30355" lon="6.68137">
        <ele>2344.31</ele>
        <time>2019-09-12T13:53:56Z</time>
      </trkpt>
      <trkpt lat="45.30361" lon="6.68133">
        <ele>2344.31</ele>
        <time>2019-09-12T13:54:13Z</time>
      </trkpt>
      <trkpt lat="45.30363" lon="6.68132">
        <ele>2343.83</ele>
        <time>2019-09-12T13:54:15Z</time>
      </trkpt>
      <trkpt lat="45.30365" lon="6.68131">
        <ele>2343.83</ele>
        <time>2019-09-12T13:54:17Z</time>
      </trkpt>
      <trkpt lat="45.30384" lon="6.6813">
        <ele>2338.54</ele>
        <time>2019-09-12T13:54:34Z</time>
      </trkpt>
      <trkpt lat="45.30388" lon="6.68129">
        <ele>2338.06</ele>
        <time>2019-09-12T13:54:37Z</time>
      </trkpt>
      <trkpt lat="45.30405" lon="6.68129">
        <ele>2335.66</ele>
        <time>2019-09-12T13:54:53Z</time>
      </trkpt>
      <trkpt lat="45.30411" lon="6.68128">
        <ele>2332.78</ele>
        <time>2019-09-12T13:54:58Z</time>
      </trkpt>
      <trkpt lat="45.30415" lon="6.68126">
        <ele>2331.81</ele>
        <time>2019-09-12T13:55:02Z</time>
      </trkpt>
      <trkpt lat="45.30421" lon="6.68121">
        <ele>2328.93</ele>
        <time>2019-09-12T13:55:17Z</time>
      </trkpt>
      <trkpt lat="45.30422" lon="6.68121">
        <ele>2328.93</ele>
        <time>2019-09-12T13:55:18Z</time>
      </trkpt>
      <trkpt lat="45.30427" lon="6.68116">
        <ele>2328.45</ele>
        <time>2019-09-12T13:55:22Z</time>
      </trkpt>
      <trkpt lat="45.30442" lon="6.68116">
        <ele>2324.12</ele>
        <time>2019-09-12T13:55:41Z</time>
      </trkpt>
      <trkpt lat="45.30436" lon="6.68131">
        <ele>2319.8</ele>
        <time>2019-09-12T13:55:57Z</time>
      </trkpt>
      <trkpt lat="45.30438" lon="6.68137">
        <ele>2316.91</ele>
        <time>2019-09-12T13:56:07Z</time>
      </trkpt>
      <trkpt lat="45.30433" lon="6.68149">
        <ele>2314.51</ele>
        <time>2019-09-12T13:56:19Z</time>
      </trkpt>
      <trkpt lat="45.3043" lon="6.68155">
        <ele>2313.55</ele>
        <time>2019-09-12T13:56:25Z</time>
      </trkpt>
      <trkpt lat="45.30424" lon="6.68166">
        <ele>2310.19</ele>
        <time>2019-09-12T13:56:36Z</time>
      </trkpt>
      <trkpt lat="45.30424" lon="6.68175">
        <ele>2308.74</ele>
        <time>2019-09-12T13:56:43Z</time>
      </trkpt>
      <trkpt lat="45.30426" lon="6.6818">
        <ele>2307.78</ele>
        <time>2019-09-12T13:56:48Z</time>
      </trkpt>
      <trkpt lat="45.30428" lon="6.68187">
        <ele>2305.38</ele>
        <time>2019-09-12T13:56:57Z</time>
      </trkpt>
      <trkpt lat="45.30431" lon="6.68186">
        <ele>2304.9</ele>
        <time>2019-09-12T13:57:00Z</time>
      </trkpt>
      <trkpt lat="45.30434" lon="6.68188">
        <ele>2302.98</ele>
        <time>2019-09-12T13:57:07Z</time>
      </trkpt>
      <trkpt lat="45.3044" lon="6.68187">
        <ele>2300.57</ele>
        <time>2019-09-12T13:57:27Z</time>
      </trkpt>
      <trkpt lat="45.30443" lon="6.68188">
        <ele>2299.61</ele>
        <time>2019-09-12T13:58:08Z</time>
      </trkpt>
      <trkpt lat="45.30443" lon="6.68188">
        <ele>2299.13</ele>
        <time>2019-09-12T13:58:40Z</time>
      </trkpt>
      <trkpt lat="45.30443" lon="6.68188">
        <ele>2299.13</ele>
        <time>2019-09-12T13:59:26Z</time>
      </trkpt>
      <trkpt lat="45.30446" lon="6.68192">
        <ele>2297.69</ele>
        <time>2019-09-12T13:59:59Z</time>
      </trkpt>
      <trkpt lat="45.30446" lon="6.68193">
        <ele>2295.77</ele>
        <time>2019-09-12T14:00:42Z</time>
      </trkpt>
      <trkpt lat="45.30445" lon="6.68192">
        <ele>2294.8</ele>
        <time>2019-09-12T14:01:02Z</time>
      </trkpt>
      <trkpt lat="45.30447" lon="6.68206">
        <ele>2293.84</ele>
        <time>2019-09-12T14:01:42Z</time>
      </trkpt>
      <trkpt lat="45.3045" lon="6.68211">
        <ele>2292.88</ele>
        <time>2019-09-12T14:01:47Z</time>
      </trkpt>
      <trkpt lat="45.30453" lon="6.68228">
        <ele>2287.59</ele>
        <time>2019-09-12T14:02:03Z</time>
      </trkpt>
      <trkpt lat="45.30445" lon="6.68241">
        <ele>2286.15</ele>
        <time>2019-09-12T14:02:15Z</time>
      </trkpt>
      <trkpt lat="45.3044" lon="6.68248">
        <ele>2283.75</ele>
        <time>2019-09-12T14:02:23Z</time>
      </trkpt>
      <trkpt lat="45.3044" lon="6.68252">
        <ele>2281.83</ele>
        <time>2019-09-12T14:02:26Z</time>
      </trkpt>
      <trkpt lat="45.30444" lon="6.68258">
        <ele>2278.94</ele>
        <time>2019-09-12T14:02:32Z</time>
      </trkpt>
      <trkpt lat="45.30459" lon="6.68266">
        <ele>2278.46</ele>
        <time>2019-09-12T14:02:47Z</time>
      </trkpt>
      <trkpt lat="45.30461" lon="6.68268">
        <ele>2277.98</ele>
        <time>2019-09-12T14:02:49Z</time>
      </trkpt>
      <trkpt lat="45.30465" lon="6.68288">
        <ele>2272.21</ele>
        <time>2019-09-12T14:03:04Z</time>
      </trkpt>
      <trkpt lat="45.30463" lon="6.68293">
        <ele>2271.73</ele>
        <time>2019-09-12T14:03:08Z</time>
      </trkpt>
      <trkpt lat="45.30456" lon="6.68306">
        <ele>2268.37</ele>
        <time>2019-09-12T14:03:21Z</time>
      </trkpt>
      <trkpt lat="45.30453" lon="6.6831">
        <ele>2266.93</ele>
        <time>2019-09-12T14:03:25Z</time>
      </trkpt>
      <trkpt lat="45.30448" lon="6.68316">
        <ele>2265.96</ele>
        <time>2019-09-12T14:03:32Z</time>
      </trkpt>
      <trkpt lat="45.30446" lon="6.68327">
        <ele>2265</ele>
        <time>2019-09-12T14:03:40Z</time>
      </trkpt>
      <trkpt lat="45.30448" lon="6.68332">
        <ele>2264.04</ele>
        <time>2019-09-12T14:03:44Z</time>
      </trkpt>
      <trkpt lat="45.30452" lon="6.68338">
        <ele>2261.64</ele>
        <time>2019-09-12T14:03:50Z</time>
      </trkpt>
      <trkpt lat="45.30453" lon="6.68353">
        <ele>2258.27</ele>
        <time>2019-09-12T14:04:02Z</time>
      </trkpt>
      <trkpt lat="45.30456" lon="6.6836">
        <ele>2257.79</ele>
        <time>2019-09-12T14:04:08Z</time>
      </trkpt>
      <trkpt lat="45.30454" lon="6.68365">
        <ele>2256.83</ele>
        <time>2019-09-12T14:04:12Z</time>
      </trkpt>
      <trkpt lat="45.30453" lon="6.68389">
        <ele>2255.39</ele>
        <time>2019-09-12T14:04:31Z</time>
      </trkpt>
      <trkpt lat="45.30452" lon="6.6839">
        <ele>2254.91</ele>
        <time>2019-09-12T14:04:46Z</time>
      </trkpt>
      <trkpt lat="45.3045" lon="6.68394">
        <ele>2254.43</ele>
        <time>2019-09-12T14:04:50Z</time>
      </trkpt>
      <trkpt lat="45.30458" lon="6.68395">
        <ele>2253.47</ele>
        <time>2019-09-12T14:05:06Z</time>
      </trkpt>
      <trkpt lat="45.30464" lon="6.68399">
        <ele>2250.58</ele>
        <time>2019-09-12T14:05:17Z</time>
      </trkpt>
      <trkpt lat="45.30466" lon="6.684">
        <ele>2249.62</ele>
        <time>2019-09-12T14:05:20Z</time>
      </trkpt>
      <trkpt lat="45.30471" lon="6.68398">
        <ele>2247.7</ele>
        <time>2019-09-12T14:05:28Z</time>
      </trkpt>
      <trkpt lat="45.30471" lon="6.68406">
        <ele>2245.3</ele>
        <time>2019-09-12T14:05:37Z</time>
      </trkpt>
      <trkpt lat="45.30479" lon="6.68401">
        <ele>2241.93</ele>
        <time>2019-09-12T14:05:51Z</time>
      </trkpt>
      <trkpt lat="45.30484" lon="6.68406">
        <ele>2238.57</ele>
        <time>2019-09-12T14:06:05Z</time>
      </trkpt>
      <trkpt lat="45.30484" lon="6.68421">
        <ele>2235.68</ele>
        <time>2019-09-12T14:06:23Z</time>
      </trkpt>
      <trkpt lat="45.30482" lon="6.68428">
        <ele>2232.8</ele>
        <time>2019-09-12T14:06:38Z</time>
      </trkpt>
      <trkpt lat="45.30483" lon="6.68429">
        <ele>2232.32</ele>
        <time>2019-09-12T14:06:53Z</time>
      </trkpt>
      <trkpt lat="45.30482" lon="6.6844">
        <ele>2230.4</ele>
        <time>2019-09-12T14:07:07Z</time>
      </trkpt>
      <trkpt lat="45.30482" lon="6.6844">
        <ele>2230.4</ele>
        <time>2019-09-12T14:07:13Z</time>
      </trkpt>
      <trkpt lat="45.30484" lon="6.68438">
        <ele>2229.92</ele>
        <time>2019-09-12T14:07:19Z</time>
      </trkpt>
      <trkpt lat="45.30491" lon="6.68432">
        <ele>2227.99</ele>
        <time>2019-09-12T14:07:36Z</time>
      </trkpt>
      <trkpt lat="45.30498" lon="6.68439">
        <ele>2225.11</ele>
        <time>2019-09-12T14:07:51Z</time>
      </trkpt>
      <trkpt lat="45.30505" lon="6.68434">
        <ele>2222.22</ele>
        <time>2019-09-12T14:08:06Z</time>
      </trkpt>
      <trkpt lat="45.30511" lon="6.68426">
        <ele>2220.78</ele>
        <time>2019-09-12T14:08:20Z</time>
      </trkpt>
      <trkpt lat="45.30518" lon="6.68422">
        <ele>2219.34</ele>
        <time>2019-09-12T14:08:27Z</time>
      </trkpt>
      <trkpt lat="45.30524" lon="6.68418">
        <ele>2216.94</ele>
        <time>2019-09-12T14:08:33Z</time>
      </trkpt>
      <trkpt lat="45.30531" lon="6.68414">
        <ele>2214.53</ele>
        <time>2019-09-12T14:08:41Z</time>
      </trkpt>
      <trkpt lat="45.30537" lon="6.6841">
        <ele>2211.17</ele>
        <time>2019-09-12T14:08:49Z</time>
      </trkpt>
      <trkpt lat="45.30555" lon="6.68418">
        <ele>2205.88</ele>
        <time>2019-09-12T14:09:05Z</time>
      </trkpt>
      <trkpt lat="45.3056" lon="6.68419">
        <ele>2204.92</ele>
        <time>2019-09-12T14:09:09Z</time>
      </trkpt>
      <trkpt lat="45.30579" lon="6.68419">
        <ele>2202.52</ele>
        <time>2019-09-12T14:09:25Z</time>
      </trkpt>
      <trkpt lat="45.30584" lon="6.68419">
        <ele>2201.08</ele>
        <time>2019-09-12T14:09:30Z</time>
      </trkpt>
      <trkpt lat="45.30591" lon="6.68422">
        <ele>2200.59</ele>
        <time>2019-09-12T14:09:37Z</time>
      </trkpt>
      <trkpt lat="45.30604" lon="6.68433">
        <ele>2201.08</ele>
        <time>2019-09-12T14:09:52Z</time>
      </trkpt>
      <trkpt lat="45.30608" lon="6.68441">
        <ele>2200.59</ele>
        <time>2019-09-12T14:09:58Z</time>
      </trkpt>
      <trkpt lat="45.30609" lon="6.68445">
        <ele>2200.11</ele>
        <time>2019-09-12T14:10:01Z</time>
      </trkpt>
      <trkpt lat="45.30613" lon="6.68457">
        <ele>2198.19</ele>
        <time>2019-09-12T14:10:14Z</time>
      </trkpt>
      <trkpt lat="45.30614" lon="6.68462">
        <ele>2197.23</ele>
        <time>2019-09-12T14:10:34Z</time>
      </trkpt>
      <trkpt lat="45.30614" lon="6.68462">
        <ele>2197.23</ele>
        <time>2019-09-12T14:10:48Z</time>
      </trkpt>
      <trkpt lat="45.30616" lon="6.68466">
        <ele>2196.75</ele>
        <time>2019-09-12T14:11:03Z</time>
      </trkpt>
      <trkpt lat="45.30611" lon="6.68475">
        <ele>2193.39</ele>
        <time>2019-09-12T14:11:18Z</time>
      </trkpt>
      <trkpt lat="45.30608" lon="6.68478">
        <ele>2191.94</ele>
        <time>2019-09-12T14:11:35Z</time>
      </trkpt>
      <trkpt lat="45.30605" lon="6.68492">
        <ele>2192.42</ele>
        <time>2019-09-12T14:11:52Z</time>
      </trkpt>
      <trkpt lat="45.30603" lon="6.68495">
        <ele>2193.39</ele>
        <time>2019-09-12T14:11:58Z</time>
      </trkpt>
      <trkpt lat="45.30603" lon="6.68499">
        <ele>2193.39</ele>
        <time>2019-09-12T14:12:18Z</time>
      </trkpt>
      <trkpt lat="45.30603" lon="6.68501">
        <ele>2193.39</ele>
        <time>2019-09-12T14:12:43Z</time>
      </trkpt>
      <trkpt lat="45.30604" lon="6.68504">
        <ele>2193.87</ele>
        <time>2019-09-12T14:13:04Z</time>
      </trkpt>
      <trkpt lat="45.30604" lon="6.68505">
        <ele>2192.9</ele>
        <time>2019-09-12T14:13:26Z</time>
      </trkpt>
      <trkpt lat="45.30604" lon="6.68504">
        <ele>2190.5</ele>
        <time>2019-09-12T14:18:28Z</time>
      </trkpt>
      <trkpt lat="45.3061" lon="6.68508">
        <ele>2194.35</ele>
        <time>2019-09-12T14:18:43Z</time>
      </trkpt>
      <trkpt lat="45.30611" lon="6.68508">
        <ele>2194.35</ele>
        <time>2019-09-12T14:18:44Z</time>
      </trkpt>
      <trkpt lat="45.30616" lon="6.6851">
        <ele>2195.31</ele>
        <time>2019-09-12T14:19:01Z</time>
      </trkpt>
      <trkpt lat="45.30624" lon="6.68518">
        <ele>2198.67</ele>
        <time>2019-09-12T14:19:18Z</time>
      </trkpt>
      <trkpt lat="45.30629" lon="6.68526">
        <ele>2202.04</ele>
        <time>2019-09-12T14:19:35Z</time>
      </trkpt>
      <trkpt lat="45.30634" lon="6.68533">
        <ele>2202.04</ele>
        <time>2019-09-12T14:19:50Z</time>
      </trkpt>
      <trkpt lat="45.30643" lon="6.68537">
        <ele>2204.92</ele>
        <time>2019-09-12T14:20:06Z</time>
      </trkpt>
      <trkpt lat="45.30646" lon="6.68542">
        <ele>2204.92</ele>
        <time>2019-09-12T14:20:12Z</time>
      </trkpt>
      <trkpt lat="45.30648" lon="6.68546">
        <ele>2204.92</ele>
        <time>2019-09-12T14:20:16Z</time>
      </trkpt>
      <trkpt lat="45.30652" lon="6.68556">
        <ele>2205.4</ele>
        <time>2019-09-12T14:20:25Z</time>
      </trkpt>
      <trkpt lat="45.30656" lon="6.68564">
        <ele>2205.4</ele>
        <time>2019-09-12T14:20:33Z</time>
      </trkpt>
      <trkpt lat="45.30657" lon="6.6857">
        <ele>2204.92</ele>
        <time>2019-09-12T14:20:39Z</time>
      </trkpt>
      <trkpt lat="45.30662" lon="6.68581">
        <ele>2204.92</ele>
        <time>2019-09-12T14:20:57Z</time>
      </trkpt>
      <trkpt lat="45.30664" lon="6.68584">
        <ele>2205.4</ele>
        <time>2019-09-12T14:21:13Z</time>
      </trkpt>
      <trkpt lat="45.30665" lon="6.68586">
        <ele>2207.81</ele>
        <time>2019-09-12T14:21:46Z</time>
      </trkpt>
      <trkpt lat="45.30666" lon="6.68584">
        <ele>2208.77</ele>
        <time>2019-09-12T14:23:19Z</time>
      </trkpt>
      <trkpt lat="45.30666" lon="6.68584">
        <ele>2211.65</ele>
        <time>2019-09-12T14:23:33Z</time>
      </trkpt>
      <trkpt lat="45.30665" lon="6.68582">
        <ele>2212.13</ele>
        <time>2019-09-12T14:24:17Z</time>
      </trkpt>
      <trkpt lat="45.30666" lon="6.68581">
        <ele>2215.5</ele>
        <time>2019-09-12T14:26:20Z</time>
      </trkpt>
      <trkpt lat="45.30677" lon="6.6859">
        <ele>2214.05</ele>
        <time>2019-09-12T14:26:37Z</time>
      </trkpt>
      <trkpt lat="45.30679" lon="6.6859">
        <ele>2213.57</ele>
        <time>2019-09-12T14:26:40Z</time>
      </trkpt>
      <trkpt lat="45.30688" lon="6.68593">
        <ele>2211.17</ele>
        <time>2019-09-12T14:26:54Z</time>
      </trkpt>
      <trkpt lat="45.30703" lon="6.68595">
        <ele>2209.25</ele>
        <time>2019-09-12T14:27:13Z</time>
      </trkpt>
      <trkpt lat="45.30705" lon="6.68594">
        <ele>2209.25</ele>
        <time>2019-09-12T14:27:15Z</time>
      </trkpt>
      <trkpt lat="45.30706" lon="6.68595">
        <ele>2208.77</ele>
        <time>2019-09-12T14:27:17Z</time>
      </trkpt>
      <trkpt lat="45.30722" lon="6.68596">
        <ele>2209.25</ele>
        <time>2019-09-12T14:27:36Z</time>
      </trkpt>
      <trkpt lat="45.30741" lon="6.68596">
        <ele>2210.21</ele>
        <time>2019-09-12T14:27:54Z</time>
      </trkpt>
      <trkpt lat="45.30746" lon="6.68595">
        <ele>2209.25</ele>
        <time>2019-09-12T14:27:58Z</time>
      </trkpt>
      <trkpt lat="45.30757" lon="6.68594">
        <ele>2207.32</ele>
        <time>2019-09-12T14:28:08Z</time>
      </trkpt>
      <trkpt lat="45.30766" lon="6.68591">
        <ele>2205.88</ele>
        <time>2019-09-12T14:28:16Z</time>
      </trkpt>
      <trkpt lat="45.30773" lon="6.6859">
        <ele>2205.4</ele>
        <time>2019-09-12T14:28:22Z</time>
      </trkpt>
      <trkpt lat="45.3078" lon="6.6859">
        <ele>2204.92</ele>
        <time>2019-09-12T14:28:29Z</time>
      </trkpt>
      <trkpt lat="45.30791" lon="6.68589">
        <ele>2205.88</ele>
        <time>2019-09-12T14:28:47Z</time>
      </trkpt>
      <trkpt lat="45.30791" lon="6.68584">
        <ele>2203.96</ele>
        <time>2019-09-12T14:28:58Z</time>
      </trkpt>
      <trkpt lat="45.30799" lon="6.68575">
        <ele>2203.48</ele>
        <time>2019-09-12T14:29:08Z</time>
      </trkpt>
      <trkpt lat="45.308" lon="6.68572">
        <ele>2203.48</ele>
        <time>2019-09-12T14:29:11Z</time>
      </trkpt>
      <trkpt lat="45.30801" lon="6.68569">
        <ele>2203</ele>
        <time>2019-09-12T14:29:13Z</time>
      </trkpt>
      <trkpt lat="45.30811" lon="6.68565">
        <ele>2201.56</ele>
        <time>2019-09-12T14:29:32Z</time>
      </trkpt>
      <trkpt lat="45.30821" lon="6.68565">
        <ele>2200.11</ele>
        <time>2019-09-12T14:29:42Z</time>
      </trkpt>
      <trkpt lat="45.30828" lon="6.68568">
        <ele>2198.19</ele>
        <time>2019-09-12T14:29:55Z</time>
      </trkpt>
      <trkpt lat="45.30842" lon="6.68565">
        <ele>2198.19</ele>
        <time>2019-09-12T14:30:07Z</time>
      </trkpt>
      <trkpt lat="45.3085" lon="6.6856">
        <ele>2197.71</ele>
        <time>2019-09-12T14:30:15Z</time>
      </trkpt>
      <trkpt lat="45.30855" lon="6.68558">
        <ele>2195.79</ele>
        <time>2019-09-12T14:30:20Z</time>
      </trkpt>
      <trkpt lat="45.30868" lon="6.68544">
        <ele>2191.46</ele>
        <time>2019-09-12T14:30:37Z</time>
      </trkpt>
      <trkpt lat="45.30871" lon="6.68541">
        <ele>2190.5</ele>
        <time>2019-09-12T14:30:42Z</time>
      </trkpt>
      <trkpt lat="45.30874" lon="6.68537">
        <ele>2189.54</ele>
        <time>2019-09-12T14:30:46Z</time>
      </trkpt>
      <trkpt lat="45.30887" lon="6.68524">
        <ele>2187.14</ele>
        <time>2019-09-12T14:31:04Z</time>
      </trkpt>
      <trkpt lat="45.30894" lon="6.68522">
        <ele>2185.21</ele>
        <time>2019-09-12T14:31:11Z</time>
      </trkpt>
      <trkpt lat="45.30897" lon="6.68523">
        <ele>2184.25</ele>
        <time>2019-09-12T14:31:14Z</time>
      </trkpt>
      <trkpt lat="45.30903" lon="6.68519">
        <ele>2183.29</ele>
        <time>2019-09-12T14:31:22Z</time>
      </trkpt>
      <trkpt lat="45.30914" lon="6.68518">
        <ele>2181.37</ele>
        <time>2019-09-12T14:31:42Z</time>
      </trkpt>
      <trkpt lat="45.30915" lon="6.68518">
        <ele>2181.37</ele>
        <time>2019-09-12T14:31:44Z</time>
      </trkpt>
      <trkpt lat="45.30921" lon="6.68516">
        <ele>2180.41</ele>
        <time>2019-09-12T14:31:50Z</time>
      </trkpt>
      <trkpt lat="45.30921" lon="6.68507">
        <ele>2178.97</ele>
        <time>2019-09-12T14:31:58Z</time>
      </trkpt>
      <trkpt lat="45.30922" lon="6.68503">
        <ele>2178</ele>
        <time>2019-09-12T14:32:02Z</time>
      </trkpt>
      <trkpt lat="45.30922" lon="6.68498">
        <ele>2177.04</ele>
        <time>2019-09-12T14:32:06Z</time>
      </trkpt>
      <trkpt lat="45.30925" lon="6.6848">
        <ele>2174.16</ele>
        <time>2019-09-12T14:32:20Z</time>
      </trkpt>
      <trkpt lat="45.30925" lon="6.68476">
        <ele>2173.2</ele>
        <time>2019-09-12T14:32:23Z</time>
      </trkpt>
      <trkpt lat="45.30927" lon="6.68464">
        <ele>2170.31</ele>
        <time>2019-09-12T14:32:33Z</time>
      </trkpt>
      <trkpt lat="45.30928" lon="6.68461">
        <ele>2170.79</ele>
        <time>2019-09-12T14:32:36Z</time>
      </trkpt>
      <trkpt lat="45.3093" lon="6.68459">
        <ele>2170.31</ele>
        <time>2019-09-12T14:32:38Z</time>
      </trkpt>
      <trkpt lat="45.30932" lon="6.68455">
        <ele>2170.31</ele>
        <time>2019-09-12T14:32:42Z</time>
      </trkpt>
      <trkpt lat="45.30932" lon="6.68446">
        <ele>2170.79</ele>
        <time>2019-09-12T14:32:48Z</time>
      </trkpt>
      <trkpt lat="45.30938" lon="6.68431">
        <ele>2169.35</ele>
        <time>2019-09-12T14:33:00Z</time>
      </trkpt>
      <trkpt lat="45.30948" lon="6.68413">
        <ele>2166.95</ele>
        <time>2019-09-12T14:33:19Z</time>
      </trkpt>
      <trkpt lat="45.30949" lon="6.68412">
        <ele>2166.95</ele>
        <time>2019-09-12T14:33:20Z</time>
      </trkpt>
      <trkpt lat="45.30952" lon="6.6841">
        <ele>2166.47</ele>
        <time>2019-09-12T14:33:23Z</time>
      </trkpt>
      <trkpt lat="45.30958" lon="6.68393">
        <ele>2165.99</ele>
        <time>2019-09-12T14:33:35Z</time>
      </trkpt>
      <trkpt lat="45.30959" lon="6.68386">
        <ele>2165.99</ele>
        <time>2019-09-12T14:33:40Z</time>
      </trkpt>
      <trkpt lat="45.30962" lon="6.68374">
        <ele>2165.51</ele>
        <time>2019-09-12T14:33:47Z</time>
      </trkpt>
      <trkpt lat="45.30966" lon="6.68367">
        <ele>2163.58</ele>
        <time>2019-09-12T14:33:53Z</time>
      </trkpt>
      <trkpt lat="45.30973" lon="6.68358">
        <ele>2162.62</ele>
        <time>2019-09-12T14:34:10Z</time>
      </trkpt>
      <trkpt lat="45.30982" lon="6.68366">
        <ele>2160.22</ele>
        <time>2019-09-12T14:34:35Z</time>
      </trkpt>
      <trkpt lat="45.30984" lon="6.68367">
        <ele>2159.74</ele>
        <time>2019-09-12T14:34:37Z</time>
      </trkpt>
      <trkpt lat="45.30987" lon="6.68379">
        <ele>2155.41</ele>
        <time>2019-09-12T14:34:55Z</time>
      </trkpt>
      <trkpt lat="45.30986" lon="6.68385">
        <ele>2153.49</ele>
        <time>2019-09-12T14:35:18Z</time>
      </trkpt>
      <trkpt lat="45.30988" lon="6.68385">
        <ele>2152.05</ele>
        <time>2019-09-12T14:35:22Z</time>
      </trkpt>
      <trkpt lat="45.3099" lon="6.68394">
        <ele>2150.13</ele>
        <time>2019-09-12T14:35:31Z</time>
      </trkpt>
      <trkpt lat="45.30997" lon="6.68405">
        <ele>2149.65</ele>
        <time>2019-09-12T14:35:49Z</time>
      </trkpt>
      <trkpt lat="45.31001" lon="6.68405">
        <ele>2150.13</ele>
        <time>2019-09-12T14:36:17Z</time>
      </trkpt>
      <trkpt lat="45.31006" lon="6.68405">
        <ele>2148.2</ele>
        <time>2019-09-12T14:36:54Z</time>
      </trkpt>
      <trkpt lat="45.31018" lon="6.68404">
        <ele>2145.32</ele>
        <time>2019-09-12T14:37:34Z</time>
      </trkpt>
      <trkpt lat="45.31021" lon="6.68403">
        <ele>2144.36</ele>
        <time>2019-09-12T14:37:39Z</time>
      </trkpt>
      <trkpt lat="45.31034" lon="6.68413">
        <ele>2141.47</ele>
        <time>2019-09-12T14:37:56Z</time>
      </trkpt>
      <trkpt lat="45.31046" lon="6.6843">
        <ele>2137.63</ele>
        <time>2019-09-12T14:38:17Z</time>
      </trkpt>
      <trkpt lat="45.31052" lon="6.68434">
        <ele>2134.74</ele>
        <time>2019-09-12T14:38:31Z</time>
      </trkpt>
      <trkpt lat="45.31063" lon="6.68443">
        <ele>2132.34</ele>
        <time>2019-09-12T14:38:48Z</time>
      </trkpt>
      <trkpt lat="45.3107" lon="6.68449">
        <ele>2130.9</ele>
        <time>2019-09-12T14:39:05Z</time>
      </trkpt>
      <trkpt lat="45.31075" lon="6.68453">
        <ele>2129.94</ele>
        <time>2019-09-12T14:39:11Z</time>
      </trkpt>
      <trkpt lat="45.31077" lon="6.68456">
        <ele>2128.5</ele>
        <time>2019-09-12T14:39:14Z</time>
      </trkpt>
      <trkpt lat="45.31089" lon="6.68463">
        <ele>2126.09</ele>
        <time>2019-09-12T14:39:32Z</time>
      </trkpt>
      <trkpt lat="45.31095" lon="6.68465">
        <ele>2125.13</ele>
        <time>2019-09-12T14:39:50Z</time>
      </trkpt>
      <trkpt lat="45.31101" lon="6.68471">
        <ele>2123.21</ele>
        <time>2019-09-12T14:40:10Z</time>
      </trkpt>
      <trkpt lat="45.31111" lon="6.68483">
        <ele>2118.88</ele>
        <time>2019-09-12T14:40:29Z</time>
      </trkpt>
      <trkpt lat="45.31111" lon="6.68488">
        <ele>2117.44</ele>
        <time>2019-09-12T14:40:52Z</time>
      </trkpt>
      <trkpt lat="45.31112" lon="6.68489">
        <ele>2116.96</ele>
        <time>2019-09-12T14:41:42Z</time>
      </trkpt>
      <trkpt lat="45.31113" lon="6.68479">
        <ele>2113.12</ele>
        <time>2019-09-12T14:41:58Z</time>
      </trkpt>
      <trkpt lat="45.31113" lon="6.68475">
        <ele>2112.15</ele>
        <time>2019-09-12T14:42:03Z</time>
      </trkpt>
      <trkpt lat="45.31113" lon="6.6846">
        <ele>2110.23</ele>
        <time>2019-09-12T14:42:21Z</time>
      </trkpt>
      <trkpt lat="45.31111" lon="6.6845">
        <ele>2106.87</ele>
        <time>2019-09-12T14:42:36Z</time>
      </trkpt>
      <trkpt lat="45.31106" lon="6.68442">
        <ele>2102.54</ele>
        <time>2019-09-12T14:42:51Z</time>
      </trkpt>
      <trkpt lat="45.311" lon="6.68433">
        <ele>2100.14</ele>
        <time>2019-09-12T14:43:07Z</time>
      </trkpt>
      <trkpt lat="45.31099" lon="6.68424">
        <ele>2099.18</ele>
        <time>2019-09-12T14:43:25Z</time>
      </trkpt>
      <trkpt lat="45.31105" lon="6.68423">
        <ele>2096.29</ele>
        <time>2019-09-12T14:43:41Z</time>
      </trkpt>
      <trkpt lat="45.31111" lon="6.68422">
        <ele>2096.29</ele>
        <time>2019-09-12T14:44:00Z</time>
      </trkpt>
      <trkpt lat="45.31117" lon="6.68422">
        <ele>2095.33</ele>
        <time>2019-09-12T14:44:17Z</time>
      </trkpt>
      <trkpt lat="45.31122" lon="6.68423">
        <ele>2091.97</ele>
        <time>2019-09-12T14:44:33Z</time>
      </trkpt>
      <trkpt lat="45.31115" lon="6.68413">
        <ele>2087.64</ele>
        <time>2019-09-12T14:44:53Z</time>
      </trkpt>
      <trkpt lat="45.31111" lon="6.68402">
        <ele>2084.76</ele>
        <time>2019-09-12T14:45:14Z</time>
      </trkpt>
      <trkpt lat="45.3111" lon="6.68388">
        <ele>2079.47</ele>
        <time>2019-09-12T14:45:34Z</time>
      </trkpt>
      <trkpt lat="45.3111" lon="6.68382">
        <ele>2077.55</ele>
        <time>2019-09-12T14:45:47Z</time>
      </trkpt>
      <trkpt lat="45.31104" lon="6.6837">
        <ele>2074.66</ele>
        <time>2019-09-12T14:46:02Z</time>
      </trkpt>
      <trkpt lat="45.311" lon="6.68362">
        <ele>2073.22</ele>
        <time>2019-09-12T14:46:20Z</time>
      </trkpt>
      <trkpt lat="45.31099" lon="6.68354">
        <ele>2071.78</ele>
        <time>2019-09-12T14:46:38Z</time>
      </trkpt>
      <trkpt lat="45.31112" lon="6.68361">
        <ele>2066.97</ele>
        <time>2019-09-12T14:46:58Z</time>
      </trkpt>
      <trkpt lat="45.3112" lon="6.68366">
        <ele>2066.49</ele>
        <time>2019-09-12T14:47:17Z</time>
      </trkpt>
      <trkpt lat="45.31129" lon="6.68367">
        <ele>2064.57</ele>
        <time>2019-09-12T14:47:38Z</time>
      </trkpt>
      <trkpt lat="45.31131" lon="6.6837">
        <ele>2062.65</ele>
        <time>2019-09-12T14:47:54Z</time>
      </trkpt>
      <trkpt lat="45.31132" lon="6.68366">
        <ele>2058.32</ele>
        <time>2019-09-12T14:48:10Z</time>
      </trkpt>
      <trkpt lat="45.3113" lon="6.6835">
        <ele>2053.99</ele>
        <time>2019-09-12T14:48:29Z</time>
      </trkpt>
      <trkpt lat="45.31125" lon="6.68341">
        <ele>2049.19</ele>
        <time>2019-09-12T14:48:48Z</time>
      </trkpt>
      <trkpt lat="45.31122" lon="6.68334">
        <ele>2048.23</ele>
        <time>2019-09-12T14:49:08Z</time>
      </trkpt>
      <trkpt lat="45.3112" lon="6.68323">
        <ele>2047.75</ele>
        <time>2019-09-12T14:49:31Z</time>
      </trkpt>
      <trkpt lat="45.31118" lon="6.68318">
        <ele>2047.26</ele>
        <time>2019-09-12T14:49:42Z</time>
      </trkpt>
      <trkpt lat="45.31124" lon="6.68317">
        <ele>2042.94</ele>
        <time>2019-09-12T14:49:58Z</time>
      </trkpt>
      <trkpt lat="45.3113" lon="6.6832">
        <ele>2041.98</ele>
        <time>2019-09-12T14:50:14Z</time>
      </trkpt>
      <trkpt lat="45.31143" lon="6.68333">
        <ele>2035.25</ele>
        <time>2019-09-12T14:50:33Z</time>
      </trkpt>
      <trkpt lat="45.31146" lon="6.68335">
        <ele>2034.29</ele>
        <time>2019-09-12T14:50:53Z</time>
      </trkpt>
      <trkpt lat="45.31152" lon="6.68342">
        <ele>2030.44</ele>
        <time>2019-09-12T14:51:09Z</time>
      </trkpt>
      <trkpt lat="45.3116" lon="6.68343">
        <ele>2026.6</ele>
        <time>2019-09-12T14:51:24Z</time>
      </trkpt>
      <trkpt lat="45.31163" lon="6.68344">
        <ele>2025.64</ele>
        <time>2019-09-12T14:51:29Z</time>
      </trkpt>
      <trkpt lat="45.31167" lon="6.68348">
        <ele>2024.19</ele>
        <time>2019-09-12T14:51:46Z</time>
      </trkpt>
      <trkpt lat="45.31185" lon="6.68355">
        <ele>2021.31</ele>
        <time>2019-09-12T14:52:05Z</time>
      </trkpt>
      <trkpt lat="45.31188" lon="6.68356">
        <ele>2021.31</ele>
        <time>2019-09-12T14:52:08Z</time>
      </trkpt>
      <trkpt lat="45.31201" lon="6.68369">
        <ele>2020.35</ele>
        <time>2019-09-12T14:52:27Z</time>
      </trkpt>
      <trkpt lat="45.31207" lon="6.68368">
        <ele>2020.83</ele>
        <time>2019-09-12T14:52:35Z</time>
      </trkpt>
      <trkpt lat="45.31212" lon="6.68376">
        <ele>2018.43</ele>
        <time>2019-09-12T14:52:50Z</time>
      </trkpt>
      <trkpt lat="45.31211" lon="6.68374">
        <ele>2016.5</ele>
        <time>2019-09-12T14:52:58Z</time>
      </trkpt>
      <trkpt lat="45.31207" lon="6.68362">
        <ele>2014.1</ele>
        <time>2019-09-12T14:53:18Z</time>
      </trkpt>
      <trkpt lat="45.31207" lon="6.68361">
        <ele>2013.62</ele>
        <time>2019-09-12T14:53:22Z</time>
      </trkpt>
      <trkpt lat="45.31206" lon="6.68352">
        <ele>2011.7</ele>
        <time>2019-09-12T14:53:33Z</time>
      </trkpt>
      <trkpt lat="45.312" lon="6.68344">
        <ele>2009.29</ele>
        <time>2019-09-12T14:53:51Z</time>
      </trkpt>
      <trkpt lat="45.31192" lon="6.68335">
        <ele>2007.85</ele>
        <time>2019-09-12T14:54:06Z</time>
      </trkpt>
      <trkpt lat="45.31189" lon="6.6832">
        <ele>2007.37</ele>
        <time>2019-09-12T14:54:19Z</time>
      </trkpt>
      <trkpt lat="45.31185" lon="6.68301">
        <ele>2003.52</ele>
        <time>2019-09-12T14:54:38Z</time>
      </trkpt>
      <trkpt lat="45.31178" lon="6.68285">
        <ele>2001.12</ele>
        <time>2019-09-12T14:54:57Z</time>
      </trkpt>
      <trkpt lat="45.31177" lon="6.68274">
        <ele>1998.72</ele>
        <time>2019-09-12T14:55:06Z</time>
      </trkpt>
      <trkpt lat="45.31179" lon="6.6826">
        <ele>1994.87</ele>
        <time>2019-09-12T14:55:24Z</time>
      </trkpt>
      <trkpt lat="45.31178" lon="6.68258">
        <ele>1994.87</ele>
        <time>2019-09-12T14:55:26Z</time>
      </trkpt>
      <trkpt lat="45.31177" lon="6.68257">
        <ele>1995.35</ele>
        <time>2019-09-12T14:55:28Z</time>
      </trkpt>
      <trkpt lat="45.31174" lon="6.68245">
        <ele>1994.39</ele>
        <time>2019-09-12T14:55:35Z</time>
      </trkpt>
      <trkpt lat="45.31177" lon="6.68243">
        <ele>1994.39</ele>
        <time>2019-09-12T14:55:37Z</time>
      </trkpt>
      <trkpt lat="45.31188" lon="6.68242">
        <ele>1992.95</ele>
        <time>2019-09-12T14:55:44Z</time>
      </trkpt>
      <trkpt lat="45.31201" lon="6.68243">
        <ele>1992.47</ele>
        <time>2019-09-12T14:55:52Z</time>
      </trkpt>
      <trkpt lat="45.31206" lon="6.68246">
        <ele>1991.51</ele>
        <time>2019-09-12T14:55:56Z</time>
      </trkpt>
      <trkpt lat="45.31234" lon="6.68249">
        <ele>1989.59</ele>
        <time>2019-09-12T14:56:14Z</time>
      </trkpt>
      <trkpt lat="45.31235" lon="6.6825">
        <ele>1989.1</ele>
        <time>2019-09-12T14:56:15Z</time>
      </trkpt>
      <trkpt lat="45.3124" lon="6.68249">
        <ele>1989.1</ele>
        <time>2019-09-12T14:56:18Z</time>
      </trkpt>
      <trkpt lat="45.31254" lon="6.68246">
        <ele>1986.7</ele>
        <time>2019-09-12T14:56:29Z</time>
      </trkpt>
      <trkpt lat="45.3126" lon="6.68247">
        <ele>1985.74</ele>
        <time>2019-09-12T14:56:34Z</time>
      </trkpt>
      <trkpt lat="45.31287" lon="6.6825">
        <ele>1981.41</ele>
        <time>2019-09-12T14:56:55Z</time>
      </trkpt>
      <trkpt lat="45.31307" lon="6.68251">
        <ele>1977.57</ele>
        <time>2019-09-12T14:57:13Z</time>
      </trkpt>
      <trkpt lat="45.31324" lon="6.68259">
        <ele>1971.32</ele>
        <time>2019-09-12T14:57:32Z</time>
      </trkpt>
      <trkpt lat="45.31336" lon="6.68265">
        <ele>1966.51</ele>
        <time>2019-09-12T14:57:44Z</time>
      </trkpt>
      <trkpt lat="45.31342" lon="6.68269">
        <ele>1966.03</ele>
        <time>2019-09-12T14:57:49Z</time>
      </trkpt>
      <trkpt lat="45.31344" lon="6.6827">
        <ele>1965.55</ele>
        <time>2019-09-12T14:57:51Z</time>
      </trkpt>
      <trkpt lat="45.31347" lon="6.68275">
        <ele>1966.51</ele>
        <time>2019-09-12T14:57:53Z</time>
      </trkpt>
      <trkpt lat="45.31352" lon="6.68275">
        <ele>1967.96</ele>
        <time>2019-09-12T14:58:20Z</time>
      </trkpt>
      <trkpt lat="45.31352" lon="6.68273">
        <ele>1968.44</ele>
        <time>2019-09-12T14:58:58Z</time>
      </trkpt>
      <trkpt lat="45.31351" lon="6.68272">
        <ele>1967.48</ele>
        <time>2019-09-12T14:59:43Z</time>
      </trkpt>
      <trkpt lat="45.31353" lon="6.68271">
        <ele>1966.99</ele>
        <time>2019-09-12T15:00:07Z</time>
      </trkpt>
      <trkpt lat="45.31366" lon="6.68269">
        <ele>1966.99</ele>
        <time>2019-09-12T15:00:30Z</time>
      </trkpt>
      <trkpt lat="45.31373" lon="6.6827">
        <ele>1966.51</ele>
        <time>2019-09-12T15:00:40Z</time>
      </trkpt>
      <trkpt lat="45.31376" lon="6.68272">
        <ele>1966.03</ele>
        <time>2019-09-12T15:00:55Z</time>
      </trkpt>
      <trkpt lat="45.31376" lon="6.68272">
        <ele>1966.03</ele>
        <time>2019-09-12T15:01:51Z</time>
      </trkpt>
      <trkpt lat="45.31375" lon="6.68271">
        <ele>1965.55</ele>
        <time>2019-09-12T15:02:13Z</time>
      </trkpt>
      <trkpt lat="45.31373" lon="6.68269">
        <ele>1966.03</ele>
        <time>2019-09-12T15:02:18Z</time>
      </trkpt>
      <trkpt lat="45.31369" lon="6.68262">
        <ele>1970.36</ele>
        <time>2019-09-12T15:02:31Z</time>
      </trkpt>
      <trkpt lat="45.3137" lon="6.68248">
        <ele>1969.4</ele>
        <time>2019-09-12T15:02:37Z</time>
      </trkpt>
      <trkpt lat="45.31377" lon="6.68234">
        <ele>1968.44</ele>
        <time>2019-09-12T15:02:45Z</time>
      </trkpt>
      <trkpt lat="45.31382" lon="6.68224">
        <ele>1968.44</ele>
        <time>2019-09-12T15:02:51Z</time>
      </trkpt>
      <trkpt lat="45.31388" lon="6.68218">
        <ele>1968.92</ele>
        <time>2019-09-12T15:02:56Z</time>
      </trkpt>
      <trkpt lat="45.31413" lon="6.68212">
        <ele>1967.96</ele>
        <time>2019-09-12T15:03:11Z</time>
      </trkpt>
      <trkpt lat="45.31432" lon="6.68205">
        <ele>1967.48</ele>
        <time>2019-09-12T15:03:27Z</time>
      </trkpt>
      <trkpt lat="45.3145" lon="6.68221">
        <ele>1965.55</ele>
        <time>2019-09-12T15:03:44Z</time>
      </trkpt>
      <trkpt lat="45.31464" lon="6.68228">
        <ele>1964.11</ele>
        <time>2019-09-12T15:03:54Z</time>
      </trkpt>
      <trkpt lat="45.31467" lon="6.68231">
        <ele>1963.63</ele>
        <time>2019-09-12T15:03:58Z</time>
      </trkpt>
      <trkpt lat="45.31477" lon="6.68235">
        <ele>1963.63</ele>
        <time>2019-09-12T15:04:04Z</time>
      </trkpt>
      <trkpt lat="45.31495" lon="6.68249">
        <ele>1963.15</ele>
        <time>2019-09-12T15:04:18Z</time>
      </trkpt>
      <trkpt lat="45.31523" lon="6.68266">
        <ele>1965.07</ele>
        <time>2019-09-12T15:04:39Z</time>
      </trkpt>
      <trkpt lat="45.31553" lon="6.68275">
        <ele>1965.55</ele>
        <time>2019-09-12T15:04:59Z</time>
      </trkpt>
      <trkpt lat="45.31579" lon="6.68282">
        <ele>1968.44</ele>
        <time>2019-09-12T15:05:16Z</time>
      </trkpt>
      <trkpt lat="45.31605" lon="6.68291">
        <ele>1966.03</ele>
        <time>2019-09-12T15:05:33Z</time>
      </trkpt>
      <trkpt lat="45.31606" lon="6.68293">
        <ele>1965.55</ele>
        <time>2019-09-12T15:05:34Z</time>
      </trkpt>
      <trkpt lat="45.31613" lon="6.68298">
        <ele>1966.99</ele>
        <time>2019-09-12T15:05:39Z</time>
      </trkpt>
      <trkpt lat="45.31639" lon="6.6831">
        <ele>1963.63</ele>
        <time>2019-09-12T15:05:57Z</time>
      </trkpt>
      <trkpt lat="45.31648" lon="6.68317">
        <ele>1963.15</ele>
        <time>2019-09-12T15:06:04Z</time>
      </trkpt>
      <trkpt lat="45.31659" lon="6.68326">
        <ele>1962.67</ele>
        <time>2019-09-12T15:06:12Z</time>
      </trkpt>
      <trkpt lat="45.31663" lon="6.68329">
        <ele>1961.71</ele>
        <time>2019-09-12T15:06:15Z</time>
      </trkpt>
      <trkpt lat="45.31672" lon="6.68336">
        <ele>1961.23</ele>
        <time>2019-09-12T15:06:21Z</time>
      </trkpt>
      <trkpt lat="45.31675" lon="6.68341">
        <ele>1961.23</ele>
        <time>2019-09-12T15:06:24Z</time>
      </trkpt>
      <trkpt lat="45.31686" lon="6.68351">
        <ele>1961.23</ele>
        <time>2019-09-12T15:06:32Z</time>
      </trkpt>
      <trkpt lat="45.31693" lon="6.68358">
        <ele>1960.75</ele>
        <time>2019-09-12T15:06:37Z</time>
      </trkpt>
      <trkpt lat="45.31696" lon="6.68362">
        <ele>1961.23</ele>
        <time>2019-09-12T15:06:41Z</time>
      </trkpt>
      <trkpt lat="45.31711" lon="6.68378">
        <ele>1959.78</ele>
        <time>2019-09-12T15:06:53Z</time>
      </trkpt>
      <trkpt lat="45.31715" lon="6.68385">
        <ele>1959.3</ele>
        <time>2019-09-12T15:06:57Z</time>
      </trkpt>
      <trkpt lat="45.31725" lon="6.68395">
        <ele>1958.82</ele>
        <time>2019-09-12T15:07:05Z</time>
      </trkpt>
      <trkpt lat="45.31727" lon="6.68397">
        <ele>1958.82</ele>
        <time>2019-09-12T15:07:07Z</time>
      </trkpt>
      <trkpt lat="45.31737" lon="6.68405">
        <ele>1958.82</ele>
        <time>2019-09-12T15:07:20Z</time>
      </trkpt>
      <trkpt lat="45.31739" lon="6.68406">
        <ele>1959.3</ele>
        <time>2019-09-12T15:07:25Z</time>
      </trkpt>
      <trkpt lat="45.31747" lon="6.68412">
        <ele>1958.82</ele>
        <time>2019-09-12T15:07:35Z</time>
      </trkpt>
      <trkpt lat="45.31757" lon="6.68421">
        <ele>1958.34</ele>
        <time>2019-09-12T15:07:44Z</time>
      </trkpt>
      <trkpt lat="45.3176" lon="6.68425">
        <ele>1957.86</ele>
        <time>2019-09-12T15:07:47Z</time>
      </trkpt>
      <trkpt lat="45.3178" lon="6.68442">
        <ele>1957.38</ele>
        <time>2019-09-12T15:08:03Z</time>
      </trkpt>
      <trkpt lat="45.31784" lon="6.68448">
        <ele>1956.9</ele>
        <time>2019-09-12T15:08:07Z</time>
      </trkpt>
      <trkpt lat="45.318" lon="6.68466">
        <ele>1954.02</ele>
        <time>2019-09-12T15:08:20Z</time>
      </trkpt>
      <trkpt lat="45.31824" lon="6.68495">
        <ele>1951.61</ele>
        <time>2019-09-12T15:08:40Z</time>
      </trkpt>
      <trkpt lat="45.31833" lon="6.68506">
        <ele>1951.61</ele>
        <time>2019-09-12T15:08:48Z</time>
      </trkpt>
      <trkpt lat="45.31846" lon="6.68523">
        <ele>1951.13</ele>
        <time>2019-09-12T15:08:59Z</time>
      </trkpt>
      <trkpt lat="45.31851" lon="6.68526">
        <ele>1950.65</ele>
        <time>2019-09-12T15:09:03Z</time>
      </trkpt>
      <trkpt lat="45.31873" lon="6.68556">
        <ele>1951.13</ele>
        <time>2019-09-12T15:09:23Z</time>
      </trkpt>
      <trkpt lat="45.3189" lon="6.68573">
        <ele>1949.21</ele>
        <time>2019-09-12T15:09:38Z</time>
      </trkpt>
      <trkpt lat="45.31896" lon="6.68578">
        <ele>1947.29</ele>
        <time>2019-09-12T15:09:43Z</time>
      </trkpt>
      <trkpt lat="45.31916" lon="6.68599">
        <ele>1949.21</ele>
        <time>2019-09-12T15:09:57Z</time>
      </trkpt>
      <trkpt lat="45.31928" lon="6.68619">
        <ele>1945.85</ele>
        <time>2019-09-12T15:10:10Z</time>
      </trkpt>
      <trkpt lat="45.31931" lon="6.68623">
        <ele>1944.88</ele>
        <time>2019-09-12T15:10:13Z</time>
      </trkpt>
      <trkpt lat="45.31939" lon="6.68631">
        <ele>1943.44</ele>
        <time>2019-09-12T15:10:20Z</time>
      </trkpt>
      <trkpt lat="45.3195" lon="6.68637">
        <ele>1942.96</ele>
        <time>2019-09-12T15:10:27Z</time>
      </trkpt>
      <trkpt lat="45.31964" lon="6.68655">
        <ele>1940.08</ele>
        <time>2019-09-12T15:10:40Z</time>
      </trkpt>
      <trkpt lat="45.31974" lon="6.68672">
        <ele>1938.16</ele>
        <time>2019-09-12T15:10:51Z</time>
      </trkpt>
      <trkpt lat="45.3198" lon="6.68675">
        <ele>1936.71</ele>
        <time>2019-09-12T15:10:55Z</time>
      </trkpt>
      <trkpt lat="45.31998" lon="6.68683">
        <ele>1937.67</ele>
        <time>2019-09-12T15:11:07Z</time>
      </trkpt>
      <trkpt lat="45.32008" lon="6.68695">
        <ele>1938.16</ele>
        <time>2019-09-12T15:11:14Z</time>
      </trkpt>
      <trkpt lat="45.32018" lon="6.68708">
        <ele>1938.64</ele>
        <time>2019-09-12T15:11:23Z</time>
      </trkpt>
      <trkpt lat="45.32031" lon="6.68719">
        <ele>1937.67</ele>
        <time>2019-09-12T15:11:33Z</time>
      </trkpt>
      <trkpt lat="45.32047" lon="6.68734">
        <ele>1937.67</ele>
        <time>2019-09-12T15:11:46Z</time>
      </trkpt>
      <trkpt lat="45.32053" lon="6.68738">
        <ele>1937.67</ele>
        <time>2019-09-12T15:11:50Z</time>
      </trkpt>
      <trkpt lat="45.32078" lon="6.68749">
        <ele>1938.16</ele>
        <time>2019-09-12T15:12:07Z</time>
      </trkpt>
      <trkpt lat="45.32088" lon="6.68758">
        <ele>1937.67</ele>
        <time>2019-09-12T15:12:15Z</time>
      </trkpt>
      <trkpt lat="45.32115" lon="6.6877">
        <ele>1937.67</ele>
        <time>2019-09-12T15:12:33Z</time>
      </trkpt>
      <trkpt lat="45.32126" lon="6.68779">
        <ele>1937.67</ele>
        <time>2019-09-12T15:12:41Z</time>
      </trkpt>
      <trkpt lat="45.32131" lon="6.68784">
        <ele>1937.19</ele>
        <time>2019-09-12T15:12:45Z</time>
      </trkpt>
      <trkpt lat="45.32138" lon="6.68788">
        <ele>1936.23</ele>
        <time>2019-09-12T15:12:50Z</time>
      </trkpt>
      <trkpt lat="45.32145" lon="6.68789">
        <ele>1935.27</ele>
        <time>2019-09-12T15:12:54Z</time>
      </trkpt>
      <trkpt lat="45.32158" lon="6.68798">
        <ele>1933.83</ele>
        <time>2019-09-12T15:13:04Z</time>
      </trkpt>
      <trkpt lat="45.32167" lon="6.68803">
        <ele>1931.43</ele>
        <time>2019-09-12T15:13:10Z</time>
      </trkpt>
      <trkpt lat="45.32174" lon="6.68806">
        <ele>1930.95</ele>
        <time>2019-09-12T15:13:15Z</time>
      </trkpt>
      <trkpt lat="45.32194" lon="6.68809">
        <ele>1929.98</ele>
        <time>2019-09-12T15:13:27Z</time>
      </trkpt>
      <trkpt lat="45.32203" lon="6.68812">
        <ele>1928.06</ele>
        <time>2019-09-12T15:13:40Z</time>
      </trkpt>
      <trkpt lat="45.32214" lon="6.68818">
        <ele>1928.06</ele>
        <time>2019-09-12T15:13:47Z</time>
      </trkpt>
      <trkpt lat="45.32222" lon="6.6882">
        <ele>1929.02</ele>
        <time>2019-09-12T15:13:53Z</time>
      </trkpt>
      <trkpt lat="45.32229" lon="6.68821">
        <ele>1929.5</ele>
        <time>2019-09-12T15:13:57Z</time>
      </trkpt>
      <trkpt lat="45.32233" lon="6.68824">
        <ele>1928.54</ele>
        <time>2019-09-12T15:14:01Z</time>
      </trkpt>
      <trkpt lat="45.32236" lon="6.68826">
        <ele>1928.54</ele>
        <time>2019-09-12T15:14:03Z</time>
      </trkpt>
      <trkpt lat="45.32254" lon="6.6884">
        <ele>1927.1</ele>
        <time>2019-09-12T15:14:15Z</time>
      </trkpt>
      <trkpt lat="45.32273" lon="6.68847">
        <ele>1924.7</ele>
        <time>2019-09-12T15:14:28Z</time>
      </trkpt>
      <trkpt lat="45.32284" lon="6.68852">
        <ele>1924.22</ele>
        <time>2019-09-12T15:14:36Z</time>
      </trkpt>
      <trkpt lat="45.32299" lon="6.68863">
        <ele>1927.58</ele>
        <time>2019-09-12T15:14:47Z</time>
      </trkpt>
      <trkpt lat="45.32306" lon="6.68871">
        <ele>1927.1</ele>
        <time>2019-09-12T15:14:53Z</time>
      </trkpt>
      <trkpt lat="45.32325" lon="6.68889">
        <ele>1925.18</ele>
        <time>2019-09-12T15:15:07Z</time>
      </trkpt>
      <trkpt lat="45.32333" lon="6.68892">
        <ele>1924.22</ele>
        <time>2019-09-12T15:15:12Z</time>
      </trkpt>
      <trkpt lat="45.32358" lon="6.68885">
        <ele>1922.77</ele>
        <time>2019-09-12T15:15:26Z</time>
      </trkpt>
      <trkpt lat="45.32386" lon="6.68889">
        <ele>1922.77</ele>
        <time>2019-09-12T15:15:43Z</time>
      </trkpt>
      <trkpt lat="45.32389" lon="6.68892">
        <ele>1923.74</ele>
        <time>2019-09-12T15:15:46Z</time>
      </trkpt>
      <trkpt lat="45.32395" lon="6.68892">
        <ele>1923.25</ele>
        <time>2019-09-12T15:15:50Z</time>
      </trkpt>
      <trkpt lat="45.32402" lon="6.68897">
        <ele>1922.77</ele>
        <time>2019-09-12T15:15:55Z</time>
      </trkpt>
      <trkpt lat="45.32409" lon="6.68903">
        <ele>1922.77</ele>
        <time>2019-09-12T15:16:00Z</time>
      </trkpt>
      <trkpt lat="45.32415" lon="6.68908">
        <ele>1921.33</ele>
        <time>2019-09-12T15:16:05Z</time>
      </trkpt>
      <trkpt lat="45.32441" lon="6.68927">
        <ele>1920.85</ele>
        <time>2019-09-12T15:16:24Z</time>
      </trkpt>
      <trkpt lat="45.32444" lon="6.68928">
        <ele>1920.85</ele>
        <time>2019-09-12T15:16:26Z</time>
      </trkpt>
      <trkpt lat="45.32451" lon="6.68938">
        <ele>1920.85</ele>
        <time>2019-09-12T15:16:32Z</time>
      </trkpt>
      <trkpt lat="45.32454" lon="6.6894">
        <ele>1920.85</ele>
        <time>2019-09-12T15:16:35Z</time>
      </trkpt>
      <trkpt lat="45.3247" lon="6.68958">
        <ele>1919.41</ele>
        <time>2019-09-12T15:16:48Z</time>
      </trkpt>
      <trkpt lat="45.32501" lon="6.6896">
        <ele>1914.12</ele>
        <time>2019-09-12T15:17:06Z</time>
      </trkpt>
      <trkpt lat="45.32525" lon="6.68971">
        <ele>1914.6</ele>
        <time>2019-09-12T15:17:23Z</time>
      </trkpt>
      <trkpt lat="45.32547" lon="6.68996">
        <ele>1914.6</ele>
        <time>2019-09-12T15:17:42Z</time>
      </trkpt>
      <trkpt lat="45.32576" lon="6.69014">
        <ele>1913.16</ele>
        <time>2019-09-12T15:18:00Z</time>
      </trkpt>
      <trkpt lat="45.32602" lon="6.69018">
        <ele>1917.97</ele>
        <time>2019-09-12T15:18:15Z</time>
      </trkpt>
      <trkpt lat="45.32613" lon="6.69021">
        <ele>1916.04</ele>
        <time>2019-09-12T15:18:24Z</time>
      </trkpt>
      <trkpt lat="45.3263" lon="6.69024">
        <ele>1917.97</ele>
        <time>2019-09-12T15:18:35Z</time>
      </trkpt>
      <trkpt lat="45.32644" lon="6.69029">
        <ele>1917.97</ele>
        <time>2019-09-12T15:18:45Z</time>
      </trkpt>
      <trkpt lat="45.32657" lon="6.69038">
        <ele>1916.53</ele>
        <time>2019-09-12T15:18:53Z</time>
      </trkpt>
      <trkpt lat="45.32665" lon="6.69052">
        <ele>1915.08</ele>
        <time>2019-09-12T15:19:02Z</time>
      </trkpt>
      <trkpt lat="45.32674" lon="6.69057">
        <ele>1915.08</ele>
        <time>2019-09-12T15:19:09Z</time>
      </trkpt>
      <trkpt lat="45.32688" lon="6.69063">
        <ele>1915.56</ele>
        <time>2019-09-12T15:19:19Z</time>
      </trkpt>
      <trkpt lat="45.32694" lon="6.69064">
        <ele>1916.53</ele>
        <time>2019-09-12T15:19:23Z</time>
      </trkpt>
      <trkpt lat="45.327" lon="6.69067">
        <ele>1916.04</ele>
        <time>2019-09-12T15:19:27Z</time>
      </trkpt>
      <trkpt lat="45.32724" lon="6.69065">
        <ele>1917.01</ele>
        <time>2019-09-12T15:19:46Z</time>
      </trkpt>
      <trkpt lat="45.32744" lon="6.69047">
        <ele>1918.93</ele>
        <time>2019-09-12T15:20:02Z</time>
      </trkpt>
      <trkpt lat="45.32762" lon="6.69027">
        <ele>1919.41</ele>
        <time>2019-09-12T15:20:17Z</time>
      </trkpt>
      <trkpt lat="45.32782" lon="6.68993">
        <ele>1914.6</ele>
        <time>2019-09-12T15:20:37Z</time>
      </trkpt>
      <trkpt lat="45.32788" lon="6.68986">
        <ele>1913.16</ele>
        <time>2019-09-12T15:20:42Z</time>
      </trkpt>
      <trkpt lat="45.32814" lon="6.68972">
        <ele>1904.99</ele>
        <time>2019-09-12T15:21:00Z</time>
      </trkpt>
      <trkpt lat="45.32837" lon="6.6898">
        <ele>1902.11</ele>
        <time>2019-09-12T15:21:17Z</time>
      </trkpt>
      <trkpt lat="45.32857" lon="6.68987">
        <ele>1907.39</ele>
        <time>2019-09-12T15:21:32Z</time>
      </trkpt>
      <trkpt lat="45.32874" lon="6.68993">
        <ele>1909.8</ele>
        <time>2019-09-12T15:21:47Z</time>
      </trkpt>
      <trkpt lat="45.32894" lon="6.68994">
        <ele>1906.43</ele>
        <time>2019-09-12T15:22:03Z</time>
      </trkpt>
      <trkpt lat="45.32916" lon="6.68996">
        <ele>1904.51</ele>
        <time>2019-09-12T15:22:18Z</time>
      </trkpt>
      <trkpt lat="45.32918" lon="6.68997">
        <ele>1904.03</ele>
        <time>2019-09-12T15:22:20Z</time>
      </trkpt>
      <trkpt lat="45.32938" lon="6.68999">
        <ele>1903.55</ele>
        <time>2019-09-12T15:22:35Z</time>
      </trkpt>
      <trkpt lat="45.32957" lon="6.68999">
        <ele>1903.55</ele>
        <time>2019-09-12T15:22:48Z</time>
      </trkpt>
      <trkpt lat="45.32976" lon="6.69002">
        <ele>1902.11</ele>
        <time>2019-09-12T15:23:02Z</time>
      </trkpt>
      <trkpt lat="45.32995" lon="6.69002">
        <ele>1900.18</ele>
        <time>2019-09-12T15:23:17Z</time>
      </trkpt>
      <trkpt lat="45.3302" lon="6.69003">
        <ele>1899.7</ele>
        <time>2019-09-12T15:23:35Z</time>
      </trkpt>
      <trkpt lat="45.33036" lon="6.69003">
        <ele>1896.82</ele>
        <time>2019-09-12T15:23:50Z</time>
      </trkpt>
      <trkpt lat="45.33054" lon="6.69005">
        <ele>1895.38</ele>
        <time>2019-09-12T15:24:03Z</time>
      </trkpt>
      <trkpt lat="45.33073" lon="6.69002">
        <ele>1892.49</ele>
        <time>2019-09-12T15:24:17Z</time>
      </trkpt>
      <trkpt lat="45.33088" lon="6.69001">
        <ele>1892.49</ele>
        <time>2019-09-12T15:24:28Z</time>
      </trkpt>
      <trkpt lat="45.33098" lon="6.69001">
        <ele>1892.01</ele>
        <time>2019-09-12T15:24:36Z</time>
      </trkpt>
      <trkpt lat="45.33121" lon="6.69001">
        <ele>1891.05</ele>
        <time>2019-09-12T15:24:54Z</time>
      </trkpt>
      <trkpt lat="45.33139" lon="6.69001">
        <ele>1886.24</ele>
        <time>2019-09-12T15:25:09Z</time>
      </trkpt>
      <trkpt lat="45.33157" lon="6.68995">
        <ele>1880.96</ele>
        <time>2019-09-12T15:25:24Z</time>
      </trkpt>
      <trkpt lat="45.33178" lon="6.68997">
        <ele>1875.67</ele>
        <time>2019-09-12T15:25:40Z</time>
      </trkpt>
      <trkpt lat="45.33197" lon="6.69011">
        <ele>1871.34</ele>
        <time>2019-09-12T15:25:58Z</time>
      </trkpt>
      <trkpt lat="45.33217" lon="6.69018">
        <ele>1867.98</ele>
        <time>2019-09-12T15:26:12Z</time>
      </trkpt>
      <trkpt lat="45.33219" lon="6.6902">
        <ele>1867.5</ele>
        <time>2019-09-12T15:26:14Z</time>
      </trkpt>
      <trkpt lat="45.33242" lon="6.69024">
        <ele>1863.17</ele>
        <time>2019-09-12T15:26:31Z</time>
      </trkpt>
      <trkpt lat="45.33262" lon="6.69022">
        <ele>1863.65</ele>
        <time>2019-09-12T15:26:46Z</time>
      </trkpt>
      <trkpt lat="45.33268" lon="6.69017">
        <ele>1863.65</ele>
        <time>2019-09-12T15:26:52Z</time>
      </trkpt>
      <trkpt lat="45.33271" lon="6.69015">
        <ele>1864.13</ele>
        <time>2019-09-12T15:26:54Z</time>
      </trkpt>
      <trkpt lat="45.33278" lon="6.69009">
        <ele>1865.09</ele>
        <time>2019-09-12T15:26:59Z</time>
      </trkpt>
      <trkpt lat="45.33292" lon="6.69004">
        <ele>1866.06</ele>
        <time>2019-09-12T15:27:11Z</time>
      </trkpt>
      <trkpt lat="45.33299" lon="6.69003">
        <ele>1867.02</ele>
        <time>2019-09-12T15:27:16Z</time>
      </trkpt>
      <trkpt lat="45.33324" lon="6.69004">
        <ele>1868.94</ele>
        <time>2019-09-12T15:27:34Z</time>
      </trkpt>
      <trkpt lat="45.33326" lon="6.69005">
        <ele>1868.94</ele>
        <time>2019-09-12T15:27:36Z</time>
      </trkpt>
      <trkpt lat="45.33331" lon="6.69006">
        <ele>1868.46</ele>
        <time>2019-09-12T15:27:40Z</time>
      </trkpt>
      <trkpt lat="45.33347" lon="6.69006">
        <ele>1867.5</ele>
        <time>2019-09-12T15:27:51Z</time>
      </trkpt>
      <trkpt lat="45.33358" lon="6.69008">
        <ele>1867.02</ele>
        <time>2019-09-12T15:28:00Z</time>
      </trkpt>
      <trkpt lat="45.33374" lon="6.69016">
        <ele>1863.17</ele>
        <time>2019-09-12T15:28:15Z</time>
      </trkpt>
      <trkpt lat="45.3338" lon="6.69022">
        <ele>1861.73</ele>
        <time>2019-09-12T15:28:23Z</time>
      </trkpt>
      <trkpt lat="45.33383" lon="6.69023">
        <ele>1860.77</ele>
        <time>2019-09-12T15:28:27Z</time>
      </trkpt>
      <trkpt lat="45.33388" lon="6.69026">
        <ele>1860.29</ele>
        <time>2019-09-12T15:28:32Z</time>
      </trkpt>
      <trkpt lat="45.33408" lon="6.69025">
        <ele>1857.4</ele>
        <time>2019-09-12T15:28:49Z</time>
      </trkpt>
      <trkpt lat="45.33429" lon="6.69025">
        <ele>1852.6</ele>
        <time>2019-09-12T15:29:06Z</time>
      </trkpt>
      <trkpt lat="45.33448" lon="6.69023">
        <ele>1846.35</ele>
        <time>2019-09-12T15:29:22Z</time>
      </trkpt>
      <trkpt lat="45.33463" lon="6.69026">
        <ele>1841.06</ele>
        <time>2019-09-12T15:29:37Z</time>
      </trkpt>
      <trkpt lat="45.33468" lon="6.69033">
        <ele>1841.06</ele>
        <time>2019-09-12T15:29:44Z</time>
      </trkpt>
      <trkpt lat="45.33475" lon="6.69039">
        <ele>1839.14</ele>
        <time>2019-09-12T15:29:50Z</time>
      </trkpt>
      <trkpt lat="45.33489" lon="6.69049">
        <ele>1837.22</ele>
        <time>2019-09-12T15:30:05Z</time>
      </trkpt>
      <trkpt lat="45.33507" lon="6.69065">
        <ele>1834.81</ele>
        <time>2019-09-12T15:30:21Z</time>
      </trkpt>
      <trkpt lat="45.33508" lon="6.69066">
        <ele>1834.81</ele>
        <time>2019-09-12T15:30:22Z</time>
      </trkpt>
      <trkpt lat="45.33517" lon="6.69071">
        <ele>1833.37</ele>
        <time>2019-09-12T15:30:28Z</time>
      </trkpt>
      <trkpt lat="45.33534" lon="6.69077">
        <ele>1830.01</ele>
        <time>2019-09-12T15:30:39Z</time>
      </trkpt>
      <trkpt lat="45.33552" lon="6.69092">
        <ele>1825.68</ele>
        <time>2019-09-12T15:30:58Z</time>
      </trkpt>
      <trkpt lat="45.33565" lon="6.69104">
        <ele>1822.8</ele>
        <time>2019-09-12T15:31:13Z</time>
      </trkpt>
      <trkpt lat="45.33571" lon="6.69109">
        <ele>1821.35</ele>
        <time>2019-09-12T15:31:20Z</time>
      </trkpt>
      <trkpt lat="45.33585" lon="6.69125">
        <ele>1816.55</ele>
        <time>2019-09-12T15:31:38Z</time>
      </trkpt>
      <trkpt lat="45.33589" lon="6.69128">
        <ele>1814.63</ele>
        <time>2019-09-12T15:31:43Z</time>
      </trkpt>
      <trkpt lat="45.33593" lon="6.6913">
        <ele>1813.66</ele>
        <time>2019-09-12T15:31:46Z</time>
      </trkpt>
      <trkpt lat="45.33606" lon="6.69137">
        <ele>1812.22</ele>
        <time>2019-09-12T15:31:58Z</time>
      </trkpt>
      <trkpt lat="45.33611" lon="6.69141">
        <ele>1811.74</ele>
        <time>2019-09-12T15:32:04Z</time>
      </trkpt>
      <trkpt lat="45.33629" lon="6.69153">
        <ele>1808.86</ele>
        <time>2019-09-12T15:32:19Z</time>
      </trkpt>
      <trkpt lat="45.33647" lon="6.69165">
        <ele>1808.38</ele>
        <time>2019-09-12T15:32:34Z</time>
      </trkpt>
      <trkpt lat="45.33657" lon="6.6918">
        <ele>1806.94</ele>
        <time>2019-09-12T15:32:49Z</time>
      </trkpt>
      <trkpt lat="45.33664" lon="6.69194">
        <ele>1804.53</ele>
        <time>2019-09-12T15:32:59Z</time>
      </trkpt>
      <trkpt lat="45.33677" lon="6.69211">
        <ele>1800.69</ele>
        <time>2019-09-12T15:33:14Z</time>
      </trkpt>
      <trkpt lat="45.33681" lon="6.69216">
        <ele>1799.73</ele>
        <time>2019-09-12T15:33:19Z</time>
      </trkpt>
      <trkpt lat="45.33685" lon="6.69224">
        <ele>1797.8</ele>
        <time>2019-09-12T15:33:25Z</time>
      </trkpt>
      <trkpt lat="45.33692" lon="6.69229">
        <ele>1795.88</ele>
        <time>2019-09-12T15:33:31Z</time>
      </trkpt>
      <trkpt lat="45.33712" lon="6.69235">
        <ele>1790.59</ele>
        <time>2019-09-12T15:33:49Z</time>
      </trkpt>
      <trkpt lat="45.33713" lon="6.69235">
        <ele>1790.59</ele>
        <time>2019-09-12T15:33:51Z</time>
      </trkpt>
      <trkpt lat="45.33716" lon="6.6924">
        <ele>1789.63</ele>
        <time>2019-09-12T15:33:55Z</time>
      </trkpt>
      <trkpt lat="45.33715" lon="6.69249">
        <ele>1785.79</ele>
        <time>2019-09-12T15:33:59Z</time>
      </trkpt>
      <trkpt lat="45.33701" lon="6.69256">
        <ele>1779.54</ele>
        <time>2019-09-12T15:34:10Z</time>
      </trkpt>
      <trkpt lat="45.33684" lon="6.69261">
        <ele>1776.17</ele>
        <time>2019-09-12T15:34:29Z</time>
      </trkpt>
      <trkpt lat="45.33678" lon="6.6926">
        <ele>1775.69</ele>
        <time>2019-09-12T15:34:35Z</time>
      </trkpt>
      <trkpt lat="45.33666" lon="6.69269">
        <ele>1775.21</ele>
        <time>2019-09-12T15:34:45Z</time>
      </trkpt>
      <trkpt lat="45.33666" lon="6.69276">
        <ele>1774.25</ele>
        <time>2019-09-12T15:35:04Z</time>
      </trkpt>
      <trkpt lat="45.33666" lon="6.69277">
        <ele>1774.25</ele>
        <time>2019-09-12T15:35:05Z</time>
      </trkpt>
      <trkpt lat="45.3367" lon="6.69284">
        <ele>1774.25</ele>
        <time>2019-09-12T15:35:10Z</time>
      </trkpt>
      <trkpt lat="45.33679" lon="6.6929">
        <ele>1774.25</ele>
        <time>2019-09-12T15:35:18Z</time>
      </trkpt>
      <trkpt lat="45.33686" lon="6.69301">
        <ele>1773.77</ele>
        <time>2019-09-12T15:35:26Z</time>
      </trkpt>
      <trkpt lat="45.33694" lon="6.69316">
        <ele>1776.17</ele>
        <time>2019-09-12T15:35:35Z</time>
      </trkpt>
      <trkpt lat="45.33703" lon="6.69343">
        <ele>1775.21</ele>
        <time>2019-09-12T15:35:49Z</time>
      </trkpt>
      <trkpt lat="45.33724" lon="6.69363">
        <ele>1774.73</ele>
        <time>2019-09-12T15:36:06Z</time>
      </trkpt>
      <trkpt lat="45.33729" lon="6.69366">
        <ele>1774.25</ele>
        <time>2019-09-12T15:36:09Z</time>
      </trkpt>
      <trkpt lat="45.33737" lon="6.69372">
        <ele>1771.85</ele>
        <time>2019-09-12T15:36:15Z</time>
      </trkpt>
      <trkpt lat="45.33758" lon="6.69381">
        <ele>1768.48</ele>
        <time>2019-09-12T15:36:31Z</time>
      </trkpt>
      <trkpt lat="45.33774" lon="6.69398">
        <ele>1767.04</ele>
        <time>2019-09-12T15:36:44Z</time>
      </trkpt>
      <trkpt lat="45.33776" lon="6.69402">
        <ele>1767.04</ele>
        <time>2019-09-12T15:36:48Z</time>
      </trkpt>
      <trkpt lat="45.33786" lon="6.69418">
        <ele>1766.08</ele>
        <time>2019-09-12T15:37:02Z</time>
      </trkpt>
      <trkpt lat="45.33787" lon="6.69419">
        <ele>1766.08</ele>
        <time>2019-09-12T15:37:03Z</time>
      </trkpt>
      <trkpt lat="45.33794" lon="6.69427">
        <ele>1765.12</ele>
        <time>2019-09-12T15:37:09Z</time>
      </trkpt>
      <trkpt lat="45.33796" lon="6.69431">
        <ele>1765.12</ele>
        <time>2019-09-12T15:37:11Z</time>
      </trkpt>
      <trkpt lat="45.3381" lon="6.69451">
        <ele>1764.64</ele>
        <time>2019-09-12T15:37:23Z</time>
      </trkpt>
      <trkpt lat="45.33813" lon="6.6946">
        <ele>1764.16</ele>
        <time>2019-09-12T15:37:28Z</time>
      </trkpt>
      <trkpt lat="45.33832" lon="6.69474">
        <ele>1762.23</ele>
        <time>2019-09-12T15:37:42Z</time>
      </trkpt>
      <trkpt lat="45.33849" lon="6.69485">
        <ele>1761.27</ele>
        <time>2019-09-12T15:37:55Z</time>
      </trkpt>
      <trkpt lat="45.33868" lon="6.69498">
        <ele>1759.83</ele>
        <time>2019-09-12T15:38:09Z</time>
      </trkpt>
      <trkpt lat="45.33888" lon="6.69506">
        <ele>1758.87</ele>
        <time>2019-09-12T15:38:23Z</time>
      </trkpt>
      <trkpt lat="45.33898" lon="6.6951">
        <ele>1758.39</ele>
        <time>2019-09-12T15:38:30Z</time>
      </trkpt>
      <trkpt lat="45.33915" lon="6.69509">
        <ele>1756.47</ele>
        <time>2019-09-12T15:38:41Z</time>
      </trkpt>
      <trkpt lat="45.33917" lon="6.69508">
        <ele>1755.99</ele>
        <time>2019-09-12T15:38:43Z</time>
      </trkpt>
      <trkpt lat="45.33938" lon="6.69506">
        <ele>1753.58</ele>
        <time>2019-09-12T15:38:58Z</time>
      </trkpt>
      <trkpt lat="45.3394" lon="6.69506">
        <ele>1753.1</ele>
        <time>2019-09-12T15:39:01Z</time>
      </trkpt>
      <trkpt lat="45.33944" lon="6.69506">
        <ele>1751.66</ele>
        <time>2019-09-12T15:39:18Z</time>
      </trkpt>
    </trkseg>
  </trk>
</gpx>